[[{"header":{"parameterUnit":"m.s-1","parameterCategory":1,"la1":30.6,"la2":28.766,"lo1":-90.7593,"lo2":-88.6598,"dy":0.0162,"dx":0.0183,"nx":116,"ny":114,"refTime":"2023-11-02T00:00:00:Z","depth":0,"parameterNumber":2,"parameterNumberName":"U-component_of_WINDS"},"data":[0.0,0.0,0.0,0.0,0.0,0.0,0.0,0.0,0.0,0.0,0.0,0.0,0.0,0.0,0.0,0.0,0.0,0.0,0.0,0.0,0.0,0.0,0.0,0.0,0.0,0.0,0.0,0.0,0.0,0.0,0.0,0.0,0.0,0.0,0.0,0.0,0.0,0.0,0.0,0.0,0.0,0.0,0.0,0.0,0.0,0.0,0.0,0.0,0.0,0.0,0.0,0.0,0.0,0.0,0.0,0.0,0.0,0.0,0.0,0.0,0.0,0.0,0.0,0.0,0.0,0.0,0.0,0.0,0.0,0.0,0.0,0.0,0.0,0.0,0.0,0.0,0.0,0.0,0.0,0.0,0.0,0.0,0.0,0.0,0.0,0.0,0.0,0.0,0.0,0.0,0.0,0.0,0.0,0.0,0.0,0.0,0.0,0.0,0.0,0.0,0.0,0.0,0.0,0.0,0.0,0.0,0.0,0.0,0.0,0.0,0.0,0.0,0.0,0.0,0.0,0.0,0.0,0.0,0.0,0.0,0.0,0.0,0.0,0.0,0.0,0.0,0.0,0.0,0.0,0.0,0.0,0.0,0.0,0.0,0.0,0.0,0.0,0.0,0.0,0.0,0.0,0.0,0.0,0.0,0.0,0.0,0.0,0.0,0.0,0.0,0.0,0.0,0.0,0.0,0.0,0.0,0.0,0.0,0.0,0.0,0.0,0.0,0.0,0.0,0.0,0.0,0.0,0.0,0.0,0.0,0.0,0.0,0.0,0.0,0.0,0.0,0.0,0.0,0.0,0.0,0.0,0.0,0.0,0.0,0.0,0.0,0.0,0.0,0.0,0.0,0.0,0.0,0.0,0.0,0.0,0.0,0.0,0.0,0.0,0.0,0.0,0.0,0.0,0.0,0.0,0.0,0.0,0.0,0.0,0.0,0.0,0.0,0.0,0.0,0.0,0.0,0.0,0.0,0.0,0.0,0.0,0.0,0.0,0.0,0.0,0.0,0.0,0.0,0.0,0.0,0.0,0.0,0.0,0.0,0.0,0.0,0.0,0.0,0.0,0.0,0.0,0.0,0.0,0.0,0.0,0.0,0.0,0.0,0.0,0.0,0.0,0.0,0.0,0.0,0.0,0.0,0.0,0.0,0.0,0.0,0.0,0.0,0.0,0.0,0.0,0.0,0.0,0.0,0.0,0.0,0.0,0.0,0.0,0.0,0.0,0.0,0.0,0.0,0.0,0.0,0.0,0.0,0.0,0.0,0.0,0.0,0.0,0.0,0.0,0.0,0.0,0.0,0.0,0.0,0.0,0.0,0.0,0.0,0.0,0.0,0.0,0.0,0.0,0.0,0.0,0.0,0.0,0.0,0.0,0.0,0.0,0.0,0.0,0.0,0.0,0.0,0.0,0.0,0.0,0.0,0.0,0.0,0.0,0.0,0.0,0.0,0.0,0.0,0.0,0.0,0.0,0.0,0.0,0.0,0.0,0.0,0.0,0.0,0.0,0.0,0.0,0.0,0.0,0.0,0.0,0.0,0.0,0.0,0.0,0.0,0.0,0.0,0.0,0.0,0.0,0.0,0.0,0.0,0.0,0.0,0.0,0.0,0.0,0.0,0.0,0.0,0.0,0.0,0.0,0.0,0.0,0.0,0.0,0.0,0.0,0.0,0.0,0.0,0.0,0.0,0.0,0.0,0.0,0.0,0.0,0.0,0.0,0.0,0.0,0.0,0.0,0.0,0.0,0.0,0.0,0.0,0.0,0.0,0.0,0.0,0.0,0.0,0.0,0.0,0.0,0.0,0.0,0.0,0.0,0.0,0.0,0.0,0.0,0.0,0.0,0.0,0.0,0.0,0.0,0.0,0.0,0.0,0.0,0.0,0.0,0.0,0.0,0.0,0.0,0.0,0.0,0.0,0.0,0.0,0.0,0.0,0.0,0.0,0.0,0.0,0.0,0.0,0.0,0.0,0.0,0.0,0.0,0.0,0.0,0.0,0.0,0.0,0.0,0.0,0.0,0.0,0.0,0.0,0.0,0.0,0.0,0.0,0.0,0.0,0.0,0.0,0.0,0.0,0.0,0.0,0.0,0.0,0.0,0.0,0.0,0.0,0.0,0.0,0.0,0.0,0.0,0.0,0.0,0.0,0.0,0.0,0.0,0.0,0.0,0.0,0.0,0.0,0.0,0.0,0.0,0.0,0.0,0.0,0.0,0.0,0.0,0.0,0.0,0.0,0.0,0.0,0.0,0.0,0.0,0.0,0.0,0.0,0.0,0.0,0.0,0.0,0.0,0.0,0.0,0.0,0.0,0.0,0.0,0.0,0.0,0.0,0.0,0.0,0.0,0.0,0.0,0.0,0.0,0.0,0.0,0.0,0.0,0.0,0.0,0.0,0.0,0.0,0.0,0.0,0.0,0.0,0.0,0.0,0.0,0.0,0.0,0.0,0.0,0.0,0.0,0.0,0.0,0.0,0.0,0.0,0.0,0.0,0.0,0.0,0.0,0.0,0.0,0.0,0.0,0.0,0.0,0.0,0.0,0.0,0.0,0.0,0.0,0.0,0.0,0.0,0.0,0.0,0.0,0.0,0.0,0.0,0.0,0.0,0.0,0.0,0.0,0.0,0.0,0.0,0.0,0.0,0.0,0.0,0.0,0.0,0.0,0.0,0.0,0.0,0.0,0.0,0.0,0.0,0.0,0.0,0.0,0.0,0.0,0.0,0.0,0.0,0.0,0.0,0.0,0.0,0.0,0.0,0.0,0.0,0.0,0.0,0.0,0.0,0.0,0.0,0.0,0.0,0.0,0.0,0.0,0.0,0.0,0.0,0.0,0.0,0.0,0.0,0.0,0.0,0.0,0.0,0.0,0.0,0.0,0.0,0.0,0.0,0.0,0.0,0.0,0.0,0.0,0.0,0.0,0.0,0.0,0.0,0.0,0.0,0.0,0.0,0.0,0.0,0.0,0.0,0.0,0.0,0.0,0.0,0.0,0.0,0.0,0.0,0.0,0.0,0.0,0.0,0.0,0.0,0.0,0.0,0.0,0.0,0.0,0.0,0.0,0.0,0.0,0.0,0.0,0.0,0.0,0.0,0.0,0.0,0.0,0.0,0.0,0.0,0.0,0.0,0.0,0.0,0.0,0.0,0.0,0.0,0.0,0.0,0.0,0.0,0.0,0.0,0.0,0.0,0.0,0.0,0.0,0.0,0.0,0.0,0.0,0.0,0.0,0.0,0.0,0.0,0.0,0.0,0.0,0.0,0.0,0.0,0.0,0.0,0.0,0.0,0.0,0.0,0.0,0.0,0.0,0.0,0.0,0.0,0.0,0.0,0.0,0.0,0.0,0.0,0.0,0.0,0.0,0.0,0.0,0.0,0.0,0.0,0.0,0.0,0.0,0.0,0.0,0.0,0.0,0.0,0.0,0.0,0.0,0.0,0.0,0.0,0.0,0.0,0.0,0.0,0.0,0.0,0.0,0.0,0.0,0.0,0.0,0.0,0.0,0.0,0.0,0.0,0.0,0.0,0.0,0.0,0.0,0.0,0.0,0.0,0.0,0.0,0.0,0.0,0.0,0.0,0.0,0.0,0.0,0.0,0.0,0.0,0.0,0.0,0.0,0.0,0.0,0.0,0.0,0.0,0.0,0.0,0.0,0.0,0.0,0.0,0.0,0.0,0.0,0.0,0.0,0.0,0.0,0.0,0.0,0.0,0.0,0.0,0.0,0.0,0.0,0.0,0.0,0.0,0.0,0.0,0.0,0.0,0.0,0.0,0.0,0.0,0.0,0.0,0.0,0.0,0.0,0.0,0.0,0.0,0.0,0.0,0.0,0.0,0.0,0.0,0.0,0.0,0.0,0.0,0.0,0.0,0.0,0.0,0.0,0.0,0.0,0.0,0.0,0.0,0.0,0.0,0.0,0.0,0.0,0.0,0.0,0.0,0.0,0.0,0.0,0.0,0.0,0.0,0.0,0.0,0.0,0.0,0.0,0.0,0.0,0.0,0.0,0.0,0.0,0.0,0.0,0.0,0.0,0.0,0.0,0.0,0.0,0.0,0.0,0.0,0.0,0.0,0.0,0.0,0.0,0.0,0.0,0.0,0.0,0.0,0.0,0.0,0.0,0.0,0.0,0.0,0.0,0.0,0.0,0.0,0.0,0.0,0.0,0.0,0.0,0.0,0.0,0.0,0.0,0.0,0.0,0.0,0.0,0.0,0.0,0.0,0.0,0.0,0.0,0.0,0.0,0.0,0.0,0.0,0.0,0.0,0.0,0.0,0.0,0.0,0.0,0.0,0.0,0.0,0.0,0.0,0.0,0.0,0.0,0.0,0.0,0.0,0.0,0.0,0.0,0.0,0.0,0.0,0.0,0.0,0.0,0.0,0.0,0.0,0.0,0.0,0.0,0.0,0.0,0.0,0.0,0.0,0.0,0.0,0.0,0.0,0.0,0.0,0.0,0.0,0.0,0.0,0.0,0.0,0.0,0.0,0.0,0.0,0.0,0.0,0.0,0.0,0.0,0.0,0.0,0.0,0.0,0.0,0.0,0.0,0.0,0.0,0.0,0.0,0.0,0.0,0.0,0.0,0.0,0.0,0.0,0.0,0.0,0.0,0.0,0.0,0.0,0.0,0.0,0.0,0.0,0.0,0.0,0.0,0.0,0.0,0.0,0.0,0.0,0.0,0.0,0.0,0.0,0.0,0.0,0.0,0.0,0.0,0.0,0.0,0.0,0.0,0.0,0.0,0.0,0.0,0.0,0.0,0.0,0.0,0.0,0.0,0.0,0.0,0.0,0.0,0.0,0.0,0.0,0.0,0.0,0.0,0.0,0.0,0.0,0.0,0.0,0.0,0.0,0.0,0.0,0.0,0.0,0.0,0.0,0.0,0.0,0.0,0.0,0.0,0.0,0.0,0.0,0.0,0.0,0.0,0.0,0.0,0.0,0.0,0.0,0.0,0.0,0.0,0.0,0.0,0.0,0.0,0.0,0.0,0.0,0.0,0.0,0.0,0.0,0.0,0.0,0.0,0.0,0.0,0.0,0.0,0.0,0.0,0.0,0.0,0.0,0.0,0.0,0.0,0.0,0.0,0.0,0.0,0.0,0.0,0.0,0.0,0.0,0.0,0.0,0.0,0.0,0.0,0.0,0.0,0.0,0.0,0.0,0.0,0.0,0.0,0.0,0.0,0.0,0.0,0.0,0.0,0.0,0.0,0.0,0.0,0.0,0.0,0.0,0.0,0.0,0.0,0.0,0.0,0.0,0.0,0.0,0.0,0.0,0.0,0.0,0.0,0.0,0.0,0.0,0.0,0.0,0.0,0.0,0.0,0.0,0.0,0.0,0.0,0.0,0.0,0.0,0.0,0.0,0.0,0.0,0.0,0.0,0.0,0.0,0.0,0.0,0.0,0.0,0.0,0.0,0.0,0.0,0.0,0.0,0.0,0.0,0.0,0.0,0.0,0.0,0.0,0.0,0.0,0.0,0.0,0.0,0.0,0.0,0.0,0.0,0.0,0.0,0.0,0.0,0.0,0.0,0.0,0.0,0.0,0.0,0.0,0.0,0.0,0.0,0.0,0.0,0.0,0.0,0.0,0.0,0.0,0.0,0.0,0.0,0.0,0.0,0.0,0.0,0.0,0.0,0.0,0.0,0.0,0.0,0.0,0.0,0.0,0.0,0.0,0.0,0.0,0.0,0.0,0.0,0.0,0.0,0.0,0.0,0.0,0.0,0.0,0.0,0.0,0.0,0.0,0.0,0.0,0.0,0.0,0.0,0.0,0.0,0.0,0.0,0.0,0.0,0.0,0.0,0.0,0.0,0.0,0.0,0.0,0.0,0.0,0.0,0.0,0.0,0.0,0.0,0.0,0.0,0.0,0.0,0.0,0.0,0.0,0.0,0.0,0.0,0.0,0.0,0.0,0.0,0.0,0.0,0.0,0.0,0.0,0.0,0.0,0.0,0.0,0.0,0.0,0.0,0.0,0.0,0.0,0.0,0.0,0.0,0.0,0.0,0.0,0.0,0.0,0.0,0.0,0.0,0.0,0.0,0.0,0.0,0.0,0.0,0.0,0.0,0.0,0.0,0.0,0.0,0.0,0.0,0.0,-2.0041,0.0,0.0,0.0,0.0,0.0,0.0,0.0,0.0,0.0,0.0,0.0,0.0,0.0,0.0,0.0,0.0,0.0,0.0,0.0,0.0,0.0,0.0,0.0,0.0,0.0,0.0,0.0,0.0,0.0,0.0,0.0,0.0,0.0,0.0,0.0,0.0,0.0,0.0,-1.8032,-1.8854,-1.897,-1.8394,-1.8374,-1.7521,-1.6035,0.0,0.0,0.0,0.0,0.0,0.0,0.0,0.0,0.0,0.0,0.0,0.0,0.0,0.0,0.0,0.0,0.0,0.0,0.0,0.0,0.0,0.0,0.0,0.0,0.0,0.0,0.0,0.0,0.0,0.0,0.0,0.0,0.0,0.0,0.0,0.0,0.0,0.0,0.0,0.0,0.0,0.0,0.0,0.0,0.0,0.0,0.0,0.0,0.0,0.0,0.0,0.0,0.0,0.0,0.0,0.0,0.0,0.0,0.0,0.0,0.0,0.0,0.0,0.0,0.0,0.0,0.0,0.0,0.0,0.0,0.0,-1.8984,0.0,0.0,0.0,0.0,0.0,0.0,0.0,0.0,0.0,0.0,0.0,0.0,0.0,0.0,0.0,0.0,0.0,0.0,0.0,0.0,0.0,0.0,0.0,-1.5504,-1.6432,-1.8073,-1.798,-1.7969,0.0,0.0,0.0,0.0,0.0,0.0,-1.6339,-1.7032,-1.7769,-1.8489,-1.8951,-1.9501,-2.0182,-2.0432,-1.949,-1.7617,-1.7357,0.0,0.0,0.0,0.0,0.0,0.0,0.0,0.0,0.0,0.0,0.0,0.0,0.0,0.0,0.0,0.0,0.0,0.0,0.0,0.0,0.0,0.0,0.0,0.0,0.0,0.0,0.0,0.0,0.0,0.0,0.0,0.0,0.0,0.0,0.0,0.0,0.0,0.0,0.0,0.0,0.0,0.0,0.0,0.0,0.0,0.0,0.0,0.0,0.0,0.0,0.0,0.0,0.0,0.0,0.0,0.0,0.0,0.0,0.0,0.0,0.0,0.0,0.0,0.0,-2.348,-2.3256,-2.2594,-2.1151,-1.9229,-1.906,-1.9052,-1.9122,0.0,0.0,0.0,0.0,0.0,0.0,0.0,0.0,0.0,0.0,0.0,0.0,0.0,0.0,0.0,0.0,0.0,0.0,0.0,0.0,0.0,0.0,-1.449,-1.5574,-1.6696,-1.6998,-1.7279,-1.7639,0.0,0.0,0.0,0.0,0.0,-1.7239,-1.794,-1.8364,-1.8489,-1.9648,-2.0865,-2.2125,-2.141,-2.1134,-2.1153,-1.992,-1.9237,-1.8867,0.0,0.0,0.0,0.0,0.0,0.0,0.0,0.0,0.0,0.0,0.0,0.0,0.0,0.0,0.0,0.0,0.0,0.0,0.0,0.0,0.0,0.0,0.0,0.0,0.0,0.0,0.0,0.0,0.0,0.0,0.0,0.0,0.0,0.0,0.0,0.0,0.0,0.0,0.0,0.0,0.0,-1.7728,-1.7808,0.0,0.0,0.0,0.0,0.0,0.0,0.0,0.0,0.0,0.0,0.0,0.0,0.0,0.0,-2.0845,-2.0688,-2.068,-2.0885,-2.0567,-2.0857,-2.1683,-2.0644,-2.0487,-2.0991,-1.9822,0.0,-1.8394,-1.8228,0.0,0.0,0.0,0.0,0.0,0.0,0.0,0.0,0.0,0.0,0.0,0.0,0.0,0.0,0.0,0.0,0.0,0.0,0.0,0.0,0.0,-1.4405,-1.5629,-1.6757,-1.7163,-1.7254,-1.706,-1.7458,0.0,0.0,0.0,-1.7617,-1.7383,-1.8168,-1.9023,-2.0046,-2.1069,-2.201,-2.2892,-2.2729,-2.2773,-2.2953,-2.2325,-2.1412,-2.0293,-1.9004,0.0,0.0,0.0,0.0,0.0,0.0,0.0,0.0,0.0,0.0,0.0,0.0,0.0,0.0,0.0,0.0,0.0,0.0,0.0,0.0,0.0,0.0,0.0,0.0,0.0,0.0,0.0,0.0,0.0,0.0,0.0,0.0,0.0,0.0,0.0,0.0,0.0,0.0,0.0,-1.8945,-1.9353,-1.9059,-1.9574,-1.9698,0.0,0.0,0.0,0.0,0.0,0.0,0.0,0.0,0.0,-2.0377,-2.0694,-2.1142,-2.176,-2.2135,-2.2336,-2.2336,-2.2711,-2.2481,-2.1754,-2.1524,-2.1012,-2.0256,-1.9649,-1.9106,-1.8638,-1.8636,-1.8562,-1.8378,0.0,0.0,0.0,0.0,0.0,-1.2848,0.0,0.0,0.0,0.0,0.0,0.0,0.0,0.0,0.0,0.0,0.0,0.0,-1.3158,-1.4316,-1.5424,-1.6587,-1.7043,-1.7048,-1.6453,-1.6855,-1.6698,-1.5753,-1.6946,-1.7552,-1.736,-1.8492,-1.9884,-2.1522,-2.2207,-2.2793,-2.3364,-2.3633,-2.3848,-2.3945,-2.3945,-2.3184,-2.1756,-2.0508,-1.957,-1.8851,0.0,0.0,0.0,0.0,0.0,0.0,0.0,0.0,0.0,0.0,0.0,0.0,0.0,0.0,0.0,0.0,0.0,0.0,0.0,0.0,0.0,0.0,0.0,0.0,0.0,0.0,0.0,0.0,0.0,0.0,0.0,0.0,0.0,0.0,0.0,0.0,0.0,-1.9445,-1.9783,-1.9229,-1.9991,-2.0235,0.0,0.0,0.0,0.0,0.0,0.0,-1.9664,-2.1229,-2.1669,-2.0704,-2.1301,-2.1831,-2.2281,-2.2983,-2.329,-2.3212,-2.3829,-2.323,-2.1568,-2.1889,-2.1166,-1.9586,-1.9506,-1.9359,-1.9135,-1.9038,-1.8688,-1.8182,-1.7635,-1.7184,-1.6636,-1.4863,-1.3644,-1.2607,0.0,0.0,0.0,0.0,0.0,0.0,0.0,0.0,0.0,0.0,0.0,-1.2208,-1.3118,-1.3776,-1.4532,-1.5394,-1.609,-1.6211,-1.5602,-1.5882,-1.5823,-1.5278,-1.6175,-1.6843,-1.7189,-1.9354,-2.1113,-2.2441,-2.248,-2.2949,-2.3769,-2.3769,-2.4004,-2.4375,-2.4375,-2.4121,-2.3574,-2.2305,-2.1016,-1.9766,-1.889,0.0,0.0,0.0,0.0,0.0,0.0,0.0,0.0,0.0,0.0,0.0,0.0,0.0,0.0,0.0,0.0,0.0,0.0,0.0,0.0,0.0,0.0,0.0,0.0,0.0,0.0,0.0,0.0,0.0,0.0,0.0,0.0,0.0,0.0,0.0,0.0,0.0,0.0,-1.6964,-1.8817,0.0,0.0,0.0,0.0,-1.9766,-2.0504,-2.0695,-2.0087,-2.0534,-2.0528,-1.9902,-2.0153,-2.0463,-2.0821,-2.107,-2.1146,-2.0875,-2.0902,-2.0692,-2.0274,-2.0288,-2.0274,-2.0174,-1.9893,-1.9773,-1.9693,-1.8867,-1.8318,-1.797,-1.7418,-1.6343,-1.5108,-1.4718,-1.2884,-1.0569,0.0,0.0,0.0,0.0,0.0,0.0,0.0,0.0,-0.9983,-0.9411,-1.0405,-1.1115,-1.0964,-1.2419,-1.3611,-1.4065,-1.5133,-1.5514,-1.4905,-1.5209,-1.5219,-1.4834,-1.556,-1.6461,-1.7564,-1.8538,-2.0079,-2.2192,-2.1868,-2.2435,-2.3789,-2.3789,-2.3867,-2.4023,-2.4297,-2.418,-2.375,-2.3008,-2.2109,-2.1113,-2.0234,-1.9102,0.0,0.0,0.0,0.0,0.0,0.0,0.0,0.0,0.0,0.0,0.0,0.0,0.0,0.0,0.0,0.0,0.0,0.0,0.0,0.0,0.0,0.0,0.0,0.0,0.0,0.0,0.0,0.0,0.0,0.0,0.0,0.0,0.0,0.0,0.0,0.0,0.0,-1.9761,-2.0298,0.0,0.0,-1.9882,-1.9843,-2.0001,-2.0833,-2.0966,-1.9984,-2.1335,-2.1606,-2.0422,-2.0641,-2.0842,-2.0949,-2.1056,-2.0962,-2.0681,-2.0681,-2.0428,-1.996,-1.996,-1.9853,-1.9666,-1.9559,-1.8979,-1.7988,-1.7633,-1.7944,-1.8459,-1.7039,-1.6169,-1.5479,-1.3261,-1.1828,-1.0841,0.0,0.0,0.0,0.0,0.0,0.0,0.0,0.0,-0.9169,-0.8698,-0.9666,-1.0359,-1.0085,-1.1517,-1.2744,-1.3333,-1.4341,-1.4695,-1.4239,-1.4461,-1.4345,-1.3854,-1.4904,-1.6259,-1.7917,-1.8251,-1.9329,-2.1169,-2.0842,-2.1491,-2.2955,-2.2955,-2.3198,-2.3594,-2.4023,-2.3965,-2.3555,-2.3418,-2.2793,-2.1836,-2.129,-2.0312,-1.9238,0.0,0.0,0.0,0.0,0.0,0.0,0.0,0.0,0.0,0.0,0.0,0.0,0.0,0.0,0.0,0.0,0.0,0.0,0.0,0.0,0.0,0.0,0.0,0.0,0.0,0.0,0.0,0.0,0.0,0.0,0.0,0.0,0.0,0.0,0.0,-2.0068,-2.0548,-2.0814,-2.0845,-2.0813,-2.0236,-2.0005,-2.0302,-2.0931,-2.0963,-2.0288,-2.1572,-2.1858,-2.0891,-2.1002,-2.1109,-2.1109,-2.1109,-2.0962,-2.0681,-2.0575,-2.0267,-1.98,-1.9693,-1.9546,-1.9372,-1.8823,-1.7981,-1.6962,-1.6433,-1.6693,-1.7338,-1.5966,-1.5128,-1.4354,-1.2105,-1.0947,-1.0325,0.0,0.0,0.0,0.0,0.0,0.0,0.0,-0.7824,-0.8678,-0.8977,-0.9409,-0.993,-1.0613,-1.1149,-1.1926,-1.3158,-1.3601,-1.3722,-1.3583,-1.3546,-1.3147,-1.2385,-1.4233,-1.6165,-1.8062,-1.8567,-1.9015,-1.9434,-1.9434,-2.0053,-2.1203,-2.1203,-2.1861,-2.2994,-2.3466,-2.3427,-2.3033,-2.346,-2.296,-2.1831,-2.1914,-2.1447,-2.0605,0.0,0.0,0.0,0.0,0.0,0.0,0.0,0.0,0.0,0.0,0.0,0.0,0.0,0.0,0.0,0.0,0.0,0.0,0.0,0.0,0.0,0.0,0.0,0.0,0.0,0.0,0.0,0.0,0.0,0.0,0.0,0.0,0.0,-1.7259,-1.8519,-1.9292,-1.9025,-2.0,-2.0468,-1.992,-2.0107,-2.0388,-2.0681,-2.0695,-2.0815,-2.1096,-2.1109,-2.1109,-2.1109,-2.1109,-2.1109,-2.1109,-2.1096,-2.0949,-2.0655,-2.0361,-2.0007,-1.9714,-1.9434,-1.9301,-1.9185,-1.7618,-1.6903,-1.6727,-1.5182,-1.447,-1.4391,-1.4219,-1.3211,-1.1765,-1.1391,-1.027,-0.8851,0.0,0.0,0.0,0.0,0.0,0.0,0.0,-0.6974,-0.7543,-0.725,-0.8247,-0.88,-0.8373,-0.9495,-1.0421,-1.0754,-1.1303,-1.1937,-1.259,-1.2168,-1.228,-1.3187,-1.4418,-1.5408,-1.6154,-1.6512,-1.7045,-1.7841,-1.7841,-1.8329,-1.9358,-1.9358,-1.9643,-2.0228,-2.0332,-2.0427,-2.0512,-2.0616,-2.0477,-2.0332,-2.2082,-2.2285,-2.1423,0.0,0.0,0.0,0.0,0.0,0.0,0.0,0.0,0.0,0.0,0.0,0.0,0.0,0.0,0.0,0.0,0.0,0.0,0.0,0.0,0.0,0.0,0.0,0.0,0.0,0.0,0.0,0.0,0.0,0.0,0.0,0.0,-1.5335,-1.8039,-1.9332,-2.012,-2.0468,-2.0788,-2.1096,-2.1363,-2.1069,-2.0989,-2.136,-2.1109,-2.1029,-2.1109,-2.1109,-2.1109,-2.1109,-2.1109,-2.1109,-2.1109,-2.0895,-2.0655,-2.0347,-2.0054,-1.9153,-1.7787,-1.7713,-1.7032,-1.5913,-1.5429,-1.4599,-1.3508,-1.2954,-1.2014,-1.1074,-1.219,-1.2305,-1.1761,-1.0315,-0.9321,-0.875,0.0,0.0,0.0,0.0,0.0,0.0,0.0,-0.5464,-0.5889,-0.5278,-0.6795,-0.7606,-0.6748,-0.7934,-0.8963,-0.9312,-0.973,-1.0276,-1.0997,-1.0673,-1.1072,-1.2378,-1.3535,-1.4351,-1.4756,-1.5337,-1.5877,-1.645,-1.6321,-1.6832,-1.7845,-1.7845,-1.8219,-1.8912,-1.9035,-1.9218,-1.9327,-1.943,-1.9497,-1.965,-2.1212,-2.1525,-2.0956,-2.0062,-1.9471,-1.9016,-1.8284,-1.8028,-1.8017,-1.7792,0.0,0.0,0.0,0.0,0.0,0.0,0.0,0.0,0.0,0.0,0.0,0.0,0.0,0.0,0.0,0.0,0.0,0.0,0.0,0.0,0.0,0.0,0.0,0.0,-1.3733,-1.4609,-1.715,-1.8544,-1.9809,-2.1152,-2.1189,-2.1296,-2.1764,-2.139,-2.1176,-2.1349,-2.0553,-2.0005,-2.0005,-1.9355,-1.8896,-1.8896,-1.8896,-1.8912,-1.8855,-1.871,-1.8505,-1.8239,-1.7913,-1.7219,-1.6164,-1.6065,-1.5488,0.0,-1.3885,-1.3048,-1.2148,-1.1383,-1.048,0.0,0.0,0.0,0.0,0.0,-0.8859,-0.8682,0.0,0.0,0.0,0.0,0.0,0.0,0.0,-0.37,-0.4096,-0.3478,-0.5209,-0.6243,-0.5486,-0.6333,-0.7358,-0.825,-0.8433,-0.868,-0.916,-0.9455,-0.9977,-1.0815,-1.21,-1.3078,-1.3634,-1.4518,-1.5028,-1.5101,-1.485,-1.5345,-1.6431,-1.6461,-1.7085,-1.8094,-1.8457,-1.8653,-1.8718,-1.8985,-1.9085,-1.9101,-1.9455,-1.9725,-1.9802,-1.9388,-1.9376,-1.9477,-1.932,-1.9036,-1.8769,-1.8769,0.0,0.0,0.0,0.0,0.0,0.0,0.0,0.0,0.0,0.0,0.0,0.0,0.0,0.0,0.0,0.0,0.0,0.0,0.0,0.0,0.0,0.0,0.0,0.0,-1.351,-1.4195,-1.5149,-1.6583,-1.8399,-2.0709,-2.0682,-2.063,-2.0993,-2.0695,-2.0539,-2.0565,-1.9112,-1.818,-1.818,0.0,0.0,0.0,0.0,-1.5866,-1.5706,-1.5676,-1.5564,-1.5474,-1.5126,-1.4832,-1.47,-1.4451,-1.4242,-1.4004,-1.2569,-1.1916,-1.1796,-1.034,-0.97,-0.9544,-0.9408,-0.9266,-0.9152,-0.8811,-0.8588,0.0,0.0,0.0,0.0,0.0,0.0,0.0,0.0,-0.3085,-0.3238,-0.3313,-0.3844,-0.4197,-0.4166,-0.4357,-0.4931,-0.5932,-0.593,-0.6624,-0.8437,-0.9611,-1.0482,-1.1,-1.1507,-1.1906,-1.2094,-1.2346,-1.2732,-1.3319,-1.327,-1.359,-1.4227,-1.4516,-1.4753,-1.4979,-1.5541,-1.592,-1.6127,-1.6388,-1.6513,-1.6527,-1.6583,-1.7806,-1.9524,-1.8986,-1.8664,-1.8333,-1.7832,-1.7738,-1.7839,-1.7839,-1.7604,-1.7258,-1.6953,-1.6261,0.0,0.0,0.0,0.0,0.0,0.0,0.0,0.0,0.0,0.0,0.0,0.0,0.0,0.0,0.0,0.0,0.0,0.0,0.0,-1.1669,-1.1222,-1.1518,-1.3449,-1.4047,-1.4911,-1.6753,-1.698,-1.7044,-1.7347,-1.7087,-1.7033,-1.7293,-1.673,-1.6431,-1.6431,-1.6108,0.0,-1.5913,-1.5913,-1.5866,-1.5706,-1.546,-1.5267,-1.5115,0.0,0.0,-1.275,-1.2706,-1.1976,-1.0717,-1.0422,-1.024,-1.0233,-0.9813,-0.949,-0.9296,-0.9268,-0.911,-0.896,-0.8777,-0.7927,-0.6907,0.0,0.0,0.0,0.0,0.0,0.0,0.0,-0.1911,-0.2094,-0.1717,-0.2748,-0.3322,-0.285,-0.3244,-0.3755,-0.4188,-0.4051,-0.4783,-0.6878,-0.7556,-0.8325,-0.9288,-1.0171,-1.0612,-1.0604,-1.1149,-1.157,-1.196,-1.1794,-1.1834,-1.2104,-1.2188,-1.2258,-1.2357,-1.2746,-1.304,-1.328,-1.3614,-1.3732,-1.3744,-1.3825,-1.4578,-1.5826,-1.705,-1.7541,-1.7668,-1.7628,-1.7782,-1.8036,-1.8036,-1.7943,-1.7795,-1.7288,-1.6184,-1.504,0.0,0.0,0.0,0.0,0.0,0.0,0.0,0.0,0.0,0.0,0.0,0.0,0.0,0.0,-1.2124,0.0,0.0,-1.1121,-1.0845,-1.0433,-1.0608,-1.1833,-1.1949,-1.2898,-1.5579,-1.5913,-1.5964,-1.614,-1.5984,-1.5964,-1.614,-1.5192,-1.4623,-1.4623,-1.3774,-1.3282,-1.3181,-1.3274,-1.3139,-1.2829,-1.2829,-1.2631,-1.2413,-1.2259,-1.1796,-1.102,-1.102,-1.0543,-0.9822,-0.9822,-0.9781,-0.964,-0.8642,-0.8187,-0.7942,-0.714,-0.7215,-0.7756,-0.7624,-0.6637,-0.5322,0.0,0.0,0.0,0.0,0.0,0.0,0.0,-0.0149,-0.0461,0.0242,-0.1296,-0.2185,-0.1539,-0.2181,-0.2694,-0.2848,-0.2851,-0.3511,-0.5135,-0.5137,-0.5654,-0.6868,-0.8258,-0.8942,-0.8729,-0.9813,-1.0483,-1.0657,-1.0391,-1.037,-1.0502,-1.0488,-1.0456,-1.0512,-1.0763,-1.097,-1.1175,-1.1579,-1.1725,-1.1735,-1.1879,-1.1901,-1.2165,-1.4558,-1.5781,-1.6394,-1.6893,-1.7265,-1.7533,-1.7584,-1.7572,-1.7444,-1.6981,-1.5676,-1.4371,-1.4947,-1.3389,0.0,0.0,0.0,0.0,0.0,0.0,0.0,0.0,0.0,-1.1583,-1.1846,-1.2009,-1.1842,-1.1149,-1.1252,-1.1195,-1.0419,-1.0283,-1.0385,-1.0677,-1.0588,-1.156,-1.4475,-1.4855,-1.4874,-1.4874,-1.4874,-1.4874,-1.4874,-1.3578,-1.2808,-1.2808,-1.1468,-1.0622,-1.0493,-1.0582,-1.0446,-0.999,-1.0175,-1.0093,-0.9822,-0.9822,-0.9822,-0.9822,-0.9822,-0.9822,-0.9754,-0.9485,-0.9093,-0.8586,-0.7059,-0.6445,-0.636,-0.5035,-0.5052,-0.5866,-0.6013,-0.5083,-0.3811,0.0,0.0,0.0,0.0,0.0,0.0,0.0,0.0,0.2304,0.1533,0.1218,0.0731,-0.0122,-0.0318,-0.0782,-0.1867,-0.2768,-0.3496,-0.3957,-0.401,-0.4095,-0.438,-0.5606,-0.6185,-0.6058,-0.7184,-0.8237,-0.9139,-0.9113,-0.9493,-1.0238,-1.0452,-1.0441,-1.0258,-1.0939,-1.1268,-1.1319,-1.1718,-1.1861,-1.1861,-1.1891,-1.1901,-1.195,-1.2262,-1.2702,-1.3183,-1.3656,-1.3955,-1.4126,-1.435,-1.4275,-1.4061,-1.4111,-1.3632,-1.2966,-1.2666,-1.2141,-1.1636,-1.1502,-1.1556,-1.1501,-1.0915,-1.1597,-1.203,0.0,0.0,-1.1321,-1.0309,-1.0179,-1.0196,-1.003,-0.9977,-1.0101,-1.0292,-1.0283,-1.0385,-1.0677,-1.0588,-1.0623,-1.1092,-1.122,-1.1306,-1.1306,-1.1306,-1.1306,-1.1306,-1.1108,-1.0982,-1.0982,-1.0719,-1.0507,-1.0493,-1.0385,-1.0236,-0.999,-1.0004,-0.993,-0.9822,-0.9822,-0.9822,-0.9822,-0.9822,-0.9822,-0.9694,-0.8294,-0.6798,-0.5401,-0.5073,-0.4934,-0.4916,-0.4618,-0.3749,-0.2867,-0.4011,-0.3566,-0.2424,0.0,0.0,0.0,0.0,0.0,0.0,0.0,0.0,0.0,0.2534,0.246,0.2292,0.1873,0.1296,0.0713,0.0225,-0.0787,-0.1791,-0.2701,-0.2738,-0.3068,-0.386,-0.4347,-0.4558,-0.4426,-0.4927,-0.5415,-0.583,-0.583,-0.6016,-0.6393,-0.7066,-0.7433,-0.7554,-0.8475,-0.8968,-0.9189,-0.9388,-0.9494,-0.9502,-0.9608,-0.9657,-0.9657,-0.9657,-0.9747,-1.0197,-1.2161,-1.3049,0.0,-1.3361,-1.3413,-1.3508,-1.3452,-1.2631,-1.178,-1.2114,-1.1024,-0.968,-0.9526,-1.0297,0.0,0.0,-1.0,-1.0437,-0.9685,-0.9938,-1.0237,-0.9889,-0.9883,-0.997,-0.9903,-1.0025,-1.0154,0.0,-1.0256,-1.0249,-1.0548,-1.0385,-1.027,-1.0358,-1.0426,-1.0493,-1.0582,-1.0514,-1.0534,-1.0711,-1.0561,-1.05,-1.0582,-1.0446,-1.0331,-1.0236,-1.0263,-1.0161,-0.9856,-0.9856,-0.9409,-0.842,-0.8299,-0.7752,-0.6969,-0.6967,-0.6962,-0.6895,-0.6138,-0.5408,-0.4732,-0.3656,-0.3271,-0.3134,-0.222,-0.1484,-0.1089,-0.2504,-0.212,-0.0917,0.0,0.0,0.0,0.0,0.0,0.0,0.0,0.0,0.0,0.0,0.3554,0.3446,0.314,0.245,0.2019,0.2019,0.1321,0.0452,-0.0475,-0.0823,-0.1379,-0.2228,-0.2877,-0.3226,-0.3115,-0.3436,-0.3595,-0.3587,-0.3587,-0.3587,-0.3629,-0.4336,-0.4826,-0.506,-0.5842,-0.6328,-0.656,-0.6683,-0.6985,-0.729,-0.7397,-0.769,-0.7988,-0.7988,-0.7941,-0.8182,-1.0439,-1.1397,-1.157,-1.157,-1.1716,-1.191,-1.1874,-1.1017,-1.0247,-1.0861,-0.9697,-0.8214,-0.8306,0.0,0.0,-0.8937,-0.903,-0.932,-0.9469,-0.9537,-0.9625,-0.9842,-0.9909,-0.9984,-0.9984,-1.0107,-1.0215,-1.0405,-1.0256,-1.0202,-1.046,-1.027,-1.0141,-1.0209,-1.0181,-1.0209,-1.0358,-1.0317,-1.0385,-1.0636,-1.0426,-1.0324,-1.0426,-0.9908,-0.9463,-0.9361,-0.9006,-0.8673,-0.8479,-0.8443,-0.7834,-0.6679,-0.656,-0.5962,-0.4892,-0.4891,-0.4634,-0.4204,-0.4162,-0.3816,-0.3329,-0.2106,-0.1581,-0.1507,-0.0428,0.0,-0.0155,-0.1183,-0.0918,0.0,0.0,0.0,0.0,0.0,0.0,0.0,0.0,0.0,0.0,0.0,0.0,0.0,0.0,0.3054,0.3054,0.3054,0.3008,0.3063,0.3148,0.212,0.1539,0.1618,-0.063,-0.1844,-0.1854,-0.2988,-0.3603,-0.36,-0.36,-0.36,-0.36,-0.3644,-0.3647,-0.3654,-0.3819,-0.3902,-0.3912,-0.4083,-0.4864,-0.6077,-0.6077,-0.683,-0.7988,-0.7988,-0.7862,-0.7631,-0.787,-0.7973,-0.7973,-0.7973,-0.798,-0.8007,-0.811,-0.8108,-0.8101,-0.8137,-0.8095,-0.8029,-0.8228,0.0,-0.8832,-0.9118,-0.9367,-0.9632,-0.9774,-0.9862,-0.997,-0.9977,-0.9984,-0.9984,-0.9984,-0.9869,-0.9937,-1.0236,-1.0276,-1.0324,-1.0473,-1.0365,-1.0222,-1.0011,-0.9924,-0.9897,0.0,-1.0195,-1.0337,-1.0487,-1.0365,-1.0283,-1.029,-0.8614,-0.7661,-0.7656,-0.5985,-0.505,-0.5047,-0.5031,-0.5046,-0.4987,-0.4987,-0.4929,-0.4929,-0.4874,-0.4076,-0.2582,-0.258,-0.1635,-0.0165,-0.0111,-0.0054,-0.0052,0.0,0.0,0.0,-0.0051,-0.0051,0.0,0.0,0.0,0.0,0.0,0.0,0.0,0.0,0.0,0.0,0.0,0.0,0.0,0.0,0.0,0.0,0.0,0.351,0.313,0.3167,0.2914,0.2736,0.279,0.1395,0.0582,0.0571,-0.0578,-0.1205,-0.119,-0.119,-0.119,-0.1237,-0.2044,-0.2441,-0.2566,-0.3412,-0.3837,-0.393,-0.4007,-0.4268,-0.4668,-0.4668,-0.4918,-0.5368,-0.5368,-0.525,-0.5081,0.0,-0.607,-0.7321,-0.7321,-0.7434,-0.7543,-0.7699,-0.7678,-0.7617,-0.7719,-0.784,-0.8042,-0.8343,-0.8628,-0.8933,-0.9232,-0.9381,-0.9496,-0.9646,-0.9639,-0.9605,-0.9605,-0.9523,-0.9456,-0.9456,-0.9496,-0.9625,-0.9924,-1.0059,-0.9797,-0.884,-0.8561,-0.8012,-0.6765,-0.658,0.0,0.0,0.0,0.0,-0.8776,-0.8529,-0.7946,-0.689,-0.6176,-0.579,-0.579,-0.5192,-0.4899,-0.4906,-0.4828,-0.4271,-0.3291,-0.2197,-0.1628,-0.1645,-0.1627,-0.1376,-0.0847,-0.0838,-0.0494,0.0,0.0,0.0,0.0,0.0,0.0,0.0101,0.1008,0.1309,0.121,0.0,0.0,0.0,0.0,0.0,0.0,0.0,0.0,0.0,0.0,0.0,0.0,0.0,0.0,0.0,0.0,0.0,0.4277,0.4294,0.398,0.3835,0.3868,0.2841,0.2265,0.2281,0.1509,0.1136,0.1224,0.0801,0.0617,0.0626,-0.0577,-0.1215,-0.1336,-0.2077,-0.2487,-0.2563,-0.2563,-0.2864,-0.3263,-0.329,-0.358,-0.3976,-0.3998,-0.3895,0.0,-0.3714,-0.4632,-0.5829,-0.6322,-0.6579,-0.6756,-0.7263,-0.7112,-0.6669,-0.6332,-0.642,-0.6642,-0.689,-0.7133,-0.7376,-0.7682,-0.7744,-0.7825,-0.7903,-0.7825,-0.7793,-0.7793,-0.8064,-0.8295,-0.8395,-0.8382,-0.8545,-0.8763,-0.8497,-0.7899,-0.6992,-0.6791,-0.6264,-0.5057,-0.4926,0.0,0.0,0.0,0.0,-0.6869,-0.6629,-0.6073,-0.5108,-0.4388,-0.4041,-0.4059,-0.3477,-0.3144,-0.3169,-0.3043,-0.2555,-0.1591,-0.051,0.0,0.0,0.0,0.0,0.0,0.0,0.0,0.0,0.0,0.0,0.0051,0.051,0.071,0.0857,0.2213,0.2714,0.2613,0.0,0.0,0.0,0.0,0.0,0.0,0.0,0.0,0.0,0.0,0.0,0.0,0.0,0.0,0.0,0.0,0.0,0.0,0.6491,0.5413,0.4858,0.4999,0.3839,0.3218,0.3218,0.3129,0.3204,0.3405,0.226,0.1743,0.1858,0.0734,0.0148,0.0101,0.0101,0.005,0.0,0.0,-0.0754,-0.1904,-0.1919,-0.2638,-0.3801,-0.3782,-0.3618,-0.3403,-0.3406,-0.3364,-0.3533,-0.4837,-0.5275,-0.5508,-0.6586,-0.6259,-0.527,-0.4146,-0.3917,-0.4063,-0.4159,-0.4359,-0.4559,-0.47,-0.4797,-0.4917,-0.4913,-0.4909,-0.4907,-0.4907,-0.5808,-0.6594,0.0,0.0,-0.6685,-0.6909,-0.5933,-0.506,-0.4967,-0.4993,-0.4909,0.0,0.0,0.0,0.0,0.0,0.0,-0.4837,0.0,-0.4739,-0.4674,-0.32,-0.2399,-0.2396,-0.0837,0.0,0.0,0.0,0.0,0.0,0.0,0.0,0.0,0.0,0.0,0.0,0.0053,0.0105,0.0104,0.0158,0.0208,0.0354,0.1591,0.2096,0.2264,0.3616,0.4114,0.4114,0.0,0.0,0.0,0.0,0.0,0.0,0.0,0.0,0.0,0.0,0.0,0.0,0.0,0.0,0.0,0.0,0.0,0.0,0.6354,0.6269,0.621,0.6248,0.5165,0.4599,0.4599,0.3619,0.3204,0.3405,0.3083,0.3033,0.3158,0.2824,0.2208,0.1353,0.1353,0.0822,0.0,0.0,-0.0193,-0.0532,-0.0529,-0.072,-0.1008,-0.1018,-0.0958,-0.0939,-0.0906,-0.1466,-0.2361,-0.3471,-0.3923,-0.4122,-0.4423,-0.4378,-0.4193,-0.3867,-0.3972,-0.4192,-0.4402,-0.4548,-0.4671,-0.4826,-0.4777,-0.4764,-0.4763,-0.4648,-0.4609,-0.4609,-0.4755,-0.4853,0.0,0.0,0.0,-0.5276,-0.5168,0.0,-0.3479,-0.3317,0.0,-0.1419,0.0,-0.1248,-0.1226,-0.1243,0.0,0.0,-0.243,-0.2596,-0.1295,-0.0863,-0.061,-0.0656,-0.0237,0.0,0.0,0.0,0.0,0.0,0.0,0.0,0.0,0.0,0.0,0.0052,0.1044,0.1496,0.1573,0.2545,0.299,0.3017,0.3332,0.3481,0.3667,0.4972,0.5477,0.5627,0.0,0.0,0.0,0.0,0.0,0.0,0.0,0.0,0.0,0.0,0.0,0.0,0.0,0.0,0.0,0.0,0.0,0.0,0.0,0.6552,0.66,0.66,0.6099,0.5792,0.5735,0.5056,0.4692,0.4745,0.4351,0.4164,0.425,0.3824,0.3249,0.2614,0.2614,0.1902,0.081,0.081,0.0476,0.0,0.0,0.0,0.0,0.0,0.0,0.0,0.0,-0.0438,-0.1072,-0.1682,-0.2651,-0.3415,-0.2369,-0.2454,-0.2799,-0.227,0.0,-0.238,-0.2499,-0.2565,-0.2676,-0.2754,-0.2686,-0.2655,-0.265,-0.2598,-0.2498,-0.2514,-0.2867,0.0,-0.3199,0.0,0.0,0.0,0.0,0.0,-0.1673,-0.1488,-0.117,0.0,0.0,0.0,0.0,0.0,0.0,0.0,-0.0882,-0.1001,-0.0062,0.0,0.0,0.0,0.0,0.0,0.0,0.0,0.0,0.0,0.0661,0.0926,0.0918,0.1537,0.1821,0.1789,0.0,0.2893,0.2914,0.3667,0.4014,0.4067,0.4668,0.4872,0.5022,0.6381,0.688,0.6986,0.0,0.0,0.0,0.0,0.0,0.0,0.0,0.0,0.0,0.0,0.0,0.0,0.0,0.0,0.0,0.0,0.0,0.0,0.0,0.0,0.6545,0.6545,0.6627,0.6647,0.6532,0.662,0.6614,0.6545,0.5686,0.5297,0.5333,0.4439,0.3966,0.3799,0.3799,0.3143,0.2022,0.2022,0.1412,0.0472,0.0325,0.0233,0.0237,0.0,0.0,0.0,0.0,0.0,0.0,0.0,-0.1394,-0.275,-0.0667,-0.0734,-0.1336,-0.0317,0.0,0.0,0.0,0.0,0.0,0.0,0.0,0.0,0.0,0.0,0.0,0.0,0.0,-0.162,-0.1697,-0.1626,-0.1608,-0.1702,0.0,0.0,0.0,0.0,0.0,0.0,0.0,0.0,0.0,0.0,0.0,0.0,0.0,0.0,0.0,0.0,0.0,0.0,0.0175,0.0284,0.028,0.0504,0.0616,0.0616,0.1867,0.2427,0.2337,0.3584,0.4129,0.4017,0.0,0.0,0.4268,0.4468,0.4518,0.4668,0.5827,0.6282,0.6431,0.7584,0.7988,0.7988,0.0,0.0,0.0,0.0,0.0,0.0,0.0,0.0,0.0,0.0,1.217,0.0,0.0,0.0,0.0,0.0,0.0,0.0,0.0,0.0,0.0,0.6661,0.6688,0.6749,0.6851,0.6627,0.6559,0.6661,0.6383,0.6357,0.6572,0.6424,0.5785,0.4835,0.4835,0.4178,0.3037,0.3037,0.3022,0.2888,0.1891,0.1504,0.1394,0.0377,0.0,0.0,0.0,0.0,0.0,0.0,-0.0271,-0.0542,-0.0112,-0.0168,-0.0278,-0.0056,0.0,0.0,0.0,0.0,0.0,0.0,0.0,0.0,0.0,0.0,0.0,0.0,-0.0153,-0.0303,-0.0355,-0.0313,-0.0326,-0.0346,0.0,0.0,0.0,0.0,0.0,0.0,0.0,0.0,0.0,0.0,0.0,0.0,0.0,0.0,0.0,0.0,0.0,0.0,0.1202,0.1794,0.1846,0.3075,0.3745,0.3742,0.379,0.3831,0.3816,0.3946,0.4028,0.4067,0.0,0.0,0.5727,0.683,0.7285,0.7335,0.7584,0.7633,0.769,0.7889,0.7988,0.7988,0.0,0.0,0.0,0.0,0.0,0.0,0.0,0.0,0.0,0.0,1.3615,1.3609,0.0,0.0,0.0,0.0,0.0,0.0,0.0,0.0,0.0,0.0,0.7848,0.7564,0.7465,0.6992,0.6668,0.658,0.0,0.6783,0.6889,0.6964,0.6686,0.615,0.615,0.5496,0.4397,0.426,0.3983,0.3523,0.287,0.2663,0.2766,0.0,0.0,0.0,0.1055,0.0609,0.0103,0.08,0.1031,0.0934,0.0228,0.0,0.0,0.0,0.0,0.0,0.0,0.0,0.0,0.0,0.0,0.0,0.0,0.0,0.0,0.0,0.0,0.0,0.0,0.0,0.0,0.0,0.0,0.0,0.0,0.0,0.0,0.0,0.0,0.0,0.0,0.0,0.0,0.0,0.0,0.0,0.1356,0.2002,0.2428,0.2351,0.3045,0.3408,0.3408,0.4136,0.4526,0.4526,0.5162,0.545,0.5299,0.6039,0.6235,0.6121,0.6781,0.0,0.7086,0.7739,0.7988,0.7988,0.7988,0.7988,0.7988,0.7988,0.7988,0.7988,0.0,0.0,0.0,0.0,0.0,0.0,0.0,1.2906,1.3373,1.4082,1.4429,1.4656,1.479,1.3913,1.3242,0.0,0.0,0.0,0.0,0.0,0.0,0.0,0.0,0.0,0.8347,0.0,0.0,0.6881,0.6846,0.0,0.0,0.0,0.0,0.0,0.7051,0.6549,0.5681,0.5518,0.5019,0.0,0.0,0.3942,0.0,0.0,0.0,0.0,0.0,0.1728,0.1034,0.2058,0.2413,0.2235,0.1182,0.0634,0.0408,0.0452,0.0225,0.0,0.0,0.0,0.0,0.0,0.0,0.0,0.0,0.0,0.0,0.0,0.0,0.0,0.0,0.0,0.0,0.0,0.0,0.0,0.0,0.0,0.0,0.0,0.0,0.0,0.0,0.0,0.0,0.0,0.0,0.0,0.306,0.4038,0.4613,0.4497,0.4812,0.4972,0.4972,0.523,0.5388,0.5388,0.6503,0.6931,0.6747,0.7878,0.8262,0.7988,0.7988,0.0,0.0,0.7988,0.7988,0.7988,0.7988,0.7988,0.7988,0.7988,0.7988,0.7988,0.0,0.0,0.0,0.0,0.0,0.0,0.0,1.2636,1.3239,1.4335,1.4736,1.5124,1.5658,1.5378,0.0,0.0,0.0,0.0,0.0,0.0,0.0,0.0,0.0,0.0,0.0,0.0,0.0,0.8057,0.7157,0.0,0.0,0.0,0.0,0.0,0.0,0.6786,0.6582,0.6701,0.0,0.0,0.0,0.0,0.0,0.0,0.0,0.0,0.0,0.372,0.3644,0.3776,0.3822,0.3787,0.3697,0.28,0.1835,0.1802,0.0,0.0,0.0,0.0,0.0,0.0,0.0,0.0,0.0,0.0,0.0,0.0,0.0,0.0,0.0,0.0,0.0,0.0,0.0,0.0,0.0,0.0,0.0,0.0,0.0,0.0,0.0,0.0,0.0,0.0,0.0,0.0,0.0,0.4493,0.4522,0.4509,0.5794,0.6478,0.6478,0.7695,0.8291,0.8291,0.8197,0.8162,0.8128,0.8046,0.8015,0.7988,0.0,0.0,0.0,0.7988,0.7988,0.7988,0.7988,0.7988,0.7988,0.7988,0.7988,0.7988,0.0,0.0,0.0,0.0,0.0,0.0,0.0,1.2864,1.3387,1.4389,1.4776,1.5177,1.5718,1.5678,1.5391,0.0,0.0,0.0,0.0,0.0,0.0,0.0,0.0,0.0,0.0,0.0,0.0,0.8623,0.7621,0.0,0.0,0.0,0.0,0.0,0.0,0.6977,0.6923,0.6896,0.0,0.0,0.0,0.0,0.0,0.0,0.0,0.0,0.0,0.0,0.4124,0.4955,0.5184,0.5346,0.6159,0.5492,0.427,0.3564,0.2932,0.2333,0.1547,0.1984,0.2469,0.1567,0.1317,0.1337,0.1327,0.0,0.0,0.0,0.0,0.0,0.0,0.0,0.0,0.0,0.0,0.0271,0.1093,0.1884,0.0,0.0,0.0,0.0,0.0,0.0,0.0,0.0,0.0,0.0,0.0,0.7372,0.7285,0.7158,0.7733,0.8005,0.7919,0.8412,0.871,0.871,0.8587,0.8533,0.8533,0.8377,0.8262,0.8174,0.0,0.0,0.0,0.7988,0.7988,0.7988,0.7988,0.7988,0.7988,0.7988,0.8528,0.9213,0.0,0.0,0.0,0.0,0.0,0.0,1.2462,1.2864,1.3414,1.4389,1.4776,1.5177,1.5718,1.5784,1.5704,1.5538,0.0,0.0,0.0,0.0,0.0,0.0,0.0,0.0,0.0,0.0,0.0,0.9455,0.8132,0.7495,0.0,0.0,0.7441,0.7434,0.0,0.0,0.0,0.0,0.0,0.0,0.0,0.0,0.0,0.0,0.0,0.0,0.0,0.0,0.0,0.0,0.0,0.6731,0.769,0.7353,0.6338,0.51,0.4482,0.3974,0.3052,0.3611,0.4214,0.3139,0.2835,0.2811,0.0,0.0,0.1185,0.1185,0.1198,0.1159,0.1159,0.1159,0.1159,0.1159,0.1172,0.1515,0.2512,0.3194,0.0,0.0,0.0,0.0,0.0,0.0,0.0,0.0,0.0,0.0,0.0,0.9193,0.9042,0.8885,0.8885,0.8831,0.8777,0.8689,0.8642,0.8642,0.8554,0.8533,0.8574,0.8425,0.8323,0.8313,0.0,0.0,0.0,0.7988,0.8237,0.8577,0.8577,0.8825,0.9164,0.9164,0.9747,1.0583,0.0,0.0,0.0,0.0,0.0,0.0,0.0,1.2409,1.3213,1.4362,1.4776,1.5177,1.5718,1.5784,1.5784,1.5784,0.0,0.0,0.0,0.0,0.0,0.0,0.0,0.0,0.0,0.0,0.0,0.0,0.0,0.7597,0.7597,0.7597,0.7597,0.759,0.0,0.0,0.0,0.0,0.0,0.0,0.0,0.0,0.0,0.0,0.0,0.0,0.0,0.0,0.0,0.0,0.0,0.0,0.0,0.7988,0.7716,0.6374,0.514,0.4191,0.4191,0.4357,0.447,0.447,0.43,0.4189,0.0,0.4071,0.3964,0.3964,0.3964,0.3964,0.3964,0.3964,0.3964,0.3964,0.3967,0.402,0.415,0.5746,0.0,0.0,0.0,0.0,0.0,0.0,0.0,0.0,0.0,0.0,0.0,0.9103,0.8885,0.8885,0.8885,0.8885,0.8885,0.8635,0.8486,0.8479,0.8187,0.8126,0.832,0.8113,0.8126,0.0,0.0,0.0,0.0,0.7988,0.8775,1.0002,1.0002,1.073,1.1853,1.1853,1.1853,1.1901,0.0,0.0,0.0,0.0,0.0,0.0,0.0,1.2529,1.3146,1.4095,1.4482,1.4963,1.5738,1.5784,1.5784,1.5784,0.0,0.0,0.0,0.0,0.0,0.0,0.0,0.0,0.0,0.0,0.0,0.0,0.0,0.0,0.0,0.0,0.7746,0.774,0.759,0.0,0.0,0.0,0.0,0.0,0.0,0.0,0.0,0.0,0.0,0.0,0.0,0.0,0.0,0.0,0.0,0.0,0.0,0.0,0.0,0.7491,0.722,0.6794,0.5859,0.644,0.7006,0.5983,0.567,0.5644,0.5658,0.4808,0.4009,0.4007,0.4014,0.4014,0.4014,0.4014,0.4034,0.4136,0.4143,0.4508,0.0,0.0,0.0,0.0,0.0,0.0,0.0,0.0,0.0,0.0,0.0,0.0,0.0,0.8932,0.8885,0.8885,0.8885,0.8831,0.8784,0.8682,0.8635,0.8635,0.854,0.8581,0.8716,0.8459,0.0,0.0,0.0,0.0,0.0,0.9361,1.0141,1.1317,1.1317,1.156,1.1901,1.1901,1.2474,1.3247,0.0,0.0,0.0,0.0,0.0,0.0,0.0,1.2529,1.3065,1.3814,1.4269,1.4816,1.5578,1.5718,1.5784,1.5784,0.0,0.0,0.0,0.0,0.0,0.0,0.0,0.0,0.0,0.0,0.0,0.0,0.0,0.0,0.0,0.0,0.0,0.0,0.7746,0.0,0.0,0.0,0.0,0.0,0.0,0.0,0.7988,0.0,0.0,0.0,0.0,0.0,0.0,0.0,0.0,0.0,0.0,0.0,0.0,0.0,0.8106,0.8011,0.7263,0.7753,0.8269,0.7363,0.7107,0.0,0.7055,0.6258,0.5497,0.5508,0.5522,0.5522,0.5522,0.5522,0.5541,0.5606,0.5704,0.6142,0.0,0.0,0.0,0.0,0.0,0.0,0.0,0.0,0.0,0.0,0.0,0.0,0.0,0.0,0.8885,0.8885,0.8885,0.8838,0.8798,0.8737,0.871,0.871,0.8655,0.8703,0.8845,0.9053,0.0,0.0,0.0,0.0,0.0,1.0766,1.1453,1.2668,1.2668,1.2969,1.3355,1.3355,1.3884,1.4603,0.0,0.0,0.0,0.0,0.0,0.0,0.0,0.0,0.0,0.0,1.4119,1.4736,1.5324,1.5658,1.5784,0.0,0.0,0.0,0.0,0.0,0.0,0.0,0.0,0.0,0.0,0.0,0.0,1.1755,1.0583,0.9312,0.7988,0.0,0.0,0.0,0.0,0.0,0.0,0.0,0.0,0.0,0.788,0.7988,0.0,0.0,0.0,0.0,0.0,0.0,0.0,0.0,0.0,0.0,0.0,0.0,0.0,0.0,0.0,0.0,0.0,0.835,0.8452,0.8452,0.835,0.8255,0.8255,0.814,0.0,0.7988,0.7988,0.7995,0.8002,0.7995,0.7995,0.8015,0.8194,0.8391,0.0,0.0,0.0,0.0,0.0,0.0,0.0,0.0,0.0,0.0,0.0,0.0,0.0,0.0,0.9044,0.903,0.9147,0.9099,0.8885,0.8907,0.8885,0.8885,0.8846,0.8899,0.9033,0.9943,0.0,0.0,0.0,0.0,0.0,1.2178,1.2813,1.4016,1.4016,1.4758,1.5784,1.5784,1.5784,1.5784,0.0,0.0,0.0,0.0,0.0,0.0,0.0,0.0,0.0,0.0,1.4119,1.4736,1.5324,1.5658,0.0,0.0,0.0,0.0,0.0,0.0,0.0,0.0,0.0,0.0,0.0,0.0,0.0,1.0435,1.0141,0.9312,0.7988,0.7988,0.0,0.0,0.0,0.0,0.0,0.0,0.0,0.0,0.7961,0.7988,0.0,0.0,0.0,0.0,0.7988,0.7988,0.0,0.0,0.0,0.0,0.0,0.0,0.0,0.0,0.7988,0.7995,0.8035,0.0,0.8096,0.8096,0.8119,0.8092,0.0,0.8015,0.7988,0.7988,0.7988,0.8022,0.8194,0.8119,0.8062,0.8343,0.8411,0.854,0.0,0.0,0.0,0.0,0.0,0.0,0.0,0.0,0.0,0.0,0.0,0.0,0.0,0.0,1.0506,1.0262,1.1567,1.1164,0.894,0.9983,1.056,1.0552,1.1639,1.2178,1.2206,1.2096,0.0,0.0,0.0,0.0,1.3531,1.3463,1.4172,1.5343,1.5343,1.5534,1.5784,1.5784,1.5784,1.5784,0.0,0.0,0.0,0.0,0.0,0.0,0.0,0.0,0.0,0.0,0.0,0.0,0.0,0.0,0.0,0.0,0.0,0.0,0.0,0.0,0.0,0.0,0.0,0.0,0.0,0.0,0.0,0.0,0.0,0.9312,0.0,0.0,0.0,0.0,0.0,0.0,0.0,0.0,0.0,0.0,0.7961,0.0,0.0,0.0,0.0,0.0,0.7988,0.7988,0.0,0.7988,0.7988,0.7988,0.0,0.0,0.0,0.0,0.7988,0.7988,0.7988,0.8089,0.8241,0.8241,0.8241,0.8241,0.8241,0.8089,0.7988,0.7988,0.7988,0.8015,0.8147,0.8153,0.8201,0.8357,0.856,0.0,0.0,0.0,0.0,0.0,0.0,0.0,0.0,0.0,0.0,0.0,0.0,0.0,0.0,0.0,1.2027,1.1926,1.2827,1.2459,1.0712,1.1656,1.2136,1.2136,1.294,1.3318,1.3308,1.3434,0.0,0.0,0.0,0.0,1.4981,1.4856,1.5188,1.5784,1.5784,1.5784,1.5784,1.5784,1.5784,1.5784,0.0,0.0,0.0,0.0,0.0,0.0,0.0,0.0,0.0,0.0,0.0,0.0,0.0,0.0,0.0,0.0,0.0,0.0,0.0,0.0,0.0,0.0,0.0,0.0,1.1648,1.1609,0.0,0.0,0.0,0.0,0.0,0.0,0.7988,0.0,0.0,0.0,0.0,0.0,0.0,0.0,0.7934,0.0,0.0,0.0,0.0,0.0,0.0,0.0,0.0,0.7988,0.7988,0.7988,0.7988,0.0,0.0,0.0,0.0,0.0,0.8015,0.8309,0.8533,0.8465,0.8465,0.8479,0.8452,0.8235,0.7988,0.7988,0.7988,0.8002,0.8049,0.8194,0.0,0.0,0.0,0.0,0.0,0.0,0.0,0.0,0.0,0.0,0.0,0.0,0.0,0.0,0.0,0.0,0.0,0.0,0.0,1.3536,1.3836,1.3795,1.3456,1.3581,1.3621,1.3536,1.3805,1.3912,1.3901,1.4567,1.4972,0.0,0.0,0.0,1.6179,1.5939,1.5784,1.5784,1.5784,1.5784,1.5784,1.5784,1.5784,1.5784,0.0,0.0,0.0,0.0,0.0,0.0,0.0,0.0,0.0,0.0,0.0,0.0,0.0,0.0,0.0,0.0,0.0,0.0,0.0,0.0,0.0,0.0,1.0888,1.157,1.0337,1.0288,0.9657,0.0,0.0,0.0,0.7988,0.7988,0.7988,0.7988,0.0,0.0,0.0,0.0,0.0,0.7955,0.7982,0.0,0.0,0.0,0.0,0.0,0.0,0.0,0.0,0.7988,0.7988,0.7988,0.7988,0.0,0.0,0.0,0.0,0.0,0.8201,0.8547,0.8777,0.8397,0.8391,0.8452,0.8381,0.8167,0.7988,0.7988,0.7988,0.8062,0.8364,0.8336,0.835,0.0,0.0,0.0,0.0,0.0,0.0,0.0,0.0,0.0,0.0,0.0,0.0,0.0,0.0,0.0,0.0,0.0,0.0,1.4739,1.6163,1.6794,1.651,1.5558,1.4934,1.4728,1.5992,1.6575,1.6613,1.6195,1.6058,0.0,0.0,1.5811,1.5885,1.5798,1.5784,1.5784,1.5784,1.5784,1.5784,1.5784,1.5784,1.5784,0.0,0.0,0.0,0.0,0.0,0.0,0.0,0.0,0.0,0.0,0.0,0.0,0.0,0.0,0.0,0.0,0.0,0.0,0.0,0.0,0.0,0.8038,0.9164,0.9509,0.8924,0.8924,0.8627,0.0,0.0,0.7988,0.7988,0.7988,0.7988,0.7988,0.0,0.0,0.0,0.0,0.7988,0.7988,0.0,0.0,0.0,0.0,0.0,0.0,0.0,0.0,0.0,0.0,0.7988,0.7988,0.7988,0.0,0.0,0.0,0.0,0.0,0.8126,0.8472,0.8764,0.856,0.8737,0.8954,0.8886,0.8689,0.8447,0.8418,0.8404,0.8626,0.9503,0.0,1.0054,1.0527,0.0,0.0,0.0,0.0,0.0,0.0,0.0,0.0,0.0,0.0,0.0,0.0,0.0,0.0,0.0,0.0,0.0,0.0,1.7187,1.7368,1.6914,1.6716,1.6466,1.62,1.6884,1.7112,1.6901,1.6473,1.6321,1.6259,0.0,1.5784,1.5784,1.5784,1.5784,1.5784,1.5784,1.5784,1.5784,1.5784,1.5784,1.5784,0.0,0.0,0.0,0.0,0.0,0.0,0.0,0.0,0.0,0.0,0.0,0.0,0.0,0.0,0.0,0.0,0.0,0.0,0.0,0.0,0.7988,0.7988,0.7988,0.7988,0.7988,0.7988,0.7988,0.7988,0.7988,0.7988,0.7988,0.7988,0.7988,0.0,0.0,0.0,0.0,0.7988,0.7988,0.7988,0.0,0.0,0.0,0.0,0.0,0.0,0.0,0.0,0.0,0.0,0.0,0.0,0.0,0.0,0.0,0.7988,0.7988,0.7995,0.8035,0.837,0.8662,0.8703,0.8967,0.9252,0.9354,0.9123,0.8824,0.8872,0.8838,0.919,0.0,1.1327,0.0,0.0,0.0,0.0,0.0,0.0,0.0,0.0,0.0,0.0,0.0,0.0,0.0,0.0,0.0,0.0,0.0,0.0,0.0,0.0,1.7582,1.7368,1.6914,1.7355,1.7368,1.6991,1.7058,1.6938,1.6593,1.6299,1.6166,1.6152,1.5925,1.5784,1.5784,1.5784,1.5784,1.5784,1.5784,1.5784,1.5784,1.5784,1.5784,1.5784,0.0,0.0,0.0,0.0,0.0,0.0,0.0,0.0,0.0,0.0,0.0,0.0,0.0,0.0,0.0,0.0,0.0,0.0,0.0,0.0,0.7988,0.7988,0.7988,0.7988,0.7988,0.7988,0.7988,0.7988,0.7988,0.7988,0.7988,0.7988,0.7988,0.7988,0.0,0.0,0.0,0.0,0.7988,0.7988,0.7988,0.0,0.0,0.0,0.0,0.0,0.0,0.0,0.0,0.0,0.0,0.0,0.0,0.0,0.7988,0.7988,0.7988,0.8022,0.8214,0.8377,0.8533,0.8676,0.8737,0.8866,0.9286,0.9042,0.8845,0.9245,0.9275,0.9518,0.0,1.2109,1.3317,0.0,0.0,0.0,0.0,0.0,0.0,0.0,0.0,0.0,0.0,0.0,0.0,0.0,0.0,0.0,0.0,0.0,0.0,0.0,0.0,1.7555,1.7515,1.7555,1.7168,1.6388,1.6607,1.658,1.6348,1.5992,1.5858,1.5811,1.5798,1.5784,1.5784,1.5784,1.5784,1.5784,1.5784,1.5784,1.5784,1.5784,1.5784,1.5784,0.0,0.0,0.0,0.0,0.0,0.0,0.0,0.0,0.0,0.0,0.0,0.0,0.0,0.0,0.0,0.0,0.0,0.0,0.0,0.0,0.7988,0.7988,0.7988,0.7948,0.7896,0.7941,0.7988,0.7988,0.7988,0.7988,0.7988,0.7988,0.0,0.0,0.0,0.0,0.0,0.0,0.7988,0.7988,0.7988,0.7988,0.0,0.0,0.0,0.0,0.0,0.0,0.0,0.0,0.7988,0.7988,0.7988,0.7988,0.7988,0.7988,0.7988,0.8002,0.8113,0.837,0.8615,0.8574,0.9402,1.0059,0.9648,0.9462,0.9741,1.0909,1.1217,1.1972,0.0,0.0,0.0,0.0,0.0,0.0,0.0,0.0,0.0,0.0,0.0,0.0,0.0,0.0,0.0,0.0,0.0,0.0,0.0,0.0,0.0,0.0,0.0,1.7502,1.7367,1.7367,1.7018,1.6273,1.6567,1.646,1.5992,1.5885,1.5784,1.5784,1.5784,1.5784,1.5784,1.5784,1.5784,1.5784,1.5784,1.5784,1.5845,1.6032,1.5992,1.5811,0.0,0.0,0.0,0.0,0.0,0.0,0.0,0.0,0.0,0.0,0.0,0.0,0.0,0.0,0.0,0.0,0.0,0.0,0.0,0.7841,0.7874,0.7914,0.7874,0.7847,0.7882,0.7887,0.7921,0.7921,0.7968,0.7988,0.7988,0.0,0.0,0.0,0.0,0.0,0.0,0.0,0.7988,0.7988,0.7988,0.7988,0.0,0.0,0.0,0.0,0.0,0.0,0.0,0.0,0.7988,0.7988,0.7988,0.7988,0.7988,0.7988,0.8022,0.8113,0.8113,0.8639,0.9188,0.9286,1.0605,1.176,1.1368,1.1256,1.1651,1.2978,1.3541,1.4401,1.6391,0.0,0.0,0.0,0.0,0.0,0.0,0.0,0.0,0.0,0.0,0.0,0.0,0.0,0.0,0.0,0.0,0.0,0.0,0.0,0.0,0.0,0.0,1.7487,1.7206,1.7206,1.6911,1.6273,1.6473,1.6313,1.5784,1.5784,1.5784,1.5784,1.5784,1.5784,1.5784,1.5925,1.5965,1.5965,1.5824,1.5784,1.5811,1.6059,1.6059,1.5979,0.0,0.0,0.0,0.0,0.0,0.0,0.0,0.0,0.0,0.0,0.0,0.0,0.0,0.0,0.0,0.0,0.0,0.0,0.0,0.7597,0.7658,0.7801,0.7678,0.774,0.7982,0.7889,0.7814,0.7814,0.7914,0.7988,0.7995,0.8201,0.0,0.0,0.0,0.0,0.0,0.0,0.0,0.0,0.7988,0.7988,0.7988,0.0,0.0,0.0,0.0,0.0,0.0,0.0,0.7988,0.7988,0.7988,0.7988,0.7988,0.7988,0.8147,0.832,0.832,0.9216,1.0357,1.0949,1.2301,1.3772,1.4621,1.4603,1.4636,1.5345,1.5981,1.6507,1.6926,0.0,0.0,0.0,0.0,0.0,0.0,0.0,0.0,0.0,0.0,0.0,0.0,0.0,0.0,0.0,0.0,0.0,0.0,0.0,0.0,0.0,0.0,0.0,1.7206,1.7206,1.6911,1.6273,1.6321,1.6112,1.5784,1.5784,1.5784,1.5784,1.5784,1.5784,1.5845,1.6152,1.6321,1.6246,1.5939,1.5784,1.5784,1.5784,1.6019,1.6233,0.0,0.0,0.0,0.0,0.0,0.0,0.0,0.0,0.0,0.0,0.0,0.0,0.0,0.0,0.0,0.0,0.0,0.0,0.0,0.7482,0.757,0.7502,0.7658,0.774,0.7733,0.778,0.7862,0.7921,0.7968,0.7988,0.0,0.0,0.0,0.8113,0.0,0.0,0.8106,0.8008,0.0,0.7988,0.7988,0.7988,0.0,0.0,0.0,0.0,0.0,0.0,0.0,0.0,0.0,0.0,0.7988,0.8113,0.818,0.8022,0.8786,0.9388,0.8384,0.9868,1.1616,1.1071,1.317,1.5535,1.6184,1.5564,1.5316,1.6985,1.8239,1.9078,1.9215,0.0,0.0,0.0,0.0,0.0,0.0,0.0,0.0,0.0,0.0,0.0,0.0,0.0,0.0,0.0,0.0,0.0,0.0,0.0,0.0,0.0,0.0,0.0,1.7462,1.73,1.7005,1.658,1.6366,1.6112,1.5784,1.5784,1.5784,1.5784,1.5784,1.5784,1.5784,1.5925,1.5965,1.5952,1.5858,1.5784,1.5838,1.6299,1.6233,1.6005,0.0,0.0,0.0,0.0,0.0,0.0,0.0,0.0,0.0,0.0,0.7258,0.7339,0.0,0.0,0.0,0.0,0.0,0.0,0.0,0.0,0.7407,0.7419,0.7543,0.7651,0.7685,0.7828,0.7894,0.7988,0.0,0.0,0.0,0.0,0.8275,0.814,0.0,0.8235,0.0,0.0,0.7955,0.7907,0.7968,0.7988,0.7988,0.0,0.0,0.0,0.0,0.0,0.0,0.0,0.0,0.0,0.7988,0.8106,0.8174,0.814,0.9082,1.0087,0.9484,1.1311,1.3414,1.3393,1.5434,1.7621,1.8294,1.7865,1.7661,0.0,1.9756,2.0267,2.0388,0.0,0.0,0.0,0.0,0.0,0.0,0.0,0.0,0.0,0.0,0.0,0.0,0.0,0.0,0.0,0.0,0.0,0.0,0.0,0.0,0.0,0.0,0.0,1.746,1.7179,1.682,1.6526,1.6233,1.6005,1.5784,1.5784,1.5784,1.5784,1.5784,1.5899,1.5992,1.5824,1.5899,1.6005,1.6005,1.6005,1.6059,1.6526,1.6553,1.6393,0.0,0.0,0.0,0.0,0.0,0.0,0.0,0.0,0.0,0.0,0.6994,0.7019,0.0,0.0,0.0,0.0,0.0,0.0,0.0,0.0,0.7204,0.7346,0.7433,0.7543,0.7828,0.7921,0.7988,0.0,0.0,0.0,0.0,0.833,0.8384,0.8255,0.0,0.8296,0.7968,0.7982,0.7901,0.7828,0.7928,0.7988,0.7988,0.7988,0.0,0.0,0.0,0.0,0.0,0.0,0.0,0.0,0.7988,0.8095,0.8229,0.8411,0.947,1.0706,1.1282,1.3295,1.5535,1.6863,1.8382,1.9706,2.0521,2.0722,2.0788,2.1029,0.0,2.0401,0.0,0.0,0.0,0.0,0.0,0.0,0.0,0.0,0.0,0.0,0.0,0.0,0.0,0.0,0.0,0.0,0.0,0.0,0.0,0.0,0.0,0.0,0.0,0.0,1.7206,1.6874,1.6593,0.0,1.6005,1.5811,1.5784,1.5784,1.5784,1.5784,1.5784,1.5979,1.6206,1.5939,1.5992,1.6233,1.6308,1.6321,1.6362,1.6633,1.6901,1.7125,0.0,0.0,0.0,0.0,0.0,0.0,0.0,0.0,0.0,0.0,0.0,0.0,0.0,0.0,0.0,0.0,0.0,0.0,0.0,0.0,0.7112,0.7146,0.7529,0.7801,0.7934,0.0,0.0,0.0,0.0,0.0,0.7995,0.8228,0.8235,0.8099,0.0,0.8147,0.7868,0.7941,0.7901,0.7828,0.7928,0.7988,0.7988,0.7988,0.7988,0.0,0.0,0.0,0.0,0.0,0.0,0.0,0.7988,0.8807,0.9736,0.9647,1.1513,1.3424,1.2657,1.4705,1.7024,1.7025,1.8746,2.0508,2.0922,2.1015,2.0962,2.0802,2.0855,0.0,0.0,0.0,0.0,0.0,0.0,0.0,0.0,0.0,0.0,0.0,0.0,0.0,0.0,0.0,0.0,0.0,0.0,0.0,0.0,0.0,0.0,0.0,0.0,1.7259,1.7206,1.7139,1.6844,0.0,1.6206,1.6059,1.5784,1.5784,1.5784,1.5784,1.5784,1.5824,1.5912,1.5811,1.5824,1.5952,1.6179,1.6321,1.6388,1.6911,1.6941,1.682,0.0,0.0,0.0,0.0,0.0,0.0,0.0,0.0,0.0,0.0,0.0,0.0,0.0,0.0,0.0,0.0,0.0,0.0,0.0,0.0,0.0,0.0,0.7719,0.7907,0.0,0.0,0.0,0.0,0.0,0.0,0.8153,0.8235,0.8228,0.8153,0.0,0.8099,0.7821,0.7928,0.7901,0.7828,0.7928,0.7988,0.7988,0.7988,0.7988,0.7988,0.7988,0.0,0.0,0.0,0.0,0.0,0.0,0.0,1.1024,1.1064,1.2662,1.4341,1.4079,1.5997,1.8125,1.8634,1.982,2.0922,2.1069,2.1109,2.1069,2.0909,2.1002,0.0,0.0,0.0,0.0,0.0,0.0,0.0,0.0,0.0,0.0,0.0,0.0,0.0,0.0,0.0,0.0,0.0,0.0,0.0,0.0,1.7487,0.0,0.0,1.7435,1.7407,1.7407,1.7074,1.678,1.6473,1.6192,1.6059,1.6032,1.5851,1.5912,1.6032,1.5885,1.5784,1.5784,1.5784,1.5784,1.5872,1.6313,1.6473,1.6553,1.7192,1.7261,1.7154,0.0,0.0,0.0,0.0,0.0,0.0,0.0,0.0,0.0,0.0,0.0,0.0,0.0,0.0,0.0,0.0,0.0,0.0,0.0,0.0,0.0,0.0,0.7833,0.7988,0.0,0.0,0.0,0.0,0.0,0.8147,0.8343,0.8269,0.8235,0.8235,0.0,0.8072,0.7821,0.7928,0.7901,0.7828,0.7928,0.7988,0.0,0.0,0.0,0.8038,0.8287,0.8329,0.8379,0.8577,0.0,0.0,0.0,0.0,1.2273,1.2449,1.3523,1.4811,1.5471,1.713,1.8971,2.0334,2.0895,2.1109,2.1109,2.1109,2.1109,2.1109,0.0,0.0,0.0,0.0,0.0,0.0,0.0,0.0,0.0,0.0,0.0,0.0,0.0,0.0,0.0,0.0,0.0,0.0,0.0,0.0,1.7582,1.7488,1.7448,1.7502,1.7408,1.7355,1.7355,1.6874,1.6607,1.6553,1.6112,1.6059,1.6339,1.6046,1.6046,1.6259,1.5965,1.5784,1.5784,1.5838,1.5912,1.5965,1.6553,1.678,1.6847,1.7382,1.7582,1.7582,0.0,0.0,0.0,0.0,0.0,0.0,0.0,0.0,0.0,0.0,0.1549,0.2608,0.0,0.0,0.0,0.0,0.0,0.0,0.0,0.0,0.0,0.0,0.0,0.0,0.0,0.0,0.0,0.0,0.0,0.8197,0.8642,0.8255,0.8022,0.8022,0.0,0.797,0.7821,0.7928,0.7901,0.7828,0.0,0.0,0.0,0.0,0.0,0.0,0.0,0.9756,0.9903,1.1023,1.1512,0.0,0.0,0.0,1.3644,1.3678,1.4777,1.6094,1.6463,1.7847,1.9537,2.0441,2.0895,2.1109,2.1109,0.0,2.1109,0.0,0.0,0.0,0.0,0.0,0.0,0.0,0.0,0.0,0.0,0.0,0.0,0.0,0.0,0.0,0.0,0.0,0.0,0.0,0.0,0.0,1.7595,1.7101,1.6941,1.7246,1.6764,1.6446,1.6446,1.6366,1.6206,1.5904,1.6126,1.6366,1.6633,1.6353,1.6233,1.6259,1.5965,1.5784,1.5798,1.6112,1.6219,1.6273,1.6911,1.7139,1.7179,1.7462,1.7582,1.7582,0.0,0.0,0.0,0.0,0.0,0.0,0.0,0.0,0.0,0.0,0.0,0.2195,0.0,0.0,0.0,0.0,0.0,0.0,0.0,0.0,0.0,0.0,0.0,0.0,0.0,0.0,0.0,0.0,0.7909,0.8099,0.8459,0.8262,0.8303,0.0,0.0,0.0,0.0,0.0,0.0,0.0,0.0,0.0,0.0,0.0,0.0,0.0,0.0,0.0,0.0,1.1707,1.2377,1.3006,1.3006,0.0,0.0,0.0,1.5599,1.6536,1.7448,1.8277,1.9172,2.0374,2.0775,2.0909,2.1069,2.1109,2.1109,0.0,0.0,0.0,0.0,0.0,0.0,0.0,0.0,0.0,0.0,0.0,0.0,0.0,0.0,0.0,0.0,0.0,0.0,0.0,0.0,1.7729,1.7595,1.7233,1.7058,1.7192,1.674,1.6513,1.6513,1.6353,1.6206,1.6086,1.6206,1.6563,1.6941,1.6647,1.6433,1.6259,1.5965,1.5784,1.5845,1.6152,1.6321,1.6375,1.6965,1.7206,1.7233,1.7475,1.7582,1.7582,0.0,0.0,0.0,0.0,0.0,0.0,0.0,0.0,0.0,0.0,0.0,0.0,0.0,0.0,0.0,0.0,0.0,0.0,0.0,0.0,0.0,0.0,0.0,0.0,0.0,0.0,0.0,0.776,0.7794,0.797,0.832,0.832,0.8486,0.0,0.8492,0.8282,0.0,0.0,0.0,0.0,0.0,0.0,0.0,0.0,0.0,0.0,0.0,0.0,0.0,0.0,0.0,0.0,0.0,1.5045,0.0,0.0,0.0,1.6433,1.7689,1.8143,1.8584,1.9893,2.0401,2.0641,2.0935,0.0,2.1109,0.0,0.0,0.0,0.0,0.0,0.0,0.0,0.0,0.0,0.0,0.0,0.0,0.0,0.0,0.0,0.0,0.0,0.0,0.0,0.0,1.7662,1.7582,1.7367,1.7166,1.7085,1.6754,1.6567,1.6486,1.6273,1.6233,1.638,1.638,1.6697,1.7192,1.6847,1.654,1.6308,1.6046,1.5939,1.5965,1.6259,1.6433,1.6603,1.7112,1.7313,1.734,1.7554,1.7582,1.7582,0.0,0.0,0.0,0.0,0.0,0.0,0.0,0.0,0.0,0.0,0.0,0.0,0.0,0.0,0.0,0.6324,0.0,0.0,0.0,0.0,0.0,0.0,0.0,0.0,0.0,0.0,0.7611,0.7611,0.7746,0.797,0.832,0.832,0.8431,0.8716,0.8547,0.8316,0.8008,0.0,0.0,0.0,0.0,0.0,0.0,0.0,0.0,0.0,0.0,0.0,0.0,0.0,0.0,0.0,0.0,0.0,0.0,0.0,0.0,0.0,1.662,1.7208,1.7849,1.8784,1.9581,2.0334,0.0,0.0,0.0,0.0,0.0,0.0,0.0,0.0,0.0,0.0,0.0,0.0,0.0,0.0,0.0,0.0,0.0,0.0,0.0,0.0,0.0,0.0,0.0,1.7889,1.7595,1.7367,1.7072,1.674,1.6446,1.6166,1.5824,1.5811,1.6126,1.6687,1.6687,1.6847,1.7192,1.6847,1.654,1.6321,1.6259,1.6246,1.6321,1.6567,1.6847,1.7192,1.7487,1.7555,1.7555,1.7569,1.7582,1.7582,0.0,0.0,0.0,0.0,0.0,0.0,0.0,0.0,0.0,0.0,0.0,0.0,0.0,0.308,0.4071,0.5347,0.6207,0.0,0.0,0.0,0.0,0.0,0.0,0.0,0.0,0.7597,0.7645,0.7733,0.7597,0.7787,0.832,0.8167,0.8228,0.8425,0.837,0.8289,0.8187,0.814,0.0,0.0,0.0,0.0,0.0,0.0,0.0,0.0,0.0,0.0,0.0,0.0,0.0,0.0,0.0,0.0,0.0,0.0,1.5784,1.5904,1.654,1.686,1.7275,1.837,1.9025,1.9519,2.0,2.0481,0.0,0.0,0.0,0.0,0.0,0.0,0.0,0.0,0.0,0.0,0.0,0.0,0.0,0.0,0.0,0.0,0.0,0.0,0.0,0.0,0.0,0.0,1.7595,1.7367,1.7152,1.7045,1.6576,1.6126,1.5784,1.5784,1.6077,1.67,1.67,1.686,1.7192,1.7085,1.6834,1.6553,1.6553,1.6446,1.6362,1.6844,1.7099,1.7233,1.7527,1.7582,1.7582,1.7582,1.8146,1.8864,0.0,0.0,0.0,0.0,0.0,0.0,0.0,0.0,0.0,0.0,0.0,0.0,0.0,0.0,0.4154,0.5436,0.6308,0.6817,0.6876,0.7109,0.0,0.0,0.0,0.0,0.0,0.755,0.757,0.7665,0.7468,0.7651,0.8045,0.7936,0.7997,0.8187,0.814,0.8147,0.0,0.0,0.0,0.8825,0.0,0.0,1.2845,0.0,0.0,0.0,0.0,0.0,0.0,0.0,0.0,0.0,0.0,0.0,0.0,0.0,0.0,0.0,1.6299,1.6486,1.682,1.7916,1.833,1.8704,1.9599,0.0,0.0,0.0,0.0,0.0,0.0,0.0,0.0,0.0,0.0,0.0,0.0,0.0,0.0,0.0,0.0,0.0,0.0,0.0,0.0,0.0,0.0,0.0,1.7582,1.7447,1.7259,1.7058,1.6576,1.6126,1.5784,1.5784,1.6072,1.6567,1.6567,1.6714,1.7058,1.7058,1.6901,1.6714,1.6807,1.7041,1.7274,1.7728,1.7914,1.8025,1.822,1.7989,1.7582,1.7582,1.8146,1.8916,0.0,0.0,0.0,0.0,0.0,0.0,0.0,0.0,0.0,0.0,0.0,0.0,0.0,0.0,0.0,0.6664,0.6896,0.6903,0.6903,0.7217,0.0,0.0,0.0,0.0,0.0,0.7461,0.7433,0.7439,0.7426,0.7461,0.7611,0.7604,0.7753,0.7975,0.7875,0.7938,0.8131,0.0,1.0154,1.0288,0.0,1.4074,1.4469,0.0,0.0,0.0,1.6673,1.65,0.0,0.0,0.0,0.0,0.0,0.0,0.0,0.0,0.0,0.0,0.0,0.0,0.0,1.7328,1.7555,1.7943,1.9399,0.0,1.9631,0.0,0.0,0.0,0.0,0.0,0.0,0.0,0.0,0.0,0.0,0.0,0.0,0.0,0.0,0.0,0.0,0.0,0.0,0.0,0.0,1.7595,1.7582,1.7582,1.7315,1.6727,1.6433,1.6139,1.5784,1.5784,1.5979,1.6321,1.6321,1.642,1.67,1.67,1.67,1.6777,1.7123,1.8048,1.9315,1.9265,1.9343,1.9524,1.9627,1.8864,1.7701,1.7701,1.7753,1.7806,0.0,0.0,0.0,0.0,0.0,0.0,0.0,0.0,0.0,0.0,0.0,0.0,0.0,0.0,0.0,0.6026,0.6796,0.7299,0.7407,0.7489,0.7536,0.7536,0.7678,0.7753,0.7753,0.7712,0.7746,0.7855,0.7638,0.7665,0.7867,0.7699,0.7699,0.0,0.8835,0.9148,0.9005,0.9739,0.0,0.0,1.3199,1.3919,0.0,0.0,0.0,0.0,0.0,1.6019,0.0,0.0,1.5784,1.5784,0.0,0.0,0.0,0.0,0.0,0.0,1.5784,0.0,0.0,0.0,0.0,0.0,1.8009,1.8303,1.8664,0.0,0.0,0.0,0.0,0.0,0.0,0.0,0.0,0.0,0.0,0.0,0.0,0.0,0.0,0.0,0.0,0.0,0.0,0.0,1.809,1.7822,1.7595,1.7582,1.7315,1.6727,1.662,1.6339,1.5832,1.5784,1.5979,1.6321,1.6321,1.6313,1.6393,1.6607,1.7236,1.8178,1.8513,2.0078,2.2312,2.0296,1.8933,1.8356,2.0333,2.0488,1.967,2.0653,2.1856,2.2959,0.0,0.0,0.0,0.0,0.0,0.0,0.0,0.0,0.0,0.0,0.0,0.0,0.0,0.0,0.0,0.6484,0.719,0.759,0.7685,0.7746,0.778,0.778,0.7862,0.7909,0.7909,0.7841,0.7855,0.7894,0.7712,0.7719,0.7936,0.8262,0.85,0.0,0.0,0.0,0.0,0.0,0.0,0.0,1.4124,0.0,0.0,1.5848,1.6192,0.0,0.0,0.0,1.6326,1.5952,1.5784,0.0,0.0,0.0,0.0,0.0,0.0,0.0,0.0,0.0,0.0,0.0,0.0,0.0,1.7395,1.7528,1.7769,0.0,0.0,0.0,0.0,0.0,0.0,0.0,0.0,0.0,0.0,0.0,0.0,0.0,0.0,0.0,0.0,0.0,0.0,1.8691,1.8222,1.7862,1.7595,1.7582,1.7315,1.6727,1.67,1.642,1.5784,1.5784,1.5912,1.6086,1.6601,1.6888,1.6902,1.7911,1.8739,1.9536,2.0037,2.126,2.2767,2.176,2.0845,2.0282,2.1912,2.1976,2.1212,2.2012,2.3063,2.4123,0.0,0.0,0.0,0.0,0.0,0.0,0.0,0.0,0.0,0.0,0.0,0.0,0.0,0.0,0.0,0.0,0.7767,0.7834,0.7834,0.7914,0.0,0.0,0.7988,0.7988,0.7988,0.7909,0.7834,0.7834,0.7712,0.776,0.807,0.9083,0.9772,0.0,0.0,0.0,0.0,0.0,0.0,1.3706,1.5214,1.5992,0.0,0.0,1.6607,0.0,1.6607,1.678,1.6938,1.6099,1.5784,0.0,0.0,0.0,0.0,0.0,1.5784,0.0,0.0,0.0,0.0,0.0,0.0,0.0,1.7194,1.7034,1.6981,1.8103,0.0,0.0,0.0,0.0,0.0,0.0,0.0,0.0,0.0,0.0,0.0,0.0,0.0,0.0,0.0,1.9305,1.8958,1.8931,1.8328,1.7862,1.7595,1.7555,1.7275,1.6727,1.6673,1.6393,1.5832,1.5927,1.6008,1.6021,1.7355,1.7962,1.8039,1.9829,2.0732,2.0958,2.1612,2.1996,2.2265,2.3434,2.3732,2.3484,2.38,2.3399,2.2634,2.2738,2.3095,2.3504,0.0,0.0,0.0,0.0,0.0,0.0,0.0,0.0,0.0,0.0,0.0,0.0,0.0,0.0,0.0,0.0,0.0,0.7948,0.0,0.0,0.7988,0.7988,0.7988,0.7988,0.7988,0.7961,0.7948,0.7948,0.7921,0.8505,0.9551,0.97,1.0227,1.1079,0.0,0.0,0.0,0.0,0.0,1.4767,1.5524,0.0,1.5925,1.5979,1.6005,1.6005,1.6005,1.6032,1.6059,0.0,1.5784,1.5784,0.0,0.0,0.0,0.0,0.0,0.0,0.0,0.0,0.0,0.0,0.0,0.0,1.6473,1.6433,1.6553,0.0,0.0,0.0,0.0,0.0,0.0,0.0,0.0,0.0,0.0,0.0,0.0,0.0,0.0,0.0,0.0,1.9479,1.9185,1.8945,1.8328,1.7862,1.7595,1.742,1.7125,1.6714,1.6473,1.6192,1.5784,1.681,1.7326,1.7372,1.891,1.9646,1.9662,2.062,2.1684,2.2774,2.3121,2.3949,2.4922,2.5216,2.4048,2.2316,2.4461,2.4958,2.4591,2.5661,2.6565,2.7264,0.0,0.0,0.0,0.0,0.0,0.0,0.0,0.0,0.0,0.0,0.0,0.0,0.0,0.0,0.0,0.0,0.0,0.0,0.0,0.0,0.7988,0.7988,0.7988,0.7988,0.7988,0.7988,0.7988,0.7988,0.7988,0.8676,0.9993,1.0572,1.1372,1.242,1.3722,0.0,0.0,0.0,1.5311,1.5217,1.5658,0.0,1.5784,1.5784,1.5784,1.5784,1.5784,1.5784,1.5872,1.6166,1.6072,0.0,0.0,1.5784,1.5784,0.0,1.5784,1.5784,0.0,0.0,0.0,1.5784,0.0,0.0,0.0,1.6046,1.6219,1.6807,0.0,0.0,0.0,0.0,0.0,0.0,0.0,0.0,0.0,0.0,0.0,0.0,0.0,0.0,0.0,1.9626,1.9185,1.8744,1.8437,1.8063,1.7609,1.7448,1.7286,1.6941,1.723,1.6961,1.6046,1.7164,1.7358,1.6763,1.8329,1.9461,2.0135,2.1511,2.2894,2.422,2.4538,2.5069,2.5693,2.5693,2.5036,2.419,2.5542,2.6025,2.6121,2.6988,2.7734,2.8301,0.0,0.0,0.0,0.0,0.0,0.0,0.0,0.0,0.0,0.0,0.0,0.0,0.0,0.0,0.0,0.0,0.0,0.0,0.0,0.0,0.0,0.0,0.7988,0.7988,0.7988,0.7988,0.7988,0.7988,0.8237,0.9065,1.0386,1.1707,1.2837,1.3823,1.4916,0.0,0.0,0.0,0.0,1.5418,0.0,1.5784,1.5784,1.5784,1.5784,1.5784,1.5784,1.5784,1.5851,1.638,0.0,1.5784,1.5784,1.5784,0.0,0.0,0.0,0.0,0.0,0.0,0.0,0.0,0.0,1.5899,0.0,0.0,0.0,1.6446,0.0,0.0,0.0,0.0,0.0,0.0,0.0,0.0,0.0,0.0,0.0,0.0,0.0,0.0,0.0,1.9626,1.9078,1.8611,1.8464,1.8196,1.7702,1.7515,1.7301,1.7125,1.7647,1.7434,1.6241,1.7207,1.7311,1.6527,1.8168,1.9668,2.1002,2.2739,2.4152,2.5215,2.5586,2.5693,2.5693,2.5771,2.6074,2.6387,2.6387,2.6699,2.7187,2.7539,2.793,2.8301,0.0,0.0,0.0,0.0,0.0,0.0,0.0,0.0,0.0,0.0,0.0,0.0,0.0,0.0,0.0,0.0,0.0,0.0,0.8615,0.0,0.0,0.0,0.0,0.0,0.7988,0.7988,0.7988,0.7988,0.9213,1.0435,1.1707,1.3054,1.423,1.516,1.5345,0.0,0.0,0.0,1.5391,0.0,1.5712,1.5784,0.0,1.5784,1.5784,1.5784,1.5784,1.5784,1.5798,0.0,1.5838,1.5784,0.0,1.5784,0.0,0.0,0.0,0.0,0.0,0.0,0.0,0.0,1.6032,0.0,0.0,0.0,1.6166,1.5965,0.0,0.0,0.0,0.0,0.0,0.0,0.0,0.0,0.0,0.0,0.0,0.0,0.0,0.0,0.0,0.0,1.8945,1.8878,1.8342,1.8009,1.7942,1.7235,1.6794,1.6754,1.6303,1.6055,1.5885,1.7106,1.8133,1.9085,2.113,2.272,2.394,2.4967,2.547,2.5615,2.5674,2.5693,2.5713,2.6152,2.6348,2.6387,2.6387,2.6875,2.765,2.7708,2.793,2.8301,0.0,0.0,0.0,0.0,0.0,0.0,0.0,0.0,0.0,0.0,0.0,0.0,0.0,0.0,0.0,0.0,0.0,0.8676,0.0,0.0,0.0,0.0,0.0,0.0,0.0,0.8035,0.7988,0.7988,0.9361,1.0632,1.195,1.3247,1.4467,1.5404,1.5578,0.0,1.5231,0.0,1.5645,0.0,0.0,0.0,0.0,1.5784,1.5784,1.5784,1.5784,1.5784,1.5784,0.0,1.5784,0.0,0.0,0.0,0.0,0.0,0.0,0.0,0.0,0.0,0.0,0.0,0.0,0.0,0.0,0.0,1.6211,0.0,0.0,0.0,0.0,0.0,0.0,0.0,0.0,0.0,0.0,0.0,0.0,0.0,0.0,0.0,0.0,0.0,0.0,0.0,0.0,1.7916,1.7782,1.7918,1.77,1.7018,1.7766,1.7527,1.6086,1.8095,1.9019,1.8848,2.0824,2.2451,2.3729,2.4279,2.4971,2.5693,2.5693,2.583,2.6133,2.6309,2.668,2.7129,2.7129,2.7395,2.7748,2.793,2.8144,2.8301,0.0,0.0,0.0,0.0,0.0,0.0,0.0,0.0,0.0,0.0,0.0,0.0,0.9151,0.9218,0.0,0.0,0.0,0.9076,0.0,0.0,0.8669,0.0,0.0,0.0,0.0,0.0,0.8187,0.8528,0.9854,1.117,1.2474,1.3776,1.4788,1.5524,0.0,1.5712,1.5524,0.0,0.0,1.5784,1.5784,1.5784,1.5784,1.5784,1.5784,1.5784,1.5784,1.5784,1.5784,1.5784,1.5784,0.0,1.5784,0.0,0.0,0.0,0.0,0.0,1.5784,0.0,0.0,0.0,0.0,0.0,0.0,0.0,0.0,0.0,0.0,0.0,0.0,0.0,0.0,0.0,0.0,0.0,0.0,0.0,0.0,0.0,0.0,0.0,0.0,0.0,0.0,0.0,0.0,0.0,1.7595,1.844,1.8405,1.7257,1.8728,1.8714,1.6967,1.881,1.9669,1.9495,2.106,2.2439,2.3751,2.411,2.4756,2.5693,2.5693,2.5869,2.623,2.6465,2.6934,2.7519,2.7754,2.7832,2.7871,2.8184,2.8301,2.8301,0.0,0.0,0.0,0.0,0.0,0.0,0.0,0.0,0.0,0.0,0.0,0.0,0.0,0.0,0.0,0.0,0.0,0.9585,0.9585,0.0,0.8737,0.0,0.0,0.0,0.0,0.0,0.0,0.9953,1.1219,1.2522,1.3872,1.514,1.5771,1.5771,1.5784,1.5784,1.5771,1.5784,1.5784,1.5784,1.5784,1.5784,1.5784,0.0,1.5784,1.5784,1.5784,0.0,0.0,1.5784,1.5784,0.0,0.0,0.0,0.0,0.0,0.0,0.0,0.0,0.0,0.0,0.0,0.0,0.0,0.0,0.0,1.7596,0.0,0.0,0.0,0.0,0.0,0.0,0.0,0.0,0.0,0.0,0.0,0.0,0.0,0.0,0.0,0.0,0.0,0.0,0.0,0.0,0.0,1.7569,1.8326,1.8274,1.7244,1.8224,1.8675,1.8626,1.8675,1.999,2.2445,2.3003,2.3895,2.5031,2.5431,2.5645,2.5693,2.5693,2.5693,2.5771,2.666,2.7012,2.7129,2.7949,2.8262,2.8281,2.8281,2.8301,2.8301,0.0,0.0,0.0,0.0,0.0,0.0,0.0,0.3312,0.0,0.0,0.0,0.0,0.0,0.0,1.0053,0.0,0.0,0.9795,0.9754,0.9422,0.0,0.0,0.0,0.8492,0.0,0.0,0.0,0.0,0.0,1.2571,1.392,1.5188,1.5784,1.5784,0.0,1.5784,0.0,0.0,0.0,0.0,0.0,1.5784,1.5784,0.0,0.0,1.5784,1.5784,1.5784,0.0,1.5784,1.5784,1.5784,1.5784,1.5784,1.5784,1.5784,1.5784,0.0,0.0,0.0,1.6518,1.8754,0.0,0.0,0.0,0.0,0.0,0.0,0.0,0.0,0.0,0.0,0.0,0.0,0.0,0.0,0.0,0.0,0.0,0.0,0.0,0.0,0.0,0.0,0.0,0.0,0.0,0.0,0.0,1.8429,1.8405,1.8074,1.929,1.9569,1.8705,2.072,2.2166,2.3051,2.4312,2.5102,2.5508,2.5615,2.5693,2.5713,2.6055,2.6328,2.6621,2.7207,2.7617,2.7891,2.8184,2.8301,2.8301,2.8301,2.8301,2.8301,0.0,0.0,0.0,0.0,0.0,0.0,0.0,0.0,0.0,0.0,0.8791,0.0,1.0107,0.0,1.0249,0.0,1.0317,1.0092,0.9842,0.9693,0.0,0.9015,0.8866,0.0,0.0,0.0,0.0,0.0,0.0,1.3385,1.4603,1.5439,1.5784,1.5784,1.5784,1.5784,1.5784,0.0,1.5784,0.0,0.0,1.5784,0.0,0.0,1.5784,1.5784,0.0,1.5784,1.5784,1.5784,1.5784,1.5784,1.5784,1.5784,1.5784,1.5784,1.5784,1.5784,1.5784,1.5912,0.0,0.0,1.7908,0.0,0.0,0.0,0.0,0.0,0.0,0.0,0.0,0.0,0.0,0.0,0.0,0.0,0.0,0.0,0.0,0.0,0.0,0.0,0.0,0.0,0.0,1.7284,1.7314,0.0,0.0,0.0,1.8799,1.9349,2.0443,2.0802,2.0474,2.2446,2.3663,2.4167,2.5198,2.5693,2.5693,2.5693,2.5693,2.5713,2.6191,2.6543,2.6836,2.7422,2.7832,2.8086,2.8242,2.8301,2.8301,2.8301,2.8398,2.8516,0.0,0.0,0.0,0.0,0.0,0.0,0.0,0.0,0.5546,0.0,0.8952,1.012,1.0276,1.0419,1.0493,1.048,1.0616,0.0,0.9869,0.9896,0.0,0.0,0.8872,0.8804,0.8499,0.0,0.0,0.0,0.0,0.0,1.5784,1.5784,1.5784,1.5784,1.5784,0.0,1.5784,1.5784,1.5784,1.5784,1.5784,1.5784,1.5784,1.5784,0.0,1.5784,1.5784,1.5784,1.5784,1.5784,1.5784,1.5784,1.5784,1.5784,1.5784,1.5784,1.5784,1.5784,1.5784,1.6032,1.6518,1.7507,0.0,0.0,0.0,0.0,1.9318,0.0,0.0,0.0,0.0,0.0,0.0,0.0,0.0,0.0,0.0,0.0,0.0,0.0,0.0,0.0,0.0,0.0,1.9246,1.7322,1.8124,1.8491,0.0,0.0,1.9447,2.0917,2.1445,2.2366,2.3683,2.3782,2.4461,2.5713,2.5693,2.5713,2.5752,2.5732,2.5732,2.5771,2.6269,2.6445,2.6523,2.7395,2.7748,2.7787,2.8144,2.8301,2.8301,2.832,2.8574,2.8926,0.0,0.0,0.0,0.0,0.0,0.0898,0.0,0.0,0.0,0.0,0.985,1.0276,1.0419,1.0568,1.0575,1.0351,1.0371,0.0,0.0,0.0,0.0,0.9225,0.9137,0.896,0.8655,0.9842,0.0,1.2214,0.0,0.0,1.5784,1.5784,1.5784,1.5784,1.5784,1.5784,1.5784,1.5784,1.5784,1.5784,1.5784,1.5784,0.0,0.0,1.5784,1.5784,1.5784,1.5784,1.5784,1.5784,1.5784,1.5784,1.5784,1.5784,1.5784,1.5784,1.5784,1.5784,1.5784,1.5838,1.63,1.7776,1.726,1.6776,0.0,0.0,0.0,0.0,0.0,0.0,0.0,0.0,0.0,0.0,0.0,0.0,0.0,0.0,0.0,0.0,0.0,0.0,0.0,0.0,1.8731,1.6948,1.7807,1.8243,0.0,0.0,0.0,2.067,2.1362,2.2366,2.3683,2.4707,2.5536,2.6211,2.5898,2.6025,2.668,2.6367,2.6387,2.6719,2.7148,2.7395,2.7434,2.791,2.8125,2.8144,2.8262,2.8301,2.834,2.8652,2.8828,2.8965,0.0,0.0,0.0,0.0,0.0,0.0,0.4431,0.0,0.0,0.9474,1.0086,0.0,1.0385,1.0534,1.0555,1.0385,1.0371,0.0,0.0,0.0,0.0,0.9357,0.9323,0.911,0.8818,1.0551,0.0,1.2314,0.0,0.0,1.5784,1.5784,1.5784,1.5784,1.5784,1.5784,1.5784,1.5784,1.5784,1.5784,1.5784,0.0,0.0,1.5784,1.5784,1.5784,1.5784,1.5784,1.5784,1.5784,1.5784,1.5784,1.5784,1.5784,1.5784,1.5784,1.5784,1.5784,1.5784,1.5784,1.6014,1.6975,1.651,1.6204,1.7687,1.7446,1.707,0.0,0.0,0.0,0.0,0.0,0.0,0.0,0.0,0.0,0.0,0.0,0.0,0.0,0.0,0.0,0.0,0.0,1.8661,1.7831,1.8931,0.0,0.0,0.0,0.0,2.2227,2.2624,2.3483,2.4871,2.5794,2.6426,2.666,2.6406,2.6543,2.7012,2.6777,2.6797,2.7031,2.748,2.7728,2.7767,2.832,2.8457,2.832,2.8496,2.8691,2.8906,2.9316,2.9355,2.9258,0.0,0.0,0.0,0.0,0.0,0.0,0.0,0.515,0.0,0.949,0.0,1.0112,1.027,1.0405,1.0466,1.0405,0.0,1.0256,0.9849,0.9883,0.9781,0.9296,0.932,0.9252,0.8974,1.1469,0.0,0.0,0.0,0.0,1.5784,1.5784,1.5784,1.5784,1.5784,0.0,0.0,1.5784,1.5784,1.5784,1.5784,1.5784,1.5784,1.5784,1.5784,1.5784,1.5784,1.5784,1.5784,1.5784,1.5784,1.5784,1.5784,1.5784,1.5784,1.5784,1.5784,1.5784,1.5784,1.5784,1.5784,1.5784,1.5784,1.6103,1.7171,1.7451,1.7451,1.7451,1.7451,0.0,0.0,0.0,0.0,0.0,0.0,0.0,0.0,0.0,0.0,0.0,0.0,0.0,0.0,0.0,0.0,0.0,0.0,0.0,0.0,0.0,0.0,2.4187,2.4276,0.0,2.6562,0.0,2.707,2.7187,2.707,2.707,2.7187,2.7129,2.7129,2.7207,2.7578,2.7826,2.7891,2.8613,2.873,2.8496,2.8867,2.9238,2.9685,3.0039,2.9961,2.9707,0.0,0.0,0.0,0.0,0.0,0.332,0.5069,0.6539,0.8133,0.9943,1.0432,1.0521,1.0304,1.0405,1.0344,0.9971,0.999,0.0,0.0,0.0,0.0,0.9537,0.9435,0.93,0.9173,1.1531,1.2673,0.0,0.0,0.0,1.5784,1.5784,1.5784,1.5784,1.5784,0.0,1.5784,1.5784,0.0,1.5784,1.5784,1.5784,1.5784,1.5784,1.5784,1.5784,1.5784,1.5784,1.5784,1.5784,1.5784,1.5784,1.5784,1.5784,1.5784,1.5784,1.5784,1.5784,1.5784,1.5784,1.5784,1.5784,1.5784,1.5879,1.6055,1.6103,1.6103,1.6103,1.6103,1.6055,1.5832,0.0,0.0,0.0,0.0,0.0,0.0,0.0,0.0,0.0,0.0,0.0,0.0,0.0,0.0,0.0,0.0,0.0,0.0,0.0,0.0,0.0,0.0,0.0,0.0,0.0,2.7363,2.8066,2.7344,2.7383,2.8047,2.7715,2.7734,2.8066,2.8144,2.8379,2.8711,2.8848,2.9082,2.9355,2.9434,2.9512,2.9685,3.0039,3.0156,3.0156,0.0,0.0,0.0,0.0,0.0,0.0,0.0,0.8259,0.0,1.0062,1.0215,1.0202,1.0059,1.0175,1.0175,0.9958,1.0005,0.9923,0.9829,0.9822,0.9754,0.9618,0.9537,0.0,1.0265,1.2028,1.316,1.3765,0.0,0.0,0.0,0.0,0.0,1.5784,1.5784,1.5784,0.0,0.0,0.0,1.5784,1.5784,1.5784,1.5784,1.5784,1.5784,1.5784,1.5784,1.5784,1.5784,1.5784,1.5784,1.5784,1.5784,1.5784,1.5784,1.5784,1.5784,1.5784,1.5784,1.5784,1.5784,1.5784,1.5784,1.5784,1.5784,1.5784,1.5784,1.5784,1.5784,1.5784,1.5784,1.5784,0.0,0.0,0.0,0.0,0.0,0.0,0.0,0.0,0.0,0.0,0.0,0.0,0.0,0.0,0.0,0.0,0.0,0.0,0.0,0.0,0.0,0.0,0.0,0.0,0.0,2.8281,2.7871,2.7891,2.8281,2.8086,2.8105,2.8301,2.8516,2.873,2.8945,2.916,2.9648,3.0234,2.998,3.0039,3.0273,3.0488,3.0547,3.0586,0.0,0.0559,0.0,0.0,0.4756,0.0,0.7804,0.9531,1.0541,1.0125,1.0039,0.9937,0.9876,0.9916,1.0039,1.0005,0.9998,0.9889,0.9829,0.9822,0.9774,0.9659,0.9625,1.0186,1.1442,1.2542,1.3741,0.0,0.0,0.0,0.0,0.0,0.0,0.0,0.0,0.0,0.0,0.0,1.5925,1.5925,1.5925,1.5925,1.5912,1.5811,1.5784,1.5784,1.5784,1.5784,1.5784,1.5784,1.5784,1.5784,1.5784,1.5784,1.5784,1.5784,1.5784,1.5784,1.5784,1.5784,1.5784,1.5784,1.5784,1.5784,1.5784,1.5784,1.5784,1.5784,1.5784,1.5784,1.5784,1.5784,0.0,0.0,0.0,0.0,0.0,0.0,0.0,0.0,0.0,0.0,0.0,0.0,0.0,0.0,0.0,0.0,0.0,0.0,0.0,0.0,0.0,2.6973,2.793,0.0,2.834,0.0,2.834,2.8301,2.8301,2.8379,2.8418,2.8437,2.8867,2.9101,2.9219,2.9668,3.0254,3.0859,3.0488,3.0566,3.0898,3.0898,3.0898,3.0898,0.0,0.0,0.0,0.0,0.0,0.0,0.0,0.9441,1.05,1.046,1.0439,1.0324,0.9997,0.9977,0.993,0.9856,0.9842,0.9836,0.9822,0.9822,0.9815,0.9802,0.968,1.0354,1.1879,1.2946,1.3963,0.0,0.0,0.0,0.0,0.0,0.0,0.0,0.0,0.0,0.0,1.6112,1.6233,1.6233,1.6233,1.6233,1.6206,1.5939,1.5784,1.5784,1.5784,1.5784,1.5784,1.5784,1.5784,1.5784,1.5784,1.5784,1.5784,1.5784,1.5784,1.5784,1.5784,1.5784,1.5784,1.5784,1.5784,1.5784,1.5784,1.5784,1.5784,1.5784,1.5784,1.5784,1.5784,1.5784,1.5912,0.0,0.0,0.0,0.0,0.0,0.0,0.0,0.0,0.0,0.0,0.0,0.0,0.0,0.0,0.0,0.0,0.0,0.0,2.5615,0.0,2.7559,2.8789,2.8457,0.0,2.8848,2.8476,2.8301,2.8301,2.8691,2.8867,2.8887,2.9316,2.9726,3.0117,3.0586,3.082,3.0879,3.084,3.0859,3.0898,3.0898,3.0898,3.0898,0.0,0.0,0.0,0.0,0.0,0.0,0.0,1.0149,1.046,1.0378,1.0283,1.0148,0.9876,0.9849,0.989,0.9829,0.9822,0.9822,0.9822,0.9822,0.9822,0.9822,0.9768,1.0405,1.182,1.3164,1.4386,0.0,0.0,0.0,0.0,0.0,0.0,0.0,0.0,1.6192,1.6366,1.6486,1.6526,1.6526,1.6526,1.6526,1.6526,1.6393,1.6246,1.6099,1.6099,1.5979,1.5784,1.5784,1.5784,1.5784,1.5784,1.5784,1.5784,1.5784,1.5784,1.5784,1.5784,1.5784,1.5784,1.5784,1.5784,1.5784,1.5784,1.5784,1.5784,1.5784,1.5784,1.5784,1.5784,1.5784,1.5925,0.0,0.0,0.0,0.0,0.0,0.0,0.0,0.0,0.0,0.0,0.0,0.0,0.0,0.0,0.0,0.0,0.0,0.0,2.6094,0.0,2.7058,2.8906,2.875,2.8887,2.9316,2.9141,2.9062,2.9062,2.9238,2.9453,2.9687,2.9863,3.0195,3.0625,3.082,3.0898,3.0898,3.0898,3.0898,3.0898,3.0898,3.0898,3.0918,0.3164,0.0,0.5216,0.0,0.877,0.9198,1.0505,1.0588,1.046,1.0358,1.0209,1.0039,0.9842,0.9822,0.9822,0.9822,0.9822,0.9822,0.9822,0.9822,0.9822,0.9822,0.9822,0.0,1.1904,1.3353,1.4692,1.5818,1.7098,0.0,0.0,0.0,0.0,0.0,1.6393,1.6513,1.6714,1.6794,1.6834,1.6834,1.6834,1.6834,1.6834,1.674,1.658,1.6393,1.6393,1.6206,1.5965,1.5965,1.5899,1.5784,1.5784,1.5784,1.5784,1.5784,1.5784,1.5784,1.5784,1.5784,1.5784,1.5784,1.5784,1.5784,1.5784,1.5784,1.5811,1.5939,1.5965,1.5992,1.6072,1.6037,1.6179,0.0,0.0,0.0,0.0,0.0,0.0,0.0,0.0,1.6717,1.7471,0.0,0.0,0.0,0.0,0.0,0.0,0.0,0.0,0.0,0.0,0.0,0.0,2.9043,2.9258,2.9626,2.9626,2.9626,2.957,2.9687,3.0,3.041,3.041,3.0586,3.0898,3.0898,3.0898,3.0898,3.0898,3.0898,3.0898,3.0898,3.0898,3.0937,0.4988,0.6762,0.8496,1.0379,1.0651,1.0651,1.0717,1.0588,1.0493,1.0487,1.0365,1.0161,0.9856,0.9822,0.9822,0.9822,0.9822,0.9822,0.9822,0.9822,0.9822,0.0,0.0,1.0536,1.2148,1.3487,1.4834,1.6086,0.0,0.0,1.7192,0.0,1.67,1.67,1.67,1.67,1.6727,1.7072,1.7192,1.7192,1.7192,1.7192,1.7166,1.682,1.67,1.67,1.67,1.6513,1.6273,1.6273,1.6072,1.5784,1.5784,1.5784,1.5784,1.5784,1.5784,1.5784,1.5784,1.5784,1.5784,1.5784,1.5784,1.5784,1.5784,1.5784,1.5912,1.6206,1.6273,1.6353,1.6647,1.67,1.6794,1.7139,0.0,0.0,0.0,0.0,0.0,0.0,1.67,1.6473,1.5885,0.0,0.0,0.0,0.0,0.0,0.0,0.0,0.0,2.5693,2.6973,0.0,2.8906,2.9355,2.957,2.9626,2.9626,2.9626,2.9646,3.0,3.0449,3.0879,3.0879,3.0879,3.0898,3.0898,3.0898,3.0898,3.0898,3.0898,3.0898,3.0898,3.0898,3.0898,0.6837,0.7607,0.8568,1.0386,1.0717,1.0717,1.0717,1.0588,1.0493,1.0493,1.0371,1.0243,1.0148,1.0134,1.0046,0.0,0.9856,0.9869,0.0,0.9822,0.9822,0.9822,0.9822,1.0536,1.2157,1.3699,1.5078,1.6343,0.0,0.0,0.0,1.7355,1.7194,1.7058,1.7058,1.7114,1.7315,1.7408,1.7448,1.7448,1.7448,1.7448,1.7435,1.7341,1.7181,1.7058,1.7058,1.682,1.6567,1.6567,1.6366,1.6166,1.6366,1.6152,1.5784,1.5784,1.5784,1.5872,1.6072,1.6126,1.6126,1.6126,1.6126,1.6072,1.5824,1.5784,1.5912,1.6206,1.6321,1.6366,1.6647,1.6874,1.7152,1.7447,0.0,0.0,0.0,0.0,0.0,0.0,0.0,1.6112,0.0,1.7672,0.0,0.0,0.0,0.0,0.0,0.0,0.0,0.0,2.7493,0.0,2.9785,2.9922,3.0156,3.0469,3.0469,3.0469,3.0469,3.0605,3.0762,3.0898,3.0898,3.0898,3.0898,3.0898,3.0898,3.0918,3.1211,3.1133,3.0957,3.1543,3.1562,3.1406,0.7816,0.8568,0.9371,1.0518,1.0717,1.0717,1.0717,1.0636,1.0575,1.0575,1.05,1.0426,1.0365,1.0412,0.0,0.9937,0.9883,0.9862,0.9829,0.9822,0.9822,0.9822,1.0361,1.1201,1.2157,0.0,0.0,1.6669,1.816,1.8531,1.7756,1.7756,1.7595,1.7367,1.7367,1.746,1.7582,1.7582,1.7582,1.7582,1.7582,1.7582,1.7582,1.7582,1.7527,1.7367,1.7367,1.7179,1.6874,1.6874,1.6673,1.6473,1.6647,1.646,1.6152,1.6152,1.6152,1.6192,1.638,1.6433,1.6433,1.6433,1.6433,1.6393,1.6206,1.6152,1.6246,1.6589,1.6656,1.6727,1.7128,1.7355,1.7582,1.7876,0.0,1.7782,0.0,0.0,0.0,0.0,0.0,0.0,0.0,1.8182,0.0,0.0,0.0,0.0,0.0,0.0,0.0,2.7402,2.8047,0.0,3.0176,3.0371,3.0605,3.0898,3.0898,3.0898,3.0898,3.0898,3.0898,3.0898,3.0898,3.0898,3.0898,3.0898,3.0898,3.0918,3.1191,3.1133,3.0957,3.1484,3.1621,3.1562,0.8163,0.9576,0.0,0.0,1.0717,0.0,1.0717,1.0717,1.0717,1.0717,1.0717,1.0663,1.0521,1.0622,1.0534,1.0051,0.0,0.0,0.0,0.9856,0.9856,0.9856,1.1285,1.2174,1.2354,1.5311,1.6962,1.7149,1.8378,1.8651,1.8022,1.8022,1.7903,1.7582,1.7582,1.7582,1.7582,1.7582,1.7582,1.7582,1.7582,1.7582,1.7582,1.7582,1.7582,1.7582,1.7582,1.746,1.7233,1.7233,1.7032,1.674,1.6767,1.6754,1.6727,1.6714,1.67,1.6714,1.6727,1.674,1.674,1.674,1.6727,1.67,1.67,1.67,1.6794,1.7166,1.7233,1.7368,1.7916,1.8035,1.8142,1.8477,1.8277,1.7983,1.7689,0.0,0.0,0.0,0.0,0.0,0.0,1.8806,2.041,0.0,0.0,0.0,0.0,0.0,2.7598,2.7168,2.875,2.9824,3.0234,3.0684,3.0898,3.0898,3.0898,3.0898,3.0898,3.0898,3.0898,3.0898,3.0898,3.0898,3.0898,3.0898,3.0898,3.0898,3.0957,3.0957,3.0937,3.1035,3.1289,3.1562,0.0,0.0,1.0717,1.0717,1.0717,1.0717,1.0717,1.0717,1.0717,1.0717,1.0717,1.0704,1.067,1.0595,1.05,1.0399,1.0351,1.029,1.0175,1.0168,1.0168,1.0168,1.0425,1.1693,1.4115,1.4799,1.6385,1.8823,1.9118,1.8958,1.8384,1.8384,1.8103,1.7582,1.7582,1.7582,1.7582,1.7582,1.7582,1.7582,1.7582,1.7582,1.7582,1.7582,1.7582,1.7582,1.7582,1.7542,1.7527,1.7527,1.734,1.7139,1.7301,1.7273,1.7058,1.6767,1.67,1.6754,1.7032,1.7099,1.7099,1.7099,1.6874,1.67,1.67,1.67,1.6847,1.7368,1.7527,1.7662,1.8277,1.8571,1.8731,1.8811,1.8571,1.8357,1.829,0.0,0.0,0.0,1.73,1.7353,1.7636,1.802,1.8897,0.0,0.0,0.0,0.0,2.7672,2.8926,2.8476,2.9492,3.0273,3.0723,3.084,3.0898,3.0898,3.0898,3.0898,3.0898,3.0898,3.0898,3.0898,3.0898,3.0898,3.0898,3.0898,3.0898,3.0957,3.1601,3.166,3.1484,3.2461,3.2676,3.2519,1.0717,1.0717,1.0717,1.0717,1.0717,1.0717,1.0717,1.0717,1.0717,1.0717,1.0717,1.0717,1.0717,1.0649,1.0595,1.0595,1.0473,1.0365,1.0283,1.0215,1.0175,1.0175,1.1433,1.2907,1.4651,1.6087,1.763,1.943,1.943,1.9132,1.8691,1.8691,1.837,1.7796,1.7796,1.7716,1.7582,1.7582,1.7662,1.7782,1.7635,1.7662,1.7782,1.7635,1.7675,1.7796,1.7796,1.7876,1.7983,1.7836,1.7782,1.7795,1.7622,1.7662,1.7755,1.7408,1.7221,1.7141,1.7353,1.7393,1.7434,1.7515,1.7528,1.7515,1.7515,1.7515,1.7609,1.7929,1.7996,1.8143,1.8597,1.8824,1.8918,1.8918,1.8677,1.8397,1.8116,1.7662,0.0,1.7569,1.7689,1.7943,1.8342,1.9057,2.007,2.1628,0.0,0.0,2.6334,2.8446,2.9375,2.8926,2.9961,3.0644,3.0898,3.0898,3.0898,3.0898,3.0898,3.0898,3.0898,3.0898,3.0898,3.0898,3.0898,3.0898,3.0898,3.0898,3.0898,3.0957,3.1621,3.1719,3.1621,3.2519,3.2832,3.2793,1.0717,1.0717,1.0717,1.0717,1.0717,1.0717,1.0717,1.0717,1.0717,1.0717,1.0717,1.0717,1.0717,1.0717,1.0717,1.0717,1.0493,1.0344,1.0344,1.0475,1.051,1.0426,1.3186,1.481,1.5007,1.7901,1.943,1.943,1.943,1.9212,1.8918,1.8918,1.8637,1.8062,1.8062,1.7943,1.7649,1.7702,1.7849,1.7969,1.7809,1.7876,1.8035,1.7822,1.7889,1.8062,1.8062,1.8277,1.845,1.8142,1.8277,1.8397,1.7889,1.8076,1.8437,1.8129,1.7929,1.7716,1.7716,1.7716,1.7782,1.8023,1.829,1.849,1.849,1.849,1.8504,1.8544,1.8557,1.8651,1.8931,1.8985,1.8985,1.8985,1.8704,1.8303,1.7796,0.0,1.7689,1.7769,1.8277,1.8758,1.9092,2.0701,2.2066,2.3061,2.5044,2.6773,0.0,2.9128,2.9492,2.9121,3.0273,3.0898,3.0898,3.0898,3.0918,3.0996,3.0996,3.0996,3.0996,3.0996,3.0957,3.0898,3.0898,3.0898,3.0898,3.0898,3.0937,3.1035,3.1445,3.166,3.1758,3.2207,3.2578,3.2832,1.0717,1.0717,1.0717,1.0717,1.0717,1.0717,1.0717,1.0717,1.0717,1.0717,1.0717,1.0717,1.0717,1.0717,1.0717,1.0717,1.0677,1.0649,1.0649,1.1984,1.2677,1.2458,1.4217,1.5676,1.6763,1.8529,1.943,1.943,1.943,1.9212,1.8918,1.8918,1.8744,1.8424,1.8424,1.825,1.7942,1.8237,1.8237,1.8009,1.8263,1.8384,1.8424,1.837,1.8384,1.8424,1.8424,1.845,1.8477,1.8437,1.845,1.8477,1.8384,1.841,1.8477,1.8437,1.8384,1.8343,1.8343,1.8343,1.8357,1.841,1.845,1.849,1.849,1.849,1.8557,1.8811,1.8851,1.8945,1.9239,1.9292,1.9292,1.9292,1.8851,1.8464,1.8357,0.0,1.8143,1.8651,1.9025,1.9439,1.9973,2.1276,2.2268,2.2744,2.523,2.6992,2.7452,2.9126,3.0078,3.0,3.0586,3.0898,3.0898,3.0898,3.1074,3.1426,3.1426,3.1426,3.1426,3.1426,3.123,3.0898,3.0898,3.0898,3.0898,3.0898,3.1094,3.1465,3.1894,3.2285,3.2656,3.3066,3.3262,3.332,1.0717,1.0717,1.0717,1.0717,1.0717,1.0717,1.0717,1.0717,1.0717,1.0717,1.0717,1.0717,1.0717,1.0717,1.0717,1.0717,1.1571,1.2084,1.2084,1.2775,1.3582,1.4381,1.5867,1.7303,1.8583,1.9155,1.943,1.943,1.943,1.9292,1.9158,1.9158,1.9011,1.8731,1.8731,1.8557,1.829,1.8437,1.8504,1.8462,1.8504,1.8584,1.8704,1.8557,1.8584,1.8731,1.8731,1.8824,1.8945,1.8771,1.8824,1.8905,1.8584,1.8704,1.8931,1.8771,1.8611,1.849,1.849,1.8611,1.8731,1.8731,1.8838,1.8958,1.8958,1.8958,1.8998,1.9132,1.9292,1.9439,1.9573,1.9599,1.9599,1.9599,1.9105,0.0,0.0,1.8731,1.8851,1.9132,1.9559,2.0,2.0428,2.0837,2.1949,2.3932,2.5152,2.6729,2.8766,2.9736,3.0312,3.0566,3.0781,3.0898,3.0898,3.1113,3.1211,3.1191,3.1406,3.1523,3.1523,3.1523,3.1406,3.123,3.123,3.1094,3.0898,3.0898,3.0996,3.125,3.1914,3.2285,3.2539,3.3184,3.3418,3.3418,1.0717,1.0717,1.0717,1.0717,1.0717,1.0717,1.0717,1.0717,1.0717,1.0717,1.0717,1.0717,1.0717,1.0717,1.085,1.124,1.2545,1.3643,1.4493,1.441,1.4929,1.6213,1.7681,1.8822,1.9706,1.9546,1.9439,1.943,1.943,1.943,1.943,1.943,1.9239,1.9025,1.9025,1.8865,1.8597,1.8664,1.8784,1.8905,1.8758,1.8824,1.8998,1.8784,1.8838,1.9025,1.9025,1.9212,1.9426,1.9212,1.9319,1.9492,1.9038,1.9199,1.9519,1.9292,1.9065,1.8865,1.8731,1.8851,1.9025,1.9025,1.9199,1.943,1.943,1.947,1.9466,1.9466,1.9693,1.9907,1.9907,1.9907,1.9907,1.9907,0.0,0.0,0.0,1.9319,1.9492,1.9559,2.0027,2.0454,2.0748,2.0931,2.2251,2.524,2.5603,2.7052,3.0217,3.0351,3.0527,3.0879,3.0898,3.0898,3.0898,3.1211,3.1269,3.1035,3.1465,3.168,3.168,3.1777,3.1699,3.1523,3.1621,3.1367,3.0918,3.1113,3.1191,3.1269,3.2012,3.2383,3.2539,3.3184,3.3418,3.3418,1.0717,1.0717,1.0717,1.0717,1.0717,1.0717,1.0717,1.0717,1.0717,1.0717,1.0717,1.0717,1.0717,1.0717,1.1372,1.2997,1.3259,1.4688,1.7923,1.8104,1.8053,1.7948,1.9259,1.984,1.947,1.9639,1.9639,1.943,1.943,1.943,1.943,1.943,1.9417,1.9332,1.9332,1.9172,1.8905,1.9185,1.9158,1.8945,1.9199,1.9377,1.9332,1.9319,1.9377,1.9332,1.9332,1.9519,1.976,1.9746,1.9933,2.016,2.012,2.0134,2.016,2.0087,2.012,1.9987,1.9452,1.9377,1.9332,1.9332,1.9359,1.943,1.943,1.9573,1.9773,1.9773,2.0,2.0201,2.0201,2.0201,2.0201,2.0201,0.0,0.0,1.9733,1.9746,1.9867,2.0134,2.0454,2.0762,2.1042,2.2472,2.404,2.5813,2.7305,2.8965,3.0781,3.084,3.0859,3.0898,3.0898,3.0898,3.0898,3.0918,3.1113,3.1484,3.1914,3.2129,3.2129,3.2519,3.2266,3.1543,3.1953,3.166,3.0957,3.1738,3.207,3.2129,3.2578,3.2988,3.334,3.3398,3.3418,3.3418,1.0717,1.0717,1.0717,1.0717,1.0717,1.0717,1.0717,1.0717,1.0717,1.0717,1.0717,1.0717,1.0717,1.163,1.261,1.3259,1.5265,1.7076,1.8436,1.9483,2.0081,1.9979,2.0283,2.0321,1.9907,2.0013,1.984,1.943,1.9546,1.9546,1.943,1.943,1.943,1.943,1.943,1.9305,1.9199,1.9377,1.9305,1.9212,1.9319,1.943,1.943,1.943,1.9479,1.9639,1.9639,1.9826,2.0067,2.0067,2.0147,2.0167,2.0167,2.0167,2.0167,2.0167,2.0167,2.0187,1.996,1.9907,1.9907,1.9907,1.9907,1.9907,1.9907,1.9987,2.0067,2.0067,2.0307,2.0508,2.0508,2.0508,2.0561,2.0748,0.0,2.0134,2.0321,2.0347,2.0388,2.0494,2.0762,2.0989,2.1096,2.2654,2.4301,2.5863,2.7512,2.9157,3.082,3.0898,3.0898,3.0898,3.0898,3.0898,3.0898,3.1152,3.1367,3.1523,3.1953,3.2305,3.2559,3.2715,3.2617,3.2324,3.248,3.2226,3.1719,3.2031,3.2229,3.2268,3.2637,3.2891,3.3066,3.332,3.3418,3.3418,1.0778,1.0792,1.0806,1.0853,1.0819,1.0792,1.0792,1.0751,1.0717,1.0717,1.1174,1.1505,1.1505,1.3062,1.4362,1.4874,1.7141,1.8704,1.9291,2.0462,2.1069,2.0975,2.0869,2.0628,2.0241,2.0321,2.0134,1.9639,1.984,1.9826,1.9639,1.9639,1.9586,1.9506,1.9506,1.9452,1.943,1.943,1.943,1.943,1.943,1.9426,1.9492,1.9399,1.9599,1.992,1.9826,2.004,2.0374,2.0374,2.0428,2.0508,2.0508,2.0508,2.0508,2.0508,2.0508,2.0508,2.0508,2.0508,2.0468,2.0281,2.0167,2.0167,2.0167,2.0307,2.0374,2.0374,2.0615,2.0815,2.0815,2.0815,2.0882,2.1082,2.0775,2.0575,2.0788,2.0815,2.0815,2.0815,2.0989,2.1109,2.1109,2.2654,2.4301,2.5863,2.7512,2.9157,3.082,3.0898,3.0898,3.0898,3.1016,3.1094,3.1094,3.1367,3.1523,3.1523,3.209,3.2519,3.2793,3.293,3.293,3.2793,3.293,3.2676,3.2187,3.2461,3.248,3.2402,3.2832,3.2988,3.3027,3.332,3.3418,3.3418,1.0847,1.088,1.0995,1.1138,1.1043,1.088,1.088,1.0819,1.0717,1.0717,1.2215,1.3325,1.3325,1.4884,1.6635,1.8384,1.8512,1.9291,2.0982,2.1109,2.0989,2.0695,2.0949,2.0842,2.0254,2.0535,2.0535,2.0167,2.018,2.018,2.0167,2.0167,2.008,1.98,1.98,1.9639,1.943,1.943,1.943,1.943,1.943,1.9546,1.9773,1.9479,1.9733,2.0201,1.9907,2.0187,2.0681,2.0681,2.0869,2.1109,2.1109,2.1109,2.1109,2.1109,2.1109,2.1109,2.1109,2.1109,2.0975,2.0388,2.0241,2.0241,2.0241,2.0468,2.0681,2.0681,2.0909,2.1109,2.1109,2.1109,2.1109,2.1109,2.1109,2.1109,2.1109,2.1109,2.1109,2.1109,2.1109,2.1109,2.1109,2.2654,2.4301,2.5924,2.7512,2.9157,3.084,3.0898,3.0898,3.0898,3.1309,3.1523,3.1523,3.1523,3.1523,3.1543,3.2383,3.2793,3.2812,3.3242,3.3184,3.2832,3.3242,3.2949,3.2246,3.3086,3.3184,3.2832,3.3262,3.3418,3.3418,3.3418,3.3418,3.3418,1.0778,1.0806,1.0894,1.1002,1.1063,1.1063,1.0894,1.1903,1.2621,1.2561,1.4218,1.5488,1.5488,1.7214,1.8579,1.9118,2.0248,2.1098,2.143,2.1416,2.1283,2.0989,2.1069,2.0935,2.0548,2.0828,2.0735,2.0167,2.0441,2.0441,2.0167,2.0167,2.0187,2.0107,2.0107,2.0054,1.996,1.976,1.9666,1.9666,1.9666,1.972,1.9813,1.9933,2.0214,2.0535,2.0441,2.0655,2.0975,2.0975,2.1042,2.1109,2.1109,2.1109,2.1109,2.1109,2.1109,2.1109,2.1109,2.1109,2.1069,2.0895,2.0842,2.0842,2.0842,2.0922,2.0975,2.0975,2.1216,2.1363,2.1149,2.1283,2.1349,2.1149,2.1109,2.1109,2.1109,2.1109,2.1109,2.1109,2.1109,2.1538,2.2716,2.4579,2.6282,2.7589,2.9476,3.0755,3.1269,3.1621,3.1641,3.1348,3.1758,3.1973,3.1973,3.1973,3.2129,3.2422,3.2676,3.2949,3.3242,3.3359,3.3359,3.3242,3.3359,3.3281,3.3066,3.332,3.334,3.3242,3.3379,3.3418,3.3418,3.3418,3.3418,3.3418,1.0799,1.082,1.0921,1.1104,1.1145,1.1427,1.2072,1.3018,1.394,1.4609,1.6364,1.7575,1.7575,1.9314,2.0418,2.0418,2.1371,2.1911,2.1802,2.1789,2.159,2.1296,2.1283,2.1149,2.0855,2.1015,2.0935,2.0575,2.0762,2.0762,2.0575,2.0575,2.0521,2.0401,2.0401,2.0347,2.0167,2.004,1.9973,1.9973,1.9973,2.004,2.016,2.0214,2.0494,2.0828,2.0722,2.0869,2.1109,2.1109,2.1109,2.1109,2.1109,2.1109,2.1109,2.1109,2.1109,2.1109,2.1109,2.1189,2.1256,2.1136,2.1109,2.1136,2.1256,2.1283,2.1309,2.143,2.151,2.1601,2.147,2.151,2.1561,2.1309,2.1376,2.1416,2.1296,2.139,2.1456,2.1456,2.2084,2.2886,2.3884,2.6316,2.8395,2.9777,3.1063,3.1777,3.1777,3.2031,3.2051,3.1777,3.2187,3.2422,3.2422,3.2578,3.2715,3.2793,3.2969,3.3184,3.3418,3.3418,3.3418,3.3418,3.3418,3.3418,3.3418,3.3418,3.3418,3.3418,3.3418,3.3418,3.3418,3.3418,3.3418,3.3437,1.0833,1.1016,1.1255,1.1601,1.1692,1.2335,1.4197,1.4491,1.5119,1.6783,1.8552,1.9645,1.9645,2.1091,2.2058,2.2058,2.2058,2.2058,2.2031,2.2031,2.1897,2.1668,2.1628,2.1494,2.1149,2.1122,2.1109,2.1109,2.1109,2.1109,2.1109,2.1109,2.0962,2.0722,2.0722,2.0561,2.0307,2.022,2.0207,2.0207,2.0207,2.0441,2.0655,2.0401,2.0641,2.1069,2.0815,2.0882,2.1109,2.1109,2.1109,2.1109,2.1136,2.1149,2.1149,2.1176,2.1189,2.1189,2.1189,2.139,2.1588,2.1256,2.1189,2.1256,2.1561,2.1641,2.1735,2.1937,2.179,2.1775,2.1937,2.179,2.1681,2.1655,2.1817,2.1897,2.1695,2.1817,2.1991,2.1991,2.3392,2.4466,2.4789,2.7895,3.0581,3.2205,3.2246,3.2226,3.2226,3.2266,3.2266,3.2226,3.2637,3.2851,3.2851,3.3223,3.3223,3.2851,3.3242,3.3418,3.3418,3.3418,3.3418,3.3418,3.3418,3.3418,3.3418,3.3418,3.3418,3.3418,3.3418,3.3418,3.3418,3.3418,3.3418,3.3496,1.0765,1.2157,1.3379,1.3384,1.477,1.6021,1.6313,1.756,1.8484,1.8831,2.0538,2.1776,2.1776,2.2323,2.2672,2.2672,2.2672,2.2579,2.2338,2.2325,2.2191,2.1897,2.1735,2.1588,2.1521,2.1229,2.1109,2.1109,2.1109,2.1109,2.1109,2.1109,2.1082,2.1015,2.1015,2.0975,2.0909,2.0681,2.0575,2.0575,2.0575,2.0615,2.0695,2.0855,2.1002,2.1096,2.1042,2.1056,2.1109,2.1109,2.1109,2.1149,2.139,2.1521,2.1496,2.1724,2.179,2.179,2.179,2.1844,2.1884,2.1804,2.179,2.175,2.1655,2.1724,2.1911,2.1977,2.2111,2.2178,2.2017,2.2124,2.2151,2.1924,2.1951,2.1964,2.1897,2.1951,2.1991,2.1991,2.2306,2.3652,2.6328,2.9679,3.2054,3.3105,3.2851,3.2656,3.2656,3.2969,3.3008,3.2676,3.3066,3.3281,3.3281,3.3379,3.3379,3.3281,3.3379,3.3418,3.3418,3.3418,3.3418,3.3418,3.3418,3.3418,3.3418,3.3418,3.3418,3.3418,3.3418,3.3418,3.3418,3.3418,3.3418,3.3496,1.2206,1.3881,1.5332,1.5434,1.6382,1.7434,1.8324,1.9232,2.0147,2.0964,2.1984,2.2632,2.2632,2.2766,2.2928,2.2928,2.2928,2.2792,2.2645,2.2632,2.2498,2.2205,2.2044,2.1897,2.1764,2.1603,2.139,2.1109,2.1109,2.1109,2.1109,2.1109,2.1109,2.1109,2.1109,2.1109,2.1096,2.0949,2.0882,2.0882,2.0882,2.0882,2.0895,2.1056,2.1109,2.1109,2.1109,2.1109,2.1109,2.1109,2.1109,2.1162,2.1456,2.1614,2.1681,2.1897,2.1991,2.1991,2.1991,2.2084,2.2164,2.2017,2.2191,2.2325,2.2031,2.2084,2.2231,2.2378,2.2405,2.2418,2.2405,2.2418,2.2365,2.2218,2.2311,2.2405,2.2405,2.2525,2.2686,2.2819,2.3556,2.5472,2.9048,3.0783,3.2277,3.3628,3.334,3.3086,3.3086,3.3301,3.332,3.3105,3.3301,3.3418,3.3418,3.3418,3.3418,3.3418,3.3418,3.3418,3.3418,3.3418,3.3418,3.3418,3.3418,3.3418,3.3418,3.3418,3.3418,3.3418,3.3418,3.3418,3.3418,3.3418,3.3672,3.4101,1.4263,1.5923,1.737,1.7433,1.7771,1.8556,2.0304,2.0548,2.1101,2.2722,2.2928,2.2928,2.2928,2.2928,2.2928,2.2928,2.2928,2.2928,2.2928,2.2928,2.2752,2.2498,2.2445,2.2311,2.2071,2.2004,2.175,2.1256,2.1203,2.1189,2.1189,2.1136,2.1109,2.1109,2.1109,2.1109,2.1109,2.1109,2.1109,2.1109,2.1109,2.1109,2.1109,2.1109,2.1109,2.1109,2.1109,2.1109,2.1122,2.1162,2.1189,2.1243,2.159,2.1762,2.1764,2.2044,2.2138,2.2138,2.2138,2.2311,2.2432,2.2191,2.2539,2.2873,2.2632,2.2525,2.2579,2.2873,2.2739,2.2659,2.2966,2.2819,2.2645,2.2645,2.2859,2.302,2.302,2.3247,2.3487,2.3741,2.5608,2.8069,3.1155,3.1691,3.2497,3.4115,3.3848,3.3633,3.3633,3.3574,3.3535,3.3535,3.3457,3.3418,3.3418,3.3418,3.3457,3.3535,3.3535,3.3496,3.3418,3.3418,3.3418,3.3418,3.3418,3.3418,3.3418,3.3418,3.3418,3.3418,3.3418,3.3418,3.3418,3.3418,3.3965,3.4766,1.6048,1.7859,1.9413,1.9447,2.0891,2.219,2.2503,2.2516,2.2585,2.2859,2.2928,2.2928,2.2928,2.2928,2.2928,2.2928,2.2928,2.2928,2.2928,2.2928,2.2914,2.2806,2.2552,2.2405,2.2365,2.2111,2.1951,2.1871,2.1681,2.1561,2.1547,2.1229,2.1109,2.1109,2.1109,2.1109,2.1109,2.1109,2.1109,2.1109,2.1109,2.1109,2.1109,2.1109,2.1109,2.1109,2.1109,2.1109,2.1149,2.1403,2.1561,2.159,2.2124,2.2298,2.2365,2.2659,2.2807,2.2807,2.2807,2.2766,2.2792,2.282,2.3006,2.326,2.322,2.2993,2.2886,2.3207,2.3233,2.33,2.3594,2.3621,2.3594,2.3594,2.3621,2.3647,2.3647,2.3688,2.3728,2.3768,2.6783,2.9031,2.951,3.2393,3.4347,3.4609,3.4551,3.4531,3.4531,3.418,3.3984,3.3984,3.3613,3.3418,3.3418,3.3418,3.3613,3.3984,3.3984,3.3789,3.3418,3.3418,3.3418,3.3418,3.3418,3.3418,3.3418,3.3418,3.3418,3.3418,3.3418,3.3418,3.3418,3.3418,3.3965,3.4707,1.8306,2.0035,2.1543,2.1543,2.2287,2.2928,2.2928,2.2928,2.2928,2.2928,2.2928,2.2928,2.2928,2.2928,2.2928,2.2928,2.2928,2.2928,2.2928,2.2928,2.2928,2.2928,2.2739,2.2672,2.2672,2.2378,2.2311,2.2472,2.1923,2.1614,2.1614,2.1256,2.1109,2.1109,2.1109,2.1109,2.1109,2.1109,2.1109,2.1109,2.1109,2.1109,2.1109,2.1109,2.1109,2.1109,2.1109,2.1216,2.1376,2.1574,2.1722,2.1871,2.2285,2.2418,2.2512,2.2979,2.2993,2.3008,2.3273,2.3247,2.3166,2.3327,2.3474,2.3581,2.3581,2.3474,2.3407,2.3541,2.3581,2.3621,2.3741,2.3768,2.3768,2.3768,2.3768,2.3834,2.3995,2.4008,2.4075,2.4235,2.6643,2.8655,2.9691,3.2004,3.3889,3.5012,3.4844,3.4707,3.4707,3.4531,3.4316,3.4082,3.3887,3.3672,3.3418,3.3418,3.3516,3.3711,3.3711,3.373,3.3789,3.3789,3.3652,3.3418,3.3418,3.3418,3.3418,3.3418,3.3418,3.3418,3.3418,3.3418,3.3457,3.3691,3.418,3.4726]},{"header":{"parameterUnit":"m.s-1","parameterCategory":1,"la1":30.6,"la2":28.766,"lo1":-90.7593,"lo2":-88.6598,"dy":0.0162,"dx":0.0183,"nx":116,"ny":114,"refTime":"2023-11-02T00:00:00:Z","depth":0,"parameterNumber":3,"parameterNumberName":"V-component_of_WINDS"},"data":[0.0,0.0,0.0,0.0,0.0,0.0,0.0,0.0,0.0,0.0,0.0,0.0,0.0,0.0,0.0,0.0,0.0,0.0,0.0,0.0,0.0,0.0,0.0,0.0,0.0,0.0,0.0,0.0,0.0,0.0,0.0,0.0,0.0,0.0,0.0,0.0,0.0,0.0,0.0,0.0,0.0,0.0,0.0,0.0,0.0,0.0,0.0,0.0,0.0,0.0,0.0,0.0,0.0,0.0,0.0,0.0,0.0,0.0,0.0,0.0,0.0,0.0,0.0,0.0,0.0,0.0,0.0,0.0,0.0,0.0,0.0,0.0,0.0,0.0,0.0,0.0,0.0,0.0,0.0,0.0,0.0,0.0,0.0,0.0,0.0,0.0,0.0,0.0,0.0,0.0,0.0,0.0,0.0,0.0,0.0,0.0,0.0,0.0,0.0,0.0,0.0,0.0,0.0,0.0,0.0,0.0,0.0,0.0,0.0,0.0,0.0,0.0,0.0,0.0,0.0,0.0,0.0,0.0,0.0,0.0,0.0,0.0,0.0,0.0,0.0,0.0,0.0,0.0,0.0,0.0,0.0,0.0,0.0,0.0,0.0,0.0,0.0,0.0,0.0,0.0,0.0,0.0,0.0,0.0,0.0,0.0,0.0,0.0,0.0,0.0,0.0,0.0,0.0,0.0,0.0,0.0,0.0,0.0,0.0,0.0,0.0,0.0,0.0,0.0,0.0,0.0,0.0,0.0,0.0,0.0,0.0,0.0,0.0,0.0,0.0,0.0,0.0,0.0,0.0,0.0,0.0,0.0,0.0,0.0,0.0,0.0,0.0,0.0,0.0,0.0,0.0,0.0,0.0,0.0,0.0,0.0,0.0,0.0,0.0,0.0,0.0,0.0,0.0,0.0,0.0,0.0,0.0,0.0,0.0,0.0,0.0,0.0,0.0,0.0,0.0,0.0,0.0,0.0,0.0,0.0,0.0,0.0,0.0,0.0,0.0,0.0,0.0,0.0,0.0,0.0,0.0,0.0,0.0,0.0,0.0,0.0,0.0,0.0,0.0,0.0,0.0,0.0,0.0,0.0,0.0,0.0,0.0,0.0,0.0,0.0,0.0,0.0,0.0,0.0,0.0,0.0,0.0,0.0,0.0,0.0,0.0,0.0,0.0,0.0,0.0,0.0,0.0,0.0,0.0,0.0,0.0,0.0,0.0,0.0,0.0,0.0,0.0,0.0,0.0,0.0,0.0,0.0,0.0,0.0,0.0,0.0,0.0,0.0,0.0,0.0,0.0,0.0,0.0,0.0,0.0,0.0,0.0,0.0,0.0,0.0,0.0,0.0,0.0,0.0,0.0,0.0,0.0,0.0,0.0,0.0,0.0,0.0,0.0,0.0,0.0,0.0,0.0,0.0,0.0,0.0,0.0,0.0,0.0,0.0,0.0,0.0,0.0,0.0,0.0,0.0,0.0,0.0,0.0,0.0,0.0,0.0,0.0,0.0,0.0,0.0,0.0,0.0,0.0,0.0,0.0,0.0,0.0,0.0,0.0,0.0,0.0,0.0,0.0,0.0,0.0,0.0,0.0,0.0,0.0,0.0,0.0,0.0,0.0,0.0,0.0,0.0,0.0,0.0,0.0,0.0,0.0,0.0,0.0,0.0,0.0,0.0,0.0,0.0,0.0,0.0,0.0,0.0,0.0,0.0,0.0,0.0,0.0,0.0,0.0,0.0,0.0,0.0,0.0,0.0,0.0,0.0,0.0,0.0,0.0,0.0,0.0,0.0,0.0,0.0,0.0,0.0,0.0,0.0,0.0,0.0,0.0,0.0,0.0,0.0,0.0,0.0,0.0,0.0,0.0,0.0,0.0,0.0,0.0,0.0,0.0,0.0,0.0,0.0,0.0,0.0,0.0,0.0,0.0,0.0,0.0,0.0,0.0,0.0,0.0,0.0,0.0,0.0,0.0,0.0,0.0,0.0,0.0,0.0,0.0,0.0,0.0,0.0,0.0,0.0,0.0,0.0,0.0,0.0,0.0,0.0,0.0,0.0,0.0,0.0,0.0,0.0,0.0,0.0,0.0,0.0,0.0,0.0,0.0,0.0,0.0,0.0,0.0,0.0,0.0,0.0,0.0,0.0,0.0,0.0,0.0,0.0,0.0,0.0,0.0,0.0,0.0,0.0,0.0,0.0,0.0,0.0,0.0,0.0,0.0,0.0,0.0,0.0,0.0,0.0,0.0,0.0,0.0,0.0,0.0,0.0,0.0,0.0,0.0,0.0,0.0,0.0,0.0,0.0,0.0,0.0,0.0,0.0,0.0,0.0,0.0,0.0,0.0,0.0,0.0,0.0,0.0,0.0,0.0,0.0,0.0,0.0,0.0,0.0,0.0,0.0,0.0,0.0,0.0,0.0,0.0,0.0,0.0,0.0,0.0,0.0,0.0,0.0,0.0,0.0,0.0,0.0,0.0,0.0,0.0,0.0,0.0,0.0,0.0,0.0,0.0,0.0,0.0,0.0,0.0,0.0,0.0,0.0,0.0,0.0,0.0,0.0,0.0,0.0,0.0,0.0,0.0,0.0,0.0,0.0,0.0,0.0,0.0,0.0,0.0,0.0,0.0,0.0,0.0,0.0,0.0,0.0,0.0,0.0,0.0,0.0,0.0,0.0,0.0,0.0,0.0,0.0,0.0,0.0,0.0,0.0,0.0,0.0,0.0,0.0,0.0,0.0,0.0,0.0,0.0,0.0,0.0,0.0,0.0,0.0,0.0,0.0,0.0,0.0,0.0,0.0,0.0,0.0,0.0,0.0,0.0,0.0,0.0,0.0,0.0,0.0,0.0,0.0,0.0,0.0,0.0,0.0,0.0,0.0,0.0,0.0,0.0,0.0,0.0,0.0,0.0,0.0,0.0,0.0,0.0,0.0,0.0,0.0,0.0,0.0,0.0,0.0,0.0,0.0,0.0,0.0,0.0,0.0,0.0,0.0,0.0,0.0,0.0,0.0,0.0,0.0,0.0,0.0,0.0,0.0,0.0,0.0,0.0,0.0,0.0,0.0,0.0,0.0,0.0,0.0,0.0,0.0,0.0,0.0,0.0,0.0,0.0,0.0,0.0,0.0,0.0,0.0,0.0,0.0,0.0,0.0,0.0,0.0,0.0,0.0,0.0,0.0,0.0,0.0,0.0,0.0,0.0,0.0,0.0,0.0,0.0,0.0,0.0,0.0,0.0,0.0,0.0,0.0,0.0,0.0,0.0,0.0,0.0,0.0,0.0,0.0,0.0,0.0,0.0,0.0,0.0,0.0,0.0,0.0,0.0,0.0,0.0,0.0,0.0,0.0,0.0,0.0,0.0,0.0,0.0,0.0,0.0,0.0,0.0,0.0,0.0,0.0,0.0,0.0,0.0,0.0,0.0,0.0,0.0,0.0,0.0,0.0,0.0,0.0,0.0,0.0,0.0,0.0,0.0,0.0,0.0,0.0,0.0,0.0,0.0,0.0,0.0,0.0,0.0,0.0,0.0,0.0,0.0,0.0,0.0,0.0,0.0,0.0,0.0,0.0,0.0,0.0,0.0,0.0,0.0,0.0,0.0,0.0,0.0,0.0,0.0,0.0,0.0,0.0,0.0,0.0,0.0,0.0,0.0,0.0,0.0,0.0,0.0,0.0,0.0,0.0,0.0,0.0,0.0,0.0,0.0,0.0,0.0,0.0,0.0,0.0,0.0,0.0,0.0,0.0,0.0,0.0,0.0,0.0,0.0,0.0,0.0,0.0,0.0,0.0,0.0,0.0,0.0,0.0,0.0,0.0,0.0,0.0,0.0,0.0,0.0,0.0,0.0,0.0,0.0,0.0,0.0,0.0,0.0,0.0,0.0,0.0,0.0,0.0,0.0,0.0,0.0,0.0,0.0,0.0,0.0,0.0,0.0,0.0,0.0,0.0,0.0,0.0,0.0,0.0,0.0,0.0,0.0,0.0,0.0,0.0,0.0,0.0,0.0,0.0,0.0,0.0,0.0,0.0,0.0,0.0,0.0,0.0,0.0,0.0,0.0,0.0,0.0,0.0,0.0,0.0,0.0,0.0,0.0,0.0,0.0,0.0,0.0,0.0,0.0,0.0,0.0,0.0,0.0,0.0,0.0,0.0,0.0,0.0,0.0,0.0,0.0,0.0,0.0,0.0,0.0,0.0,0.0,0.0,0.0,0.0,0.0,0.0,0.0,0.0,0.0,0.0,0.0,0.0,0.0,0.0,0.0,0.0,0.0,0.0,0.0,0.0,0.0,0.0,0.0,0.0,0.0,0.0,0.0,0.0,0.0,0.0,0.0,0.0,0.0,0.0,0.0,0.0,0.0,0.0,0.0,0.0,0.0,0.0,0.0,0.0,0.0,0.0,0.0,0.0,0.0,0.0,0.0,0.0,0.0,0.0,0.0,0.0,0.0,0.0,0.0,0.0,0.0,0.0,0.0,0.0,0.0,0.0,0.0,0.0,0.0,0.0,0.0,0.0,0.0,0.0,0.0,0.0,0.0,0.0,0.0,0.0,0.0,0.0,0.0,0.0,0.0,0.0,0.0,0.0,0.0,0.0,0.0,0.0,0.0,0.0,0.0,0.0,0.0,0.0,0.0,0.0,0.0,0.0,0.0,0.0,0.0,0.0,0.0,0.0,0.0,0.0,0.0,0.0,0.0,0.0,0.0,0.0,0.0,0.0,0.0,0.0,0.0,0.0,0.0,0.0,0.0,0.0,0.0,0.0,0.0,0.0,0.0,0.0,0.0,0.0,0.0,0.0,0.0,0.0,0.0,0.0,0.0,0.0,0.0,0.0,0.0,0.0,0.0,0.0,0.0,0.0,0.0,0.0,0.0,0.0,0.0,0.0,0.0,0.0,0.0,0.0,0.0,0.0,0.0,0.0,0.0,0.0,0.0,0.0,0.0,0.0,0.0,0.0,0.0,0.0,0.0,0.0,0.0,0.0,0.0,0.0,0.0,0.0,0.0,0.0,0.0,0.0,0.0,0.0,0.0,0.0,0.0,0.0,0.0,0.0,0.0,0.0,0.0,0.0,0.0,0.0,0.0,0.0,0.0,0.0,0.0,0.0,0.0,0.0,0.0,0.0,0.0,0.0,0.0,0.0,0.0,0.0,0.0,0.0,0.0,0.0,0.0,0.0,0.0,0.0,0.0,0.0,0.0,0.0,0.0,0.0,0.0,0.0,0.0,0.0,0.0,0.0,0.0,0.0,0.0,0.0,0.0,0.0,0.0,0.0,0.0,0.0,0.0,0.0,0.0,0.0,0.0,0.0,0.0,0.0,0.0,0.0,0.0,0.0,0.0,0.0,0.0,0.0,0.0,0.0,0.0,0.0,0.0,0.0,0.0,0.0,0.0,0.0,0.0,0.0,0.0,0.0,0.0,0.0,0.0,0.0,0.0,0.0,0.0,0.0,0.0,0.0,0.0,0.0,0.0,0.0,0.0,0.0,0.0,0.0,0.0,0.0,0.0,0.0,0.0,0.0,0.0,0.0,0.0,0.0,0.0,0.0,0.0,0.0,0.0,0.0,0.0,0.0,0.0,0.0,0.0,0.0,0.0,0.0,0.0,0.0,0.0,0.0,0.0,0.0,0.0,0.0,0.0,0.0,0.0,0.0,0.0,0.0,0.0,0.0,0.0,0.0,0.0,0.0,0.0,0.0,0.0,0.0,0.0,0.0,0.0,0.0,0.0,0.0,0.0,0.0,0.0,0.0,0.0,0.0,0.0,0.0,0.0,0.0,0.0,0.0,0.0,0.0,0.0,0.0,0.0,0.0,0.0,0.0,0.0,0.0,0.0,0.0,0.0,0.0,0.0,0.0,0.0,0.0,0.0,0.0,0.0,0.0,0.0,0.0,0.0,0.0,0.0,0.0,0.0,0.0,0.0,0.0,0.0,0.0,0.0,0.0,0.0,0.0,0.0,0.0,0.0,0.0,0.0,0.0,0.0,0.0,0.0,0.0,0.0,0.0,0.0,0.0,0.0,0.0,0.0,0.0,0.0,0.0,0.0,0.0,0.0,0.0,0.0,0.0,0.0,0.0,0.0,0.0,0.0,0.0,0.0,0.0,0.0,0.0,3.5786,0.0,0.0,0.0,0.0,0.0,0.0,0.0,0.0,0.0,0.0,0.0,0.0,0.0,0.0,0.0,0.0,0.0,0.0,0.0,0.0,0.0,0.0,0.0,0.0,0.0,0.0,0.0,0.0,0.0,0.0,0.0,0.0,0.0,0.0,0.0,0.0,0.0,0.0,2.7179,2.6616,2.7345,2.9224,2.9191,2.8662,2.7774,0.0,0.0,0.0,0.0,0.0,0.0,0.0,0.0,0.0,0.0,0.0,0.0,0.0,0.0,0.0,0.0,0.0,0.0,0.0,0.0,0.0,0.0,0.0,0.0,0.0,0.0,0.0,0.0,0.0,0.0,0.0,0.0,0.0,0.0,0.0,0.0,0.0,0.0,0.0,0.0,0.0,0.0,0.0,0.0,0.0,0.0,0.0,0.0,0.0,0.0,0.0,0.0,0.0,0.0,0.0,0.0,0.0,0.0,0.0,0.0,0.0,0.0,0.0,0.0,0.0,0.0,0.0,0.0,0.0,0.0,0.0,3.8286,0.0,0.0,0.0,0.0,0.0,0.0,0.0,0.0,0.0,0.0,0.0,0.0,0.0,0.0,0.0,0.0,0.0,0.0,0.0,0.0,0.0,0.0,0.0,3.0593,3.1565,3.2857,3.2105,3.1842,0.0,0.0,0.0,0.0,0.0,0.0,2.8229,2.7725,2.8094,2.9303,2.8632,2.9673,3.2299,3.3018,3.2357,3.0514,2.9762,0.0,0.0,0.0,0.0,0.0,0.0,0.0,0.0,0.0,0.0,0.0,0.0,0.0,0.0,0.0,0.0,0.0,0.0,0.0,0.0,0.0,0.0,0.0,0.0,0.0,0.0,0.0,0.0,0.0,0.0,0.0,0.0,0.0,0.0,0.0,0.0,0.0,0.0,0.0,0.0,0.0,0.0,0.0,0.0,0.0,0.0,0.0,0.0,0.0,0.0,0.0,0.0,0.0,0.0,0.0,0.0,0.0,0.0,0.0,0.0,0.0,0.0,0.0,0.0,4.4276,4.4086,4.5565,4.6682,4.7295,4.5039,4.3426,4.2326,0.0,0.0,0.0,0.0,0.0,0.0,0.0,0.0,0.0,0.0,0.0,0.0,0.0,0.0,0.0,0.0,0.0,0.0,0.0,0.0,0.0,0.0,3.2074,3.3209,3.5401,3.3907,3.3194,3.3975,0.0,0.0,0.0,0.0,0.0,2.9785,2.9276,2.9105,2.9303,3.1066,3.3069,3.5322,3.5988,3.6422,3.6546,3.2827,3.178,3.2679,0.0,0.0,0.0,0.0,0.0,0.0,0.0,0.0,0.0,0.0,0.0,0.0,0.0,0.0,0.0,0.0,0.0,0.0,0.0,0.0,0.0,0.0,0.0,0.0,0.0,0.0,0.0,0.0,0.0,0.0,0.0,0.0,0.0,0.0,0.0,0.0,0.0,0.0,0.0,0.0,0.0,3.9013,3.919,0.0,0.0,0.0,0.0,0.0,0.0,0.0,0.0,0.0,0.0,0.0,0.0,0.0,0.0,4.4198,4.7017,4.8425,4.8465,5.1389,5.2114,5.0928,5.2409,5.2512,5.147,5.1639,0.0,4.4682,4.3736,0.0,0.0,0.0,0.0,0.0,0.0,0.0,0.0,0.0,0.0,0.0,0.0,0.0,0.0,0.0,0.0,0.0,0.0,0.0,0.0,0.0,3.3732,3.5415,3.6664,3.639,3.5871,3.527,3.3805,0.0,0.0,0.0,3.0514,3.0108,3.069,3.1817,3.3527,3.5327,3.6904,3.8288,3.8974,3.9445,3.9656,3.7806,3.635,3.5148,3.2916,0.0,0.0,0.0,0.0,0.0,0.0,0.0,0.0,0.0,0.0,0.0,0.0,0.0,0.0,0.0,0.0,0.0,0.0,0.0,0.0,0.0,0.0,0.0,0.0,0.0,0.0,0.0,0.0,0.0,0.0,0.0,0.0,0.0,0.0,0.0,0.0,0.0,0.0,0.0,3.8523,4.0236,3.9294,3.9476,3.8451,0.0,0.0,0.0,0.0,0.0,0.0,0.0,0.0,0.0,4.5103,4.6074,4.7071,4.8164,5.0306,5.137,5.137,5.3504,5.394,5.2846,5.3951,5.3859,5.2769,5.3082,5.1616,4.8871,4.686,4.4951,4.3165,0.0,0.0,0.0,0.0,0.0,4.2188,0.0,0.0,0.0,0.0,0.0,0.0,0.0,0.0,0.0,0.0,0.0,0.0,3.298,3.5546,3.7583,3.8492,3.8848,3.829,3.6631,3.5239,3.349,3.1254,3.1292,3.1181,3.084,3.2354,3.4527,3.7371,3.8464,3.9478,4.0366,4.0933,4.1305,4.1474,4.1474,4.0155,3.7777,3.552,3.3897,3.2733,0.0,0.0,0.0,0.0,0.0,0.0,0.0,0.0,0.0,0.0,0.0,0.0,0.0,0.0,0.0,0.0,0.0,0.0,0.0,0.0,0.0,0.0,0.0,0.0,0.0,0.0,0.0,0.0,0.0,0.0,0.0,0.0,0.0,0.0,0.0,0.0,0.0,4.123,4.2668,4.0771,4.2268,4.1719,0.0,0.0,0.0,0.0,0.0,0.0,4.4822,4.5787,4.7003,4.8627,5.0029,5.1119,5.1861,5.3175,5.3723,5.3544,5.4639,5.4727,5.3891,5.452,5.4428,5.3812,5.3592,5.3188,5.2396,4.9596,4.7595,4.6157,4.4483,4.3905,4.42,4.5238,4.5335,4.5269,0.0,0.0,0.0,0.0,0.0,0.0,0.0,0.0,0.0,0.0,0.0,3.3426,3.5797,3.7594,3.9522,4.1869,4.0978,3.9625,3.8017,3.5987,3.4127,3.2485,3.2004,3.2099,3.2844,3.4559,3.6569,3.887,3.8937,3.9749,4.117,4.117,4.1576,4.2219,4.2219,4.1779,4.0832,3.8633,3.64,3.4235,3.2801,0.0,0.0,0.0,0.0,0.0,0.0,0.0,0.0,0.0,0.0,0.0,0.0,0.0,0.0,0.0,0.0,0.0,0.0,0.0,0.0,0.0,0.0,0.0,0.0,0.0,0.0,0.0,0.0,0.0,0.0,0.0,0.0,0.0,0.0,0.0,0.0,0.0,0.0,4.5828,4.7922,0.0,0.0,0.0,0.0,4.4135,4.5517,4.7312,4.9561,5.0349,5.1782,5.3946,5.4811,5.5654,5.6438,5.7304,5.7317,5.6585,5.6658,5.6277,5.5515,5.5552,5.5515,5.5427,5.4656,5.4326,5.4106,5.1662,5.0158,4.9204,4.7534,4.7129,4.7376,4.668,4.6855,4.743,0.0,0.0,0.0,0.0,0.0,0.0,0.0,0.0,3.0724,3.1393,3.3254,3.5119,3.6718,3.909,4.1126,4.2498,4.2005,4.0949,3.9341,3.7291,3.5636,3.4526,3.356,3.4128,3.6415,3.7591,3.909,4.0978,4.0487,4.0578,4.1204,4.1204,4.1339,4.161,4.2083,4.188,4.1136,3.9851,3.8294,3.6569,3.5047,3.3085,0.0,0.0,0.0,0.0,0.0,0.0,0.0,0.0,0.0,0.0,0.0,0.0,0.0,0.0,0.0,0.0,0.0,0.0,0.0,0.0,0.0,0.0,0.0,0.0,0.0,0.0,0.0,0.0,0.0,0.0,0.0,0.0,0.0,0.0,0.0,0.0,0.0,4.7414,4.977,0.0,0.0,4.6982,4.7464,4.7991,4.9379,5.0931,5.2747,5.3647,5.4675,5.5919,5.6712,5.7262,5.7556,5.785,5.7593,5.6822,5.6822,5.6124,5.484,5.484,5.4546,5.4032,5.3739,5.3781,5.3955,5.3085,5.2114,5.1063,5.0195,4.9948,5.0043,4.9707,4.9746,4.993,0.0,0.0,0.0,0.0,0.0,0.0,0.0,0.0,3.1587,3.2893,3.4856,3.6731,3.8304,4.0666,4.2343,4.2775,4.286,4.1788,3.9255,3.7797,3.6417,3.5057,3.4794,3.599,3.8754,3.9589,4.0637,4.1998,4.1462,4.1174,4.1094,4.1094,4.1002,4.0865,4.161,4.1508,4.0798,4.0561,3.9478,3.7821,3.6783,3.5182,3.3322,0.0,0.0,0.0,0.0,0.0,0.0,0.0,0.0,0.0,0.0,0.0,0.0,0.0,0.0,0.0,0.0,0.0,0.0,0.0,0.0,0.0,0.0,0.0,0.0,0.0,0.0,0.0,0.0,0.0,0.0,0.0,0.0,0.0,0.0,0.0,5.062,4.9456,5.2005,5.2917,5.0403,5.0722,5.1442,5.2207,5.3135,5.4255,5.5552,5.6197,5.6757,5.7203,5.7703,5.7997,5.7997,5.7997,5.7593,5.6822,5.6528,5.5684,5.4399,5.4106,5.3702,5.3225,5.3339,5.3546,5.3795,5.3959,5.3552,5.2772,5.2223,5.1903,5.1757,5.1406,5.1226,5.1036,0.0,0.0,0.0,0.0,0.0,0.0,0.0,3.1826,3.2817,3.4556,3.622,3.8223,4.0669,4.2346,4.3188,4.287,4.3469,4.2077,3.7831,3.747,3.6368,3.4027,3.5789,3.7738,3.9633,4.039,4.1129,4.1796,4.1796,4.1459,4.0839,4.0839,4.058,4.0129,4.0849,4.0781,4.0197,4.0942,3.9968,3.8004,3.7956,3.7053,3.56,0.0,0.0,0.0,0.0,0.0,0.0,0.0,0.0,0.0,0.0,0.0,0.0,0.0,0.0,0.0,0.0,0.0,0.0,0.0,0.0,0.0,0.0,0.0,0.0,0.0,0.0,0.0,0.0,0.0,0.0,0.0,0.0,0.0,4.7259,5.0708,5.3004,5.227,5.495,5.6235,5.473,5.5244,5.6014,5.6822,5.6859,5.7189,5.796,5.7997,5.7997,5.7997,5.7997,5.7997,5.7997,5.796,5.7556,5.6748,5.5941,5.5155,5.4347,5.3576,5.3209,5.3251,5.3625,5.3814,5.3869,5.4284,5.4478,5.4418,5.3534,5.2987,5.2527,5.1649,5.1047,5.0519,0.0,0.0,0.0,0.0,0.0,0.0,0.0,3.2462,3.3337,3.5836,3.7982,3.99,4.1388,4.2827,4.3616,4.3535,4.182,4.0137,3.8748,3.7037,3.6176,3.6479,3.869,4.0404,4.154,4.2323,4.2321,4.1525,4.1525,4.0927,3.98,3.98,4.0052,4.046,4.0669,4.0971,4.1366,4.1576,4.1296,4.0669,3.9836,3.8599,3.7293,0.0,0.0,0.0,0.0,0.0,0.0,0.0,0.0,0.0,0.0,0.0,0.0,0.0,0.0,0.0,0.0,0.0,0.0,0.0,0.0,0.0,0.0,0.0,0.0,0.0,0.0,0.0,0.0,0.0,0.0,0.0,0.0,4.9965,5.0591,5.3115,5.528,5.6235,5.7116,5.796,5.8694,5.7886,5.7666,5.8487,5.7997,5.7776,5.7997,5.7997,5.7997,5.7997,5.7997,5.7997,5.7997,5.7409,5.6748,5.5904,5.5097,5.4465,5.394,5.3717,5.3814,5.4156,5.4255,5.4484,5.4684,5.4216,5.4192,5.4432,5.3872,5.3566,5.3328,5.2154,5.0911,4.9625,0.0,0.0,0.0,0.0,0.0,0.0,0.0,3.2869,3.3827,3.6969,3.8784,4.0304,4.1723,4.2548,4.2622,4.1787,4.0528,3.8859,3.6831,3.6031,3.6645,3.8816,4.0452,4.1825,4.3008,4.3011,4.2607,4.176,4.1433,4.0763,3.9731,3.9731,3.9862,4.01,4.0474,4.0863,4.1329,4.1669,4.181,4.1782,4.1406,4.0803,4.0043,4.0019,3.9701,3.9314,3.966,3.9905,3.9996,3.9498,0.0,0.0,0.0,0.0,0.0,0.0,0.0,0.0,0.0,0.0,0.0,0.0,0.0,0.0,0.0,0.0,0.0,0.0,0.0,0.0,0.0,0.0,0.0,0.0,5.0591,5.2903,5.4392,5.5623,5.6925,5.8313,5.8217,5.851,5.9795,5.8767,5.818,5.8657,5.8444,5.8304,5.8304,5.8482,5.8591,5.8591,5.8591,5.8421,5.8029,5.7583,5.6952,5.6134,5.5337,5.482,5.457,5.4233,5.4238,0.0,5.4671,5.4876,5.5082,5.4727,5.4549,0.0,0.0,0.0,0.0,0.0,5.024,4.924,0.0,0.0,0.0,0.0,0.0,0.0,0.0,3.3114,3.4287,3.7848,3.8911,3.9984,4.1672,4.1749,4.0946,3.902,3.9461,3.8166,3.4185,3.544,3.7727,4.0899,4.1515,4.2445,4.3908,4.2924,4.2292,4.2059,4.136,4.0637,3.9914,3.9986,3.9766,3.9361,4.0268,4.0694,4.0836,4.1659,4.2,4.2035,4.269,4.291,4.2831,4.242,4.264,4.3237,4.3521,4.3263,4.2783,4.2783,0.0,0.0,0.0,0.0,0.0,0.0,0.0,0.0,0.0,0.0,0.0,0.0,0.0,0.0,0.0,0.0,0.0,0.0,0.0,0.0,0.0,0.0,0.0,0.0,5.3194,5.5639,5.8056,5.8069,5.8134,5.9094,5.8606,5.8459,5.9283,5.8643,5.8201,5.8275,5.8603,5.8776,5.8776,0.0,0.0,0.0,0.0,5.8957,5.811,5.7997,5.7582,5.6756,5.5961,5.5595,5.5589,5.4887,5.4579,5.464,5.4988,5.5173,5.5199,5.545,5.5011,5.4126,5.3356,5.2549,5.1577,4.9971,4.9336,0.0,0.0,0.0,0.0,0.0,0.0,0.0,0.0,3.3177,3.4418,3.7863,3.903,3.9936,4.0921,4.1019,4.0521,3.94,3.8807,3.8299,3.786,3.8546,3.9815,4.1779,4.2574,4.3113,4.3425,4.3233,4.2305,4.0688,4.054,3.9608,3.8052,3.8695,3.894,3.8895,4.0353,4.1337,4.2011,4.2831,4.316,4.3196,4.3342,4.2854,4.2229,4.3796,4.4104,4.3989,4.5707,4.6664,4.7085,4.7085,4.6464,4.5551,4.4748,4.2921,0.0,0.0,0.0,0.0,0.0,0.0,0.0,0.0,0.0,0.0,0.0,0.0,0.0,0.0,0.0,0.0,0.0,0.0,0.0,5.2908,5.5159,5.7251,5.9435,5.9657,5.9528,5.9401,5.9215,5.944,6.0248,5.9591,5.9403,6.006,5.957,5.9248,5.9248,5.9337,0.0,5.9389,5.9389,5.8957,5.811,5.7448,5.6731,5.5923,0.0,0.0,5.5227,5.5037,5.516,5.5458,5.5554,5.5588,5.555,5.4951,5.3818,5.2385,5.2231,5.1664,5.0818,4.9779,4.9011,4.8377,0.0,0.0,0.0,0.0,0.0,0.0,0.0,3.3657,3.4859,3.7461,3.8104,3.845,3.8919,3.8535,3.7704,3.64,3.5905,3.6642,3.9008,3.9797,4.0919,4.2553,4.3194,4.3369,4.2928,4.2346,4.1544,4.0538,4.0139,3.9475,3.8534,3.8508,3.8731,3.9192,3.997,4.0737,4.1645,4.285,4.3387,4.3424,4.3849,4.3728,4.3333,4.4418,4.5108,4.5729,4.7623,4.8857,4.9554,4.9554,4.9297,4.8727,4.7498,4.5861,4.4149,0.0,0.0,0.0,0.0,0.0,0.0,0.0,0.0,0.0,0.0,0.0,0.0,0.0,0.0,4.8628,0.0,0.0,5.3465,5.5792,5.6982,5.83,6.0176,6.0073,5.9717,5.9437,5.9389,5.9578,5.9975,5.9653,5.9578,5.9975,5.982,5.976,5.976,5.9962,5.9912,5.9455,5.9874,5.9264,5.7572,5.7572,5.6976,5.5704,5.5298,5.5199,5.5399,5.5399,5.5531,5.5703,5.5703,5.5472,5.5021,5.3802,5.2807,5.1975,5.1618,5.0937,5.0027,4.9178,4.8375,4.7633,0.0,0.0,0.0,0.0,0.0,0.0,0.0,3.4062,3.5231,3.703,3.7126,3.7045,3.7116,3.6302,3.521,3.3826,3.3864,3.5648,3.9669,4.0732,4.1886,4.3366,4.3759,4.3465,4.2432,4.1472,4.0904,4.0658,4.0,3.9562,3.9365,3.8803,3.8852,3.9403,3.9821,4.0412,4.1166,4.2838,4.3567,4.3605,4.4334,4.4612,4.4621,4.4639,4.567,4.7277,4.8716,4.9787,5.0562,5.0709,5.0672,5.0303,4.9141,4.789,4.6461,4.451,4.431,0.0,0.0,0.0,0.0,0.0,0.0,0.0,0.0,0.0,4.7113,4.934,5.0506,5.1548,5.302,5.4395,5.5961,5.7977,5.8319,5.8896,6.055,6.005,5.9473,5.9435,5.9582,5.9658,5.9658,5.9658,5.9658,5.9658,6.0006,6.0255,6.0255,6.0405,6.0242,5.9511,6.0012,5.9242,5.7022,5.7703,5.7242,5.5703,5.5703,5.5703,5.5703,5.5703,5.5703,5.5675,5.5563,5.5075,5.4207,5.2733,5.2024,5.1798,5.112,5.0176,4.9104,4.8535,4.7856,4.7112,0.0,0.0,0.0,0.0,0.0,0.0,0.0,0.0,3.5159,3.696,3.7207,3.7219,3.7265,3.6483,3.5851,3.5615,3.6183,3.8043,4.157,4.2624,4.3519,4.4472,4.4453,4.3666,4.2105,4.1809,4.1176,4.0185,4.007,3.954,3.8546,3.9177,3.9139,3.8622,4.0825,4.187,4.2058,4.3731,4.4461,4.4461,4.4574,4.4612,4.4599,4.4595,4.5608,4.7136,4.8018,4.8867,4.9671,5.046,5.0197,4.9649,5.0243,4.9363,4.7763,4.6064,4.5114,4.4197,4.2373,4.3127,4.5079,4.7512,4.8074,4.8933,0.0,0.0,5.3263,5.4622,5.5599,5.6033,5.5467,5.5517,5.6209,5.8,5.8319,5.8896,6.055,6.005,5.9488,5.9482,6.0174,6.0634,6.0634,6.0634,6.0634,6.0634,6.0671,6.0734,6.0734,6.0027,5.9588,5.9511,5.8896,5.805,5.7022,5.7099,5.6676,5.5703,5.5703,5.5703,5.5703,5.5703,5.5703,5.5686,5.5082,5.4381,5.3635,5.2686,5.1836,5.1053,5.0257,4.8997,4.7726,4.8271,4.7993,4.7242,0.0,0.0,0.0,0.0,0.0,0.0,0.0,0.0,0.0,3.624,3.6323,3.6177,3.5732,3.4937,3.4407,3.4374,3.6085,3.8161,4.0535,4.249,4.3877,4.4677,4.4632,4.3826,4.2112,4.2017,4.1484,4.052,4.052,4.0256,3.9802,3.9569,3.986,4.0513,4.0968,4.1743,4.2774,4.393,4.4427,4.4465,4.4961,4.5191,4.5191,4.5191,4.5611,4.6233,4.6603,4.7255,0.0,4.8384,4.8572,4.8708,4.9129,4.862,4.7466,4.5606,4.548,4.5785,4.5059,4.597,0.0,0.0,4.9428,5.1014,5.3227,5.3618,5.392,5.5374,5.6406,5.6907,5.6522,5.6857,5.7588,0.0,5.8165,5.8127,5.9819,5.8896,5.8242,5.8742,5.9127,5.9511,6.0012,5.9627,5.9742,6.0742,5.9896,5.955,6.0012,5.9242,5.8588,5.805,5.8204,5.7627,5.6252,5.6252,5.5853,5.5103,5.5121,5.5161,5.5265,5.5738,5.5699,5.5157,5.387,5.3124,5.2757,5.1472,5.0754,5.0332,4.9599,4.8571,4.7526,4.7786,4.7374,4.671,0.0,0.0,0.0,0.0,0.0,0.0,0.0,0.0,0.0,0.0,3.5683,3.5379,3.4584,3.3974,3.3611,3.3611,3.56,3.7653,3.9567,4.1906,4.3572,4.4358,4.4634,4.4062,4.2542,4.2478,4.2152,4.1525,4.1525,4.1525,4.1482,4.0825,4.1163,4.2355,4.1899,4.2342,4.3571,4.4382,4.4731,4.4762,4.5417,4.5646,4.5594,4.5594,4.5325,4.4965,4.5217,4.571,4.619,4.619,4.6556,4.7111,4.7403,4.7248,4.6702,4.5238,4.5621,4.6586,4.6808,0.0,0.0,4.9115,5.0885,5.2856,5.3703,5.4087,5.4587,5.5818,5.656,5.6983,5.6983,5.7319,5.7934,5.9011,5.8165,5.7857,5.9319,5.8242,5.7511,5.7896,5.7742,5.7896,5.8742,5.8511,5.8896,6.0319,5.9127,5.855,5.9127,5.8424,5.7706,5.7089,5.7265,5.6763,5.5489,5.5257,5.4873,5.4396,5.441,5.444,5.4547,5.5213,5.504,5.4173,5.2883,5.2126,5.1651,5.0777,4.9975,4.9313,4.9021,4.8203,4.7226,4.7133,4.6749,4.6289,0.0,0.0,0.0,0.0,0.0,0.0,0.0,0.0,0.0,0.0,0.0,0.0,0.0,3.4474,3.4474,3.4474,3.5263,3.6865,3.9445,4.1313,4.2746,4.3603,4.4449,4.4454,4.3554,4.3413,4.3366,4.3327,4.3327,4.3327,4.3327,4.3284,4.3323,4.3401,4.421,4.4595,4.4712,4.552,4.5797,4.577,4.577,4.5703,4.5594,4.5594,4.4586,4.3278,4.4068,4.4367,4.4367,4.4367,4.4406,4.456,4.5414,4.5692,4.5654,4.5568,4.5615,4.5825,4.6663,0.0,4.9769,5.1385,5.3126,5.4626,5.5434,5.6291,5.6907,5.6945,5.6983,5.6983,5.6983,5.6329,5.6357,5.805,5.828,5.855,5.9396,5.8781,5.7973,5.7137,5.628,5.6126,0.0,5.7819,5.8627,5.9473,5.8781,5.8319,5.8357,5.7641,5.7224,5.7185,5.5773,5.4964,5.4925,5.4102,5.363,5.3636,5.3636,5.3641,5.3641,5.3685,5.3282,5.2554,5.2515,5.1654,5.0312,5.1054,4.9883,4.7734,4.8594,4.7851,4.6328,4.6328,4.6328,4.6289,0.0,0.0,0.0,0.0,0.0,0.0,0.0,0.0,0.0,0.0,0.0,0.0,0.0,0.0,0.0,0.0,3.604,3.7173,3.862,4.0403,4.1746,4.2565,4.4079,4.4488,4.3629,4.4176,4.4163,4.3616,4.3616,4.3616,4.3615,4.3546,4.3838,4.434,4.4596,4.4993,4.5495,4.5802,4.5896,4.5857,4.5857,4.5831,4.578,4.578,4.4771,4.3336,0.0,4.2853,4.1785,4.1785,4.2162,4.2777,4.3662,4.3547,4.3201,4.3778,4.4748,4.5902,4.7317,4.8933,5.0664,5.2356,5.3203,5.3857,5.4703,5.4664,5.4472,5.4472,5.401,5.3626,5.3626,5.3857,5.4587,5.628,5.7049,5.7769,5.8713,5.8596,5.7925,5.6628,5.7201,0.0,0.0,0.0,0.0,5.8723,5.7496,5.6988,5.7676,5.6971,5.6265,5.5676,5.5186,5.4624,5.4035,5.318,5.2796,5.2866,5.2962,5.3295,5.3842,5.3256,5.256,5.1751,5.1204,5.0349,4.9297,4.9023,4.8359,4.7578,4.7305,4.6836,4.6289,4.62,4.6153,4.6195,0.0,0.0,0.0,0.0,0.0,0.0,0.0,0.0,0.0,0.0,0.0,0.0,0.0,0.0,0.0,0.0,0.0,3.6823,3.7686,3.9095,4.0287,4.1107,4.264,4.3222,4.2634,4.3216,4.3383,4.3147,4.3196,4.3511,4.4136,4.4098,4.4554,4.5332,4.5304,4.5557,4.6022,4.6022,4.6005,4.5939,4.5624,4.5484,4.5451,4.5136,4.3968,0.0,4.2455,4.1461,4.0204,4.0486,4.0959,4.1485,4.1994,4.2218,4.2408,4.3013,4.4619,4.652,4.8261,4.9962,5.1664,5.3395,5.3821,5.3967,5.4508,5.3967,5.334,5.334,5.2391,5.1643,5.1903,5.2183,5.2829,5.4179,5.5209,5.6205,5.7467,5.7373,5.7197,5.7081,5.7759,0.0,0.0,0.0,0.0,5.8032,5.7077,5.6589,5.6959,5.6549,5.6026,5.5437,5.489,5.4323,5.3735,5.2568,5.2007,5.2085,5.1911,5.2109,5.2617,5.1758,5.1055,5.0469,4.9961,4.9258,4.8437,4.8164,4.7695,4.7109,4.6794,4.6518,4.6203,4.608,4.6014,4.602,0.0,0.0,0.0,0.0,0.0,0.0,0.0,0.0,0.0,0.0,0.0,0.0,0.0,0.0,0.0,0.0,0.0,0.0,3.6577,3.762,3.8523,3.9293,4.0325,4.0889,4.0889,4.0896,4.1282,4.2089,4.2244,4.3168,4.4805,4.4877,4.5351,4.6172,4.6172,4.6172,4.6172,4.6172,4.6087,4.5898,4.5076,4.4727,4.4565,4.3782,4.2424,4.0953,4.0991,4.0485,3.9883,4.0493,4.0754,4.0802,4.0721,4.1879,4.3313,4.3553,4.5339,4.7639,4.9395,5.1103,5.2772,5.4407,5.4829,5.4819,5.478,5.4074,5.3408,5.3408,5.1981,5.0942,0.0,0.0,5.1206,5.2043,5.3107,5.4414,5.6069,5.5675,5.6114,0.0,0.0,0.0,0.0,0.0,0.0,5.7453,0.0,5.703,5.6251,5.6354,5.6355,5.6277,5.4798,5.3945,5.3867,5.2226,5.1406,5.1406,5.0586,5.0195,5.0156,4.9297,4.8867,4.8828,4.8828,4.832,4.7578,4.8398,4.7773,4.6366,4.7043,4.6828,4.6077,4.5952,4.587,4.587,0.0,0.0,0.0,0.0,0.0,0.0,0.0,0.0,0.0,0.0,0.0,0.0,0.0,0.0,0.0,0.0,0.0,0.0,3.5808,3.721,3.813,3.8362,3.9901,4.0757,4.0757,4.0856,4.1282,4.2089,4.2114,4.2705,4.3792,4.3815,4.3968,4.4276,4.4276,4.4328,4.4375,4.4375,4.4335,4.4294,4.4059,4.3978,4.4012,4.4441,4.3896,4.3037,4.3701,4.3334,4.2395,4.1221,4.1691,4.281,4.3447,4.3962,4.4569,4.5931,4.7177,4.853,5.0315,5.1989,5.339,5.3807,5.3929,5.3774,5.3107,5.1823,5.0768,5.0768,4.9381,4.8194,0.0,0.0,0.0,5.298,5.558,0.0,5.8999,5.9556,0.0,5.9123,0.0,6.0182,5.9167,5.9987,0.0,0.0,5.7097,5.662,5.6508,5.6517,5.5934,5.4644,5.4218,5.3398,5.207,5.1601,5.1406,5.1406,5.0586,5.0195,5.0156,4.9297,4.8555,4.793,4.784,4.7281,4.6497,4.661,4.6388,4.6034,4.6208,4.6158,4.5948,4.5864,4.5846,4.5828,0.0,0.0,0.0,0.0,0.0,0.0,0.0,0.0,0.0,0.0,0.0,0.0,0.0,0.0,0.0,0.0,0.0,0.0,0.0,3.6923,3.743,3.743,3.8781,3.9341,3.8955,3.9403,3.9645,3.9717,4.0548,4.1353,4.2208,4.2641,4.3081,4.3515,4.3515,4.3552,4.3664,4.3664,4.3669,0.0,0.0,4.3359,4.3711,4.3828,4.3789,4.375,4.4258,4.4568,4.4675,4.403,4.4139,4.4635,4.5211,4.5872,4.6596,4.725,0.0,4.9552,5.0876,5.2203,5.3292,5.3679,5.3487,5.2863,5.1651,5.0636,4.9742,4.8998,4.7726,0.0,4.7235,0.0,0.0,0.0,0.0,0.0,5.8961,5.9278,5.9598,0.0,6.0781,0.0,5.9805,6.0273,5.9844,0.0,5.7728,5.7335,5.664,5.625,5.5586,5.4609,5.3828,5.2773,5.1406,5.1406,5.1406,5.1406,5.0503,4.9913,4.9523,4.8569,4.766,4.6841,0.0,4.6472,4.6001,4.5948,4.5879,4.5914,4.5857,4.5875,4.5859,4.5768,4.5696,4.5719,0.0,0.0,0.0,0.0,0.0,0.0,0.0,0.0,0.0,0.0,0.0,0.0,0.0,0.0,0.0,0.0,0.0,0.0,0.0,0.0,3.6885,3.6885,3.7584,3.77,3.7046,3.7546,3.7507,3.6885,3.8331,3.9569,4.051,4.1364,4.2157,4.2879,4.2879,4.2932,4.3077,4.3077,4.3141,4.324,4.2499,4.2734,4.3437,0.0,4.3125,4.3906,4.3984,4.5039,4.6484,4.7578,4.7323,4.6638,4.7026,4.8041,4.8966,4.8436,4.9258,5.0508,5.1211,5.2031,5.2812,5.3359,5.3008,5.2109,5.0391,4.9922,4.9414,4.7891,0.0,4.6378,4.7118,4.8058,4.9114,5.0323,0.0,5.5312,5.8008,5.7734,5.8398,6.1367,6.1015,6.0547,6.039,5.9765,5.8945,5.7969,5.8594,5.832,5.668,5.5898,5.5351,5.5117,5.3437,5.2148,5.1366,5.1365,5.1363,5.1363,5.0317,4.9393,4.8655,4.7521,4.6614,4.5918,0.0,0.0,4.5896,4.5877,4.5872,4.5857,4.5803,4.5782,4.5761,4.5624,4.5594,4.5594,0.0,0.0,0.0,0.0,0.0,0.0,0.0,0.0,0.0,0.0,3.485,0.0,0.0,0.0,0.0,0.0,0.0,0.0,0.0,0.0,0.0,3.7777,3.793,3.8277,3.8854,3.7584,3.7199,3.7777,3.7389,3.7987,3.9536,3.9718,3.9895,4.01,4.01,4.0174,4.0276,4.0276,4.0669,4.1305,4.1246,4.177,4.2594,4.324,0.0,0.0,4.5586,4.6055,4.6641,4.8984,4.9648,4.9723,5.1133,5.1289,5.1054,5.164,5.1523,5.1211,5.1367,5.2031,5.2383,5.1172,5.125,5.1172,4.9492,4.8555,0.0,0.0,4.6875,4.6327,4.6444,4.7772,4.9843,5.2811,0.0,0.0,0.0,0.0,6.1055,0.0,0.0,0.0,0.0,0.0,0.0,0.0,0.0,0.0,5.664,5.6445,5.5703,5.4258,5.2447,5.1375,5.1256,5.1197,5.1152,5.1113,4.9543,4.8677,4.8483,4.6865,4.6035,4.5914,0.0,0.0,4.5815,4.5703,4.5673,4.5665,4.5624,4.5616,4.5646,4.5612,4.5594,4.5594,0.0,0.0,0.0,0.0,0.0,0.0,0.0,0.0,0.0,0.0,3.7279,3.7904,0.0,0.0,0.0,0.0,0.0,0.0,0.0,0.0,0.0,0.0,3.8146,3.8243,3.7745,3.7955,3.7815,3.7315,0.0,3.8469,3.9323,3.9746,3.9952,3.9959,3.9959,4.0054,4.015,3.9694,3.9997,4.0785,4.0406,4.132,4.2919,0.0,0.0,0.0,4.6042,4.6519,4.7226,4.8861,4.9716,5.0382,5.2148,5.2734,5.2656,5.2187,5.1719,5.1328,5.0898,5.1094,5.1094,4.9844,4.9805,4.9531,4.7344,0.0,0.0,0.0,4.5976,4.6289,4.6289,4.7734,0.0,5.168,5.3828,0.0,0.0,0.0,0.0,0.0,0.0,0.0,0.0,0.0,0.0,0.0,0.0,0.0,5.6507,5.5589,5.4242,5.2525,5.1629,5.1136,5.1136,5.1122,5.1089,5.1089,5.0165,4.927,4.8382,4.7469,4.6577,4.5725,4.5711,0.0,4.5704,4.5637,4.5594,4.5594,4.5594,4.5594,4.5594,4.5594,4.5594,4.5594,0.0,0.0,0.0,0.0,0.0,0.0,0.0,3.5459,3.6743,3.8689,3.9643,4.0267,4.0634,4.0695,4.0754,0.0,0.0,0.0,0.0,0.0,0.0,0.0,0.0,0.0,3.6519,0.0,0.0,3.6903,3.8339,0.0,0.0,0.0,0.0,0.0,4.0246,4.0212,4.0107,3.9578,3.9802,0.0,0.0,4.1414,0.0,0.0,0.0,0.0,0.0,4.6569,4.7371,4.8355,4.912,4.995,5.1588,5.2809,5.3397,5.1834,5.1523,5.1484,5.0664,5.0469,5.0234,4.9375,4.9023,4.832,4.6055,4.6484,0.0,4.4687,4.5351,4.6289,4.6289,4.7422,4.875,0.0,5.1875,5.4297,5.7461,0.0,0.0,0.0,0.0,0.0,0.0,0.0,0.0,0.0,0.0,0.0,5.6049,5.4342,5.2728,5.1405,5.1141,5.1047,5.1047,5.0825,5.073,5.073,5.0245,4.932,4.8005,4.7713,4.6855,4.5594,4.5594,0.0,0.0,4.5594,4.5594,4.5594,4.5594,4.5594,4.5594,4.5594,4.5594,4.5594,0.0,0.0,0.0,0.0,0.0,0.0,0.0,3.4601,3.6252,3.9386,4.0487,4.1552,4.302,4.254,0.0,0.0,0.0,0.0,0.0,0.0,0.0,0.0,0.0,0.0,0.0,0.0,0.0,3.7504,3.7924,0.0,0.0,0.0,0.0,0.0,0.0,3.8984,3.8306,3.8999,0.0,0.0,0.0,0.0,0.0,0.0,0.0,0.0,0.0,4.5982,4.6302,4.7977,4.8561,4.8798,4.9746,5.1291,5.2546,5.1609,0.0,0.0,5.1523,5.1289,5.1094,5.0273,4.9492,4.8633,4.7617,0.0,4.6367,4.6094,4.6172,4.6289,4.6289,4.6445,4.7344,4.9805,5.0391,5.2266,5.7226,0.0,0.0,0.0,0.0,0.0,0.0,0.0,0.0,0.0,0.0,0.0,0.0,5.3366,5.2344,5.2188,5.1354,5.0918,5.0918,4.9997,4.9545,4.9545,4.8016,4.719,4.6997,4.6219,4.5748,4.5594,0.0,0.0,0.0,4.5594,4.5594,4.5594,4.5594,4.5594,4.5594,4.5594,4.5594,4.5594,0.0,0.0,0.0,0.0,0.0,0.0,0.0,3.5224,3.678,3.9533,4.0598,4.1699,4.3331,4.3221,4.2868,0.0,0.0,0.0,0.0,0.0,0.0,0.0,0.0,0.0,0.0,0.0,0.0,3.9099,3.9904,0.0,0.0,0.0,0.0,0.0,0.0,3.9823,3.9515,3.9361,0.0,0.0,0.0,0.0,0.0,0.0,0.0,0.0,0.0,0.0,4.5987,4.6652,4.6862,4.6923,4.7178,4.8204,4.9425,5.0186,5.0657,5.0884,5.064,5.0508,5.0252,4.9506,4.8263,4.7129,4.6778,0.0,4.5508,4.5508,4.5937,4.6289,4.6289,4.6289,4.6641,4.7695,4.8281,4.9687,5.2723,5.3951,0.0,0.0,0.0,0.0,0.0,0.0,0.0,0.0,0.0,0.0,0.0,5.2453,5.1834,5.1339,5.0979,5.0542,5.0002,4.9604,4.9394,4.9394,4.8702,4.8394,4.8394,4.7509,4.6855,4.6355,0.0,0.0,0.0,4.5594,4.5594,4.5594,4.5594,4.5594,4.5594,4.5594,4.5457,4.5283,0.0,0.0,0.0,0.0,0.0,0.0,3.4124,3.5224,3.6853,3.9533,4.0598,4.1699,4.3331,4.3515,4.3294,4.269,0.0,0.0,0.0,0.0,0.0,0.0,0.0,0.0,0.0,0.0,0.0,4.0352,4.1595,4.2508,0.0,0.0,4.22,4.2162,0.0,0.0,0.0,0.0,0.0,0.0,0.0,0.0,0.0,0.0,0.0,0.0,0.0,0.0,0.0,0.0,0.0,4.5718,4.5646,4.6097,4.6957,4.8522,4.9367,4.9803,4.9907,5.0065,5.0057,4.9549,4.808,4.6791,0.0,0.0,4.5258,4.5258,4.5765,4.6196,4.6196,4.6196,4.6196,4.6196,4.6704,4.7867,5.0015,5.1307,0.0,0.0,0.0,0.0,0.0,0.0,0.0,0.0,0.0,0.0,0.0,5.1808,5.1279,5.0712,5.0712,5.0404,4.9779,4.9279,4.9009,4.9009,4.8509,4.8394,4.8625,4.7778,4.7201,4.6846,0.0,0.0,0.0,4.5594,4.555,4.5448,4.5448,4.54,4.5293,4.5293,4.5131,4.4943,0.0,0.0,0.0,0.0,0.0,0.0,0.0,3.3977,3.6178,3.946,4.0598,4.1699,4.3331,4.3515,4.3515,4.3515,0.0,0.0,0.0,0.0,0.0,0.0,0.0,0.0,0.0,0.0,0.0,0.0,0.0,4.3085,4.3085,4.3085,4.3085,4.3047,0.0,0.0,0.0,0.0,0.0,0.0,0.0,0.0,0.0,0.0,0.0,0.0,0.0,0.0,0.0,0.0,0.0,0.0,0.0,4.5594,4.58,4.6834,4.84,4.9785,4.9785,5.0437,5.1094,5.1094,4.9775,4.8491,0.0,4.7129,4.5884,4.5884,4.5884,4.5884,4.5884,4.5884,4.5884,4.5884,4.5923,4.7133,5.0611,5.0927,0.0,0.0,0.0,0.0,0.0,0.0,0.0,0.0,0.0,0.0,0.0,5.1625,5.0712,5.0712,5.0712,5.0712,5.0712,4.8971,4.8125,4.8086,4.6432,4.6086,4.6885,4.6009,4.6086,0.0,0.0,0.0,0.0,4.5594,4.541,4.5115,4.5115,4.4908,4.4624,4.4624,4.4624,4.4612,0.0,0.0,0.0,0.0,0.0,0.0,0.0,3.4307,3.5995,3.8726,3.979,4.1111,4.324,4.3515,4.3515,4.3515,0.0,0.0,0.0,0.0,0.0,0.0,0.0,0.0,0.0,0.0,0.0,0.0,0.0,0.0,0.0,0.0,4.3932,4.3893,4.3047,0.0,0.0,0.0,0.0,0.0,0.0,0.0,0.0,0.0,0.0,0.0,0.0,0.0,0.0,0.0,0.0,0.0,0.0,0.0,0.0,4.5995,4.6908,4.7959,4.8593,4.8914,4.9073,4.9168,4.7908,4.6809,4.7358,4.6235,4.5252,4.5802,4.5879,4.5879,4.5879,4.5879,4.6113,4.6692,4.677,4.7364,0.0,0.0,0.0,0.0,0.0,0.0,0.0,0.0,0.0,0.0,0.0,0.0,0.0,5.0981,5.0712,5.0712,5.0712,5.0404,4.9817,4.924,4.8971,4.8971,4.8432,4.8663,4.9433,4.7971,0.0,0.0,0.0,0.0,0.0,4.5253,4.5044,4.4763,4.4763,4.4701,4.4612,4.4612,4.4414,4.419,0.0,0.0,0.0,0.0,0.0,0.0,0.0,3.4307,3.5775,3.7955,3.9203,4.0708,4.28,4.3331,4.3515,4.3515,0.0,0.0,0.0,0.0,0.0,0.0,0.0,0.0,0.0,0.0,0.0,0.0,0.0,0.0,0.0,0.0,0.0,0.0,4.3932,0.0,0.0,0.0,0.0,0.0,0.0,0.0,4.5594,0.0,0.0,0.0,0.0,0.0,0.0,0.0,0.0,0.0,0.0,0.0,0.0,0.0,4.597,4.6621,4.7534,4.7932,4.8123,4.8191,4.7202,0.0,4.6855,4.5982,4.5175,4.5685,4.5801,4.5801,4.5801,4.5801,4.5956,4.6499,4.6881,4.7456,0.0,0.0,0.0,0.0,0.0,0.0,0.0,0.0,0.0,0.0,0.0,0.0,0.0,0.0,5.0712,5.0712,5.0712,5.0442,4.9894,4.9548,4.9394,4.9394,4.9086,4.9356,5.0164,4.826,0.0,0.0,0.0,0.0,0.0,4.506,4.4688,4.4359,4.4359,4.4313,4.4198,4.4198,4.4035,4.3802,0.0,0.0,0.0,0.0,0.0,0.0,0.0,0.0,0.0,0.0,3.8924,4.0487,4.2103,4.302,4.3515,0.0,0.0,0.0,0.0,0.0,0.0,0.0,0.0,0.0,0.0,0.0,0.0,4.465,4.4943,4.5263,4.5594,0.0,0.0,0.0,0.0,0.0,0.0,0.0,0.0,0.0,4.4979,4.5594,0.0,0.0,0.0,0.0,0.0,0.0,0.0,0.0,0.0,0.0,0.0,0.0,0.0,0.0,0.0,0.0,0.0,4.7355,4.7932,4.7932,4.7355,4.6817,4.6817,4.6163,0.0,4.5594,4.5594,4.5633,4.5671,4.5633,4.5633,4.5748,4.6471,4.7586,0.0,0.0,0.0,0.0,0.0,0.0,0.0,0.0,0.0,0.0,0.0,0.0,0.0,0.0,5.0644,5.0567,5.0586,5.0634,5.0712,4.9875,4.9442,4.9442,4.8616,4.8606,4.9336,4.7286,0.0,0.0,0.0,0.0,0.0,4.4861,4.4318,4.3952,4.3952,4.3791,4.3515,4.3515,4.3515,4.3515,0.0,0.0,0.0,0.0,0.0,0.0,0.0,0.0,0.0,0.0,3.8924,4.0487,4.2103,4.302,0.0,0.0,0.0,0.0,0.0,0.0,0.0,0.0,0.0,0.0,0.0,0.0,0.0,4.4977,4.5044,4.5263,4.5594,4.5594,0.0,0.0,0.0,0.0,0.0,0.0,0.0,0.0,4.5441,4.5594,0.0,0.0,0.0,0.0,4.5594,4.5594,0.0,0.0,0.0,0.0,0.0,0.0,0.0,0.0,4.5594,4.5633,4.5864,0.0,4.621,4.621,4.6047,4.5893,0.0,4.5748,4.5594,4.5594,4.5594,4.5787,4.6471,4.6047,4.6018,4.7317,4.7702,4.8432,0.0,0.0,0.0,0.0,0.0,0.0,0.0,0.0,0.0,0.0,0.0,0.0,0.0,0.0,4.9962,4.9335,4.9607,5.0099,5.0702,5.0189,4.995,4.9912,4.9429,4.9299,4.9413,4.7629,0.0,0.0,0.0,0.0,4.4431,4.4206,4.3943,4.3631,4.3631,4.3563,4.3515,4.3515,4.3515,4.3515,0.0,0.0,0.0,0.0,0.0,0.0,0.0,0.0,0.0,0.0,0.0,0.0,0.0,0.0,0.0,0.0,0.0,0.0,0.0,0.0,0.0,0.0,0.0,0.0,0.0,0.0,0.0,0.0,0.0,4.5263,0.0,0.0,0.0,0.0,0.0,0.0,0.0,0.0,0.0,0.0,4.5441,0.0,0.0,0.0,0.0,0.0,4.5594,4.5594,0.0,4.5594,4.5594,4.5594,0.0,0.0,0.0,0.0,4.5594,4.5594,4.5594,4.6172,4.674,4.674,4.674,4.674,4.674,4.6172,4.5594,4.5594,4.5594,4.5748,4.6201,4.624,4.6509,4.7394,4.8548,0.0,0.0,0.0,0.0,0.0,0.0,0.0,0.0,0.0,0.0,0.0,0.0,0.0,0.0,0.0,4.9618,4.92,4.9377,4.9511,4.9598,4.9746,4.9832,4.9832,4.9589,4.9489,4.9451,4.7634,0.0,0.0,0.0,0.0,4.4293,4.3923,4.3644,4.3515,4.3515,4.3515,4.3515,4.3515,4.3515,4.3515,0.0,0.0,0.0,0.0,0.0,0.0,0.0,0.0,0.0,0.0,0.0,0.0,0.0,0.0,0.0,0.0,0.0,0.0,0.0,0.0,0.0,0.0,0.0,0.0,4.4638,4.4688,0.0,0.0,0.0,0.0,0.0,0.0,4.5594,0.0,0.0,0.0,0.0,0.0,0.0,0.0,4.5287,0.0,0.0,0.0,0.0,0.0,0.0,0.0,0.0,4.5594,4.5594,4.5594,4.5594,0.0,0.0,0.0,0.0,0.0,4.5748,4.7124,4.8394,4.8009,4.8009,4.8086,4.7932,4.6701,4.5594,4.5594,4.5594,4.5671,4.5941,4.6471,0.0,0.0,0.0,0.0,0.0,0.0,0.0,0.0,0.0,0.0,0.0,0.0,0.0,0.0,0.0,0.0,0.0,0.0,0.0,4.9227,4.9266,4.8912,4.8115,4.8972,4.9326,4.9227,4.9153,4.9123,4.9085,4.7095,4.6599,0.0,0.0,0.0,4.4452,4.3791,4.3515,4.3515,4.3515,4.3515,4.3515,4.3515,4.3515,4.3515,0.0,0.0,0.0,0.0,0.0,0.0,0.0,0.0,0.0,0.0,0.0,0.0,0.0,0.0,0.0,0.0,0.0,0.0,0.0,0.0,0.0,0.0,4.4709,4.4537,4.5,4.5011,4.5191,0.0,0.0,0.0,4.5594,4.5594,4.5594,4.5594,0.0,0.0,0.0,0.0,0.0,4.5402,4.5556,0.0,0.0,0.0,0.0,0.0,0.0,0.0,0.0,4.5594,4.5594,4.5594,4.5594,0.0,0.0,0.0,0.0,0.0,4.6509,4.8471,4.9779,4.7625,4.7586,4.7932,4.7231,4.6317,4.5594,4.5594,4.5594,4.6018,4.7432,4.7278,4.7355,0.0,0.0,0.0,0.0,0.0,0.0,0.0,0.0,0.0,0.0,0.0,0.0,0.0,0.0,0.0,0.0,0.0,0.0,4.8023,4.8305,4.8089,4.7278,4.8421,4.8658,4.7986,4.7621,4.7462,4.7408,4.5733,4.5035,0.0,0.0,4.3588,4.3644,4.3551,4.3515,4.3515,4.3515,4.3515,4.3515,4.3515,4.3515,4.3515,0.0,0.0,0.0,0.0,0.0,0.0,0.0,0.0,0.0,0.0,0.0,0.0,0.0,0.0,0.0,0.0,0.0,0.0,0.0,0.0,0.0,4.5586,4.5293,4.5222,4.5381,4.5381,4.5438,0.0,0.0,4.5594,4.5594,4.5594,4.5594,4.5594,0.0,0.0,0.0,0.0,4.5594,4.5594,0.0,0.0,0.0,0.0,0.0,0.0,0.0,0.0,0.0,0.0,4.5594,4.5594,4.5594,0.0,0.0,0.0,0.0,0.0,4.6086,4.8048,4.9702,4.8548,4.9548,5.0779,5.0394,4.9279,4.8211,4.774,4.7663,4.7703,4.7775,0.0,4.9417,5.2032,0.0,0.0,0.0,0.0,0.0,0.0,0.0,0.0,0.0,0.0,0.0,0.0,0.0,0.0,0.0,0.0,0.0,0.0,4.8199,4.7719,4.6471,4.7868,4.8161,4.7385,4.7187,4.6856,4.6434,4.5259,4.4691,4.4672,0.0,4.3515,4.3515,4.3515,4.3515,4.3515,4.3515,4.3515,4.3515,4.3515,4.3515,4.3515,0.0,0.0,0.0,0.0,0.0,0.0,0.0,0.0,0.0,0.0,0.0,0.0,0.0,0.0,0.0,0.0,0.0,0.0,0.0,0.0,4.5594,4.5594,4.5594,4.5594,4.5594,4.5594,4.5594,4.5594,4.5594,4.5594,4.5594,4.5594,4.5594,0.0,0.0,0.0,0.0,4.5594,4.5594,4.5594,0.0,0.0,0.0,0.0,0.0,0.0,0.0,0.0,0.0,0.0,0.0,0.0,0.0,0.0,0.0,4.5594,4.5594,4.5633,4.5864,4.7471,4.9125,4.9356,5.0856,5.2472,5.3049,5.1741,5.0366,5.0317,5.0125,4.9585,0.0,4.9061,0.0,0.0,0.0,0.0,0.0,0.0,0.0,0.0,0.0,0.0,0.0,0.0,0.0,0.0,0.0,0.0,0.0,0.0,0.0,0.0,4.8306,4.7719,4.6471,4.7682,4.7719,4.6526,4.6709,4.6379,4.559,4.4782,4.4415,4.4378,4.3754,4.3515,4.3515,4.3515,4.3515,4.3515,4.3515,4.3515,4.3515,4.3515,4.3515,4.3515,0.0,0.0,0.0,0.0,0.0,0.0,0.0,0.0,0.0,0.0,0.0,0.0,0.0,0.0,0.0,0.0,0.0,0.0,0.0,0.0,4.5594,4.5594,4.5594,4.5594,4.5594,4.5594,4.5594,4.5594,4.5594,4.5594,4.5594,4.5594,4.5594,4.5594,0.0,0.0,0.0,0.0,4.5594,4.5594,4.5594,0.0,0.0,0.0,0.0,0.0,0.0,0.0,0.0,0.0,0.0,0.0,0.0,0.0,4.5594,4.5594,4.5594,4.5787,4.6586,4.7509,4.8394,4.9202,4.9548,5.0279,5.2664,5.1279,5.0164,5.2433,5.2269,5.1352,0.0,4.9719,5.0136,0.0,0.0,0.0,0.0,0.0,0.0,0.0,0.0,0.0,0.0,0.0,0.0,0.0,0.0,0.0,0.0,0.0,0.0,0.0,0.0,4.8233,4.8122,4.8233,4.7168,4.4874,4.5626,4.5553,4.4764,4.3938,4.3571,4.3588,4.3551,4.3515,4.3515,4.3515,4.3515,4.3515,4.3515,4.3515,4.3515,4.3515,4.3515,4.3515,0.0,0.0,0.0,0.0,0.0,0.0,0.0,0.0,0.0,0.0,0.0,0.0,0.0,0.0,0.0,0.0,0.0,0.0,0.0,0.0,4.5594,4.5594,4.5594,4.5364,4.4778,4.5325,4.5594,4.5594,4.5594,4.5594,4.5594,4.5594,0.0,0.0,0.0,0.0,0.0,0.0,4.5594,4.5594,4.5594,4.5594,0.0,0.0,0.0,0.0,0.0,0.0,0.0,0.0,4.5594,4.5594,4.5594,4.5594,4.5594,4.5594,4.5594,4.5671,4.6009,4.7471,4.8856,4.8625,4.9227,5.0572,5.3353,5.3664,5.3535,5.4226,5.4522,5.4001,0.0,0.0,0.0,0.0,0.0,0.0,0.0,0.0,0.0,0.0,0.0,0.0,0.0,0.0,0.0,0.0,0.0,0.0,0.0,0.0,0.0,0.0,0.0,4.8086,4.7553,4.7553,4.6599,4.4709,4.5516,4.5223,4.3938,4.3644,4.3515,4.3515,4.3515,4.3515,4.3515,4.3515,4.3515,4.3515,4.3515,4.3515,4.3534,4.4048,4.3938,4.3588,0.0,0.0,0.0,0.0,0.0,0.0,0.0,0.0,0.0,0.0,0.0,0.0,0.0,0.0,0.0,0.0,0.0,0.0,0.0,4.447,4.494,4.5171,4.494,4.4786,4.4701,4.5017,4.521,4.521,4.5479,4.5594,4.5594,0.0,0.0,0.0,0.0,0.0,0.0,0.0,4.5594,4.5594,4.5594,4.5594,0.0,0.0,0.0,0.0,0.0,0.0,0.0,0.0,4.5594,4.5594,4.5594,4.5594,4.5594,4.5594,4.5787,4.6009,4.6009,4.7184,4.8393,4.8335,4.9102,5.0685,5.3772,5.4713,5.511,5.5936,5.5601,5.4698,5.3196,0.0,0.0,0.0,0.0,0.0,0.0,0.0,0.0,0.0,0.0,0.0,0.0,0.0,0.0,0.0,0.0,0.0,0.0,0.0,0.0,0.0,0.0,4.7883,4.7113,4.7113,4.6305,4.4709,4.5259,4.4819,4.3515,4.3515,4.3515,4.3515,4.3515,4.3515,4.3515,4.3754,4.3864,4.3864,4.3625,4.3515,4.3588,4.4121,4.4121,4.3901,0.0,0.0,0.0,0.0,0.0,0.0,0.0,0.0,0.0,0.0,0.0,0.0,0.0,0.0,0.0,0.0,0.0,0.0,0.0,4.3085,4.3431,4.4239,4.3547,4.3893,4.5556,4.4739,4.4316,4.4316,4.5171,4.5594,4.5633,4.6509,0.0,0.0,0.0,0.0,0.0,0.0,0.0,0.0,4.5594,4.5594,4.5594,0.0,0.0,0.0,0.0,0.0,0.0,0.0,4.5594,4.5594,4.5594,4.5594,4.5594,4.5594,4.6201,4.6885,4.6885,4.6597,4.6717,4.8386,4.9108,5.0297,5.3628,5.3795,5.415,5.7519,5.5275,5.2956,5.3684,0.0,0.0,0.0,0.0,0.0,0.0,0.0,0.0,0.0,0.0,0.0,0.0,0.0,0.0,0.0,0.0,0.0,0.0,0.0,0.0,0.0,0.0,0.0,4.7113,4.7113,4.6305,4.4709,4.4691,4.4268,4.3515,4.3515,4.3515,4.3515,4.3515,4.3515,4.3534,4.4378,4.4691,4.4635,4.3791,4.3515,4.3515,4.3515,4.4011,4.4599,0.0,0.0,0.0,0.0,0.0,0.0,0.0,0.0,0.0,0.0,0.0,0.0,0.0,0.0,0.0,0.0,0.0,0.0,0.0,4.2431,4.2931,4.2547,4.3431,4.3893,4.3855,4.4124,4.4586,4.521,4.5479,4.5594,0.0,0.0,0.0,4.6009,0.0,0.0,4.597,4.571,0.0,4.5594,4.5594,4.5594,0.0,0.0,0.0,0.0,0.0,0.0,0.0,0.0,0.0,0.0,4.5594,4.6009,4.6394,4.5787,4.6004,4.6403,4.6079,4.6424,4.7024,4.7717,4.9367,5.1211,5.2728,5.4054,5.5463,5.7342,5.6134,5.4822,5.5023,0.0,0.0,0.0,0.0,0.0,0.0,0.0,0.0,0.0,0.0,0.0,0.0,0.0,0.0,0.0,0.0,0.0,0.0,0.0,0.0,0.0,0.0,0.0,4.7976,4.7369,4.6562,4.5553,4.4966,4.4268,4.3515,4.3515,4.3515,4.3515,4.3515,4.3515,4.3515,4.3754,4.3864,4.3828,4.3571,4.3515,4.3662,4.4782,4.4599,4.3975,0.0,0.0,0.0,0.0,0.0,0.0,0.0,0.0,0.0,0.0,4.1162,4.1623,0.0,0.0,0.0,0.0,0.0,0.0,0.0,0.0,4.2008,4.1808,4.2777,4.3393,4.3585,4.4393,4.5056,4.5594,0.0,0.0,0.0,0.0,4.6932,4.6163,0.0,4.6701,0.0,0.0,4.5402,4.5133,4.5479,4.5594,4.5594,0.0,0.0,0.0,0.0,0.0,0.0,0.0,0.0,0.0,4.5594,4.597,4.6355,4.6163,4.6186,4.6457,4.7141,4.7339,4.7761,4.955,5.1078,5.2472,5.3894,5.5188,5.6442,0.0,5.6571,5.5684,5.6014,0.0,0.0,0.0,0.0,0.0,0.0,0.0,0.0,0.0,0.0,0.0,0.0,0.0,0.0,0.0,0.0,0.0,0.0,0.0,0.0,0.0,0.0,0.0,4.781,4.7039,4.6214,4.5406,4.4599,4.3975,4.3515,4.3515,4.3515,4.3515,4.3515,4.3681,4.3938,4.3625,4.3681,4.3975,4.3975,4.3975,4.4121,4.5406,4.548,4.5039,0.0,0.0,0.0,0.0,0.0,0.0,0.0,0.0,0.0,0.0,4.097,4.0847,0.0,0.0,0.0,0.0,0.0,0.0,0.0,0.0,4.0854,4.1662,4.1885,4.2777,4.4393,4.521,4.5594,0.0,0.0,0.0,0.0,4.724,4.7548,4.6817,0.0,4.7048,4.5479,4.5556,4.5094,4.4393,4.5248,4.5594,4.5594,4.5594,0.0,0.0,0.0,0.0,0.0,0.0,0.0,0.0,4.5594,4.5615,4.579,4.6511,4.6546,4.6839,4.9111,4.8767,4.8716,5.2679,5.3575,5.4142,5.6381,5.6932,5.7116,5.7776,0.0,5.6051,0.0,0.0,0.0,0.0,0.0,0.0,0.0,0.0,0.0,0.0,0.0,0.0,0.0,0.0,0.0,0.0,0.0,0.0,0.0,0.0,0.0,0.0,0.0,0.0,4.7113,4.6361,4.559,0.0,4.3975,4.3588,4.3515,4.3515,4.3515,4.3515,4.3515,4.3901,4.4525,4.3791,4.3938,4.4599,4.4654,4.4691,4.4801,4.57,4.6434,4.6892,0.0,0.0,0.0,0.0,0.0,0.0,0.0,0.0,0.0,0.0,0.0,0.0,0.0,0.0,0.0,0.0,0.0,0.0,0.0,0.0,4.0593,4.0785,4.2701,4.4239,4.5287,0.0,0.0,0.0,0.0,0.0,4.5633,4.6663,4.6701,4.5932,0.0,4.6201,4.4624,4.5325,4.5094,4.4393,4.5248,4.5594,4.5594,4.5594,4.5594,0.0,0.0,0.0,0.0,0.0,0.0,0.0,4.5594,4.5841,4.6052,4.5632,4.5963,4.6621,4.7442,4.7911,4.8919,5.2011,5.4441,5.6345,5.7483,5.774,5.7593,5.7152,5.7299,0.0,0.0,0.0,0.0,0.0,0.0,0.0,0.0,0.0,0.0,0.0,0.0,0.0,0.0,0.0,0.0,0.0,0.0,0.0,0.0,0.0,0.0,0.0,0.0,4.7259,4.7113,4.6929,4.6122,0.0,4.4525,4.4121,4.3515,4.3515,4.3515,4.3515,4.3515,4.3625,4.3718,4.3588,4.3625,4.3828,4.4452,4.4691,4.4874,4.6305,4.6544,4.6214,0.0,0.0,0.0,0.0,0.0,0.0,0.0,0.0,0.0,0.0,0.0,0.0,0.0,0.0,0.0,0.0,0.0,0.0,0.0,0.0,0.0,0.0,4.3778,4.5133,0.0,0.0,0.0,0.0,0.0,0.0,4.624,4.6701,4.6663,4.624,0.0,4.5932,4.4355,4.5248,4.5094,4.4393,4.5248,4.5594,4.5594,4.5594,4.5594,4.5594,4.5594,0.0,0.0,0.0,0.0,0.0,0.0,0.0,4.548,4.543,4.5659,4.6184,4.7529,4.8689,5.0311,5.3736,5.5969,5.7483,5.7886,5.7997,5.7886,5.7446,5.7703,0.0,0.0,0.0,0.0,0.0,0.0,0.0,0.0,0.0,0.0,0.0,0.0,0.0,0.0,0.0,0.0,0.0,0.0,0.0,0.0,4.7883,0.0,0.0,4.7902,4.7663,4.7663,4.6911,4.6104,4.5259,4.4488,4.4121,4.4048,4.3698,4.3718,4.4048,4.3644,4.3515,4.3515,4.3515,4.3515,4.3608,4.4819,4.5259,4.548,4.7076,4.7425,4.7131,0.0,0.0,0.0,0.0,0.0,0.0,0.0,0.0,0.0,0.0,0.0,0.0,0.0,0.0,0.0,0.0,0.0,0.0,0.0,0.0,0.0,0.0,4.471,4.5594,0.0,0.0,0.0,0.0,0.0,4.6201,4.7317,4.6894,4.6701,4.6701,0.0,4.5778,4.4355,4.5248,4.5094,4.4393,4.5248,4.5594,0.0,0.0,0.0,4.5586,4.5541,4.5494,4.5485,4.5448,0.0,0.0,0.0,0.0,4.4632,4.5273,4.529,4.5584,4.7793,4.975,5.2123,5.5868,5.7409,5.7997,5.7997,5.7997,5.7997,5.7997,0.0,0.0,0.0,0.0,0.0,0.0,0.0,0.0,0.0,0.0,0.0,0.0,0.0,0.0,0.0,0.0,0.0,0.0,0.0,0.0,4.8306,4.8049,4.7939,4.8086,4.7829,4.7682,4.7682,4.6361,4.5626,4.548,4.4268,4.4121,4.4892,4.4085,4.4085,4.4672,4.3864,4.3515,4.3515,4.3662,4.3718,4.3864,4.548,4.6104,4.6287,4.7755,4.8306,4.8306,0.0,0.0,0.0,0.0,0.0,0.0,0.0,0.0,0.0,0.0,3.9423,3.9797,0.0,0.0,0.0,0.0,0.0,0.0,0.0,0.0,0.0,0.0,0.0,0.0,0.0,0.0,0.0,0.0,0.0,4.6787,4.9009,4.6817,4.5787,4.5787,0.0,4.5201,4.4355,4.5248,4.5094,4.4393,0.0,0.0,0.0,0.0,0.0,0.0,0.0,4.5169,4.5137,4.4837,4.4714,0.0,0.0,0.0,4.411,4.4222,4.4485,4.4981,4.6011,4.9539,5.3497,5.6161,5.7409,5.7997,5.7997,0.0,5.7997,0.0,0.0,0.0,0.0,0.0,0.0,0.0,0.0,0.0,0.0,0.0,0.0,0.0,0.0,0.0,0.0,0.0,0.0,0.0,0.0,0.0,4.8343,4.6985,4.6544,4.7223,4.5902,4.5186,4.5186,4.4966,4.4525,4.3845,4.4305,4.4966,4.57,4.4929,4.4599,4.4672,4.3864,4.3515,4.3551,4.4268,4.4562,4.4709,4.6305,4.6929,4.7039,4.7976,4.8306,4.8306,0.0,0.0,0.0,0.0,0.0,0.0,0.0,0.0,0.0,0.0,0.0,4.0213,0.0,0.0,0.0,0.0,0.0,0.0,0.0,0.0,0.0,0.0,0.0,0.0,0.0,0.0,0.0,0.0,4.4855,4.5932,4.7971,4.6855,4.7086,0.0,0.0,0.0,0.0,0.0,0.0,0.0,0.0,0.0,0.0,0.0,0.0,0.0,0.0,0.0,0.0,4.4663,4.4441,4.4261,4.4261,0.0,0.0,0.0,4.4203,4.5278,4.7939,5.0215,5.2674,5.5978,5.7079,5.7446,5.7886,5.7997,5.7997,0.0,0.0,0.0,0.0,0.0,0.0,0.0,0.0,0.0,0.0,0.0,0.0,0.0,0.0,0.0,0.0,0.0,0.0,0.0,0.0,4.871,4.8343,4.7186,4.6709,4.7076,4.5993,4.5369,4.5369,4.4929,4.4525,4.4195,4.4525,4.5351,4.6544,4.5736,4.5149,4.4672,4.3864,4.3515,4.3534,4.4378,4.4691,4.4838,4.6452,4.7113,4.7186,4.8012,4.8306,4.8306,0.0,0.0,0.0,0.0,0.0,0.0,0.0,0.0,0.0,0.0,0.0,0.0,0.0,0.0,0.0,0.0,0.0,0.0,0.0,0.0,0.0,0.0,0.0,0.0,0.0,0.0,0.0,4.4008,4.4201,4.5201,4.6885,4.6885,4.8125,0.0,4.8163,4.6971,0.0,0.0,0.0,0.0,0.0,0.0,0.0,0.0,0.0,0.0,0.0,0.0,0.0,0.0,0.0,0.0,0.0,4.3693,0.0,0.0,0.0,4.5149,4.86,4.9848,5.1059,5.4656,5.6051,5.6712,5.7519,0.0,5.7997,0.0,0.0,0.0,0.0,0.0,0.0,0.0,0.0,0.0,0.0,0.0,0.0,0.0,0.0,0.0,0.0,0.0,0.0,0.0,0.0,4.8526,4.8306,4.7553,4.7003,4.6782,4.603,4.5516,4.5296,4.4709,4.4599,4.5002,4.5002,4.5718,4.7076,4.6287,4.5443,4.4654,4.4085,4.3791,4.3864,4.4672,4.5149,4.5461,4.6856,4.7406,4.748,4.8067,4.8306,4.8306,0.0,0.0,0.0,0.0,0.0,0.0,0.0,0.0,0.0,0.0,0.0,0.0,0.0,0.0,0.0,3.6804,0.0,0.0,0.0,0.0,0.0,0.0,0.0,0.0,0.0,0.0,4.3162,4.3162,4.3932,4.5201,4.6885,4.6885,4.7817,4.9433,4.8471,4.7163,4.571,0.0,0.0,0.0,0.0,0.0,0.0,0.0,0.0,0.0,0.0,0.0,0.0,0.0,0.0,0.0,0.0,0.0,0.0,0.0,0.0,0.0,4.5663,4.7278,4.904,5.161,5.398,5.5868,0.0,0.0,0.0,0.0,0.0,0.0,0.0,0.0,0.0,0.0,0.0,0.0,0.0,0.0,0.0,0.0,0.0,0.0,0.0,0.0,0.0,0.0,0.0,4.915,4.8343,4.7553,4.6746,4.5993,4.5186,4.4415,4.3625,4.3588,4.4305,4.5847,4.5847,4.6287,4.7076,4.6287,4.5443,4.4691,4.4672,4.4635,4.4691,4.5516,4.6287,4.7076,4.7883,4.8233,4.8233,4.8269,4.8306,4.8306,0.0,0.0,0.0,0.0,0.0,0.0,0.0,0.0,0.0,0.0,0.0,0.0,0.0,3.9685,3.8732,3.7748,3.7854,0.0,0.0,0.0,0.0,0.0,0.0,0.0,0.0,4.3085,4.3355,4.3855,4.3085,4.4162,4.6885,4.6317,4.6663,4.7778,4.7471,4.7009,4.6432,4.6163,0.0,0.0,0.0,0.0,0.0,0.0,0.0,0.0,0.0,0.0,0.0,0.0,0.0,0.0,0.0,0.0,0.0,0.0,4.3515,4.3845,4.5443,4.6324,4.7462,5.0472,5.227,5.3628,5.495,5.6271,0.0,0.0,0.0,0.0,0.0,0.0,0.0,0.0,0.0,0.0,0.0,0.0,0.0,0.0,0.0,0.0,0.0,0.0,0.0,0.0,0.0,0.0,4.8343,4.7553,4.6966,4.6672,4.5388,4.4305,4.3515,4.3515,4.4322,4.5883,4.5883,4.6324,4.7076,4.6782,4.625,4.548,4.548,4.5186,4.4801,4.6122,4.6819,4.7186,4.7993,4.8306,4.8306,4.8306,4.8055,4.7736,0.0,0.0,0.0,0.0,0.0,0.0,0.0,0.0,0.0,0.0,0.0,0.0,0.0,0.0,3.9941,3.8682,3.847,3.8661,3.9246,4.0315,0.0,0.0,0.0,0.0,0.0,4.2816,4.2931,4.347,4.2354,4.3115,4.5624,4.5009,4.5355,4.6432,4.6163,4.6201,0.0,0.0,0.0,4.54,0.0,0.0,4.4796,0.0,0.0,0.0,0.0,0.0,0.0,0.0,0.0,0.0,0.0,0.0,0.0,0.0,0.0,0.0,4.4782,4.5296,4.6214,4.9224,5.0362,5.1389,5.3849,0.0,0.0,0.0,0.0,0.0,0.0,0.0,0.0,0.0,0.0,0.0,0.0,0.0,0.0,0.0,0.0,0.0,0.0,0.0,0.0,0.0,0.0,0.0,4.8306,4.7773,4.7259,4.6709,4.5388,4.4305,4.3515,4.3515,4.4158,4.5516,4.5516,4.592,4.6709,4.6709,4.6434,4.592,4.6177,4.5883,4.5294,4.6334,4.6973,4.7265,4.7776,4.8114,4.8306,4.8306,4.8055,4.7715,0.0,0.0,0.0,0.0,0.0,0.0,0.0,0.0,0.0,0.0,0.0,0.0,0.0,0.0,0.0,3.956,3.9361,3.94,3.94,4.0931,0.0,0.0,0.0,0.0,0.0,4.2316,4.1885,4.1923,4.1846,4.2316,4.3162,4.3124,4.397,4.5518,4.4662,4.4731,4.553,0.0,4.5802,4.5011,0.0,4.4467,4.5201,0.0,0.0,0.0,4.581,4.5333,0.0,0.0,0.0,0.0,0.0,0.0,0.0,0.0,0.0,0.0,0.0,0.0,0.0,4.7609,4.8233,4.9297,5.3298,0.0,5.3754,0.0,0.0,0.0,0.0,0.0,0.0,0.0,0.0,0.0,0.0,0.0,0.0,0.0,0.0,0.0,0.0,0.0,0.0,0.0,0.0,4.8343,4.8306,4.8306,4.7572,4.5957,4.5149,4.4342,4.3515,4.3515,4.3901,4.4691,4.4691,4.5112,4.5883,4.5883,4.5883,4.5938,4.6727,4.6713,4.6203,4.6224,4.6699,4.7428,4.7385,4.7736,4.8304,4.8304,4.8285,4.8265,0.0,0.0,0.0,0.0,0.0,0.0,0.0,0.0,0.0,0.0,0.0,0.0,0.0,0.0,0.0,4.1242,4.1161,4.1393,4.2008,4.247,4.2739,4.2739,4.3547,4.397,4.397,4.3739,4.3932,4.4547,4.3316,4.347,4.4902,4.3662,4.3662,0.0,4.4164,4.3741,4.3531,4.4853,0.0,0.0,4.4204,4.4147,0.0,0.0,0.0,0.0,0.0,4.4011,0.0,0.0,4.3515,4.3515,0.0,0.0,0.0,0.0,0.0,0.0,4.3515,0.0,0.0,0.0,0.0,0.0,4.9481,5.0288,5.1279,0.0,0.0,0.0,0.0,0.0,0.0,0.0,0.0,0.0,0.0,0.0,0.0,0.0,0.0,0.0,0.0,0.0,0.0,0.0,4.9701,4.8967,4.8343,4.8306,4.7572,4.5957,4.5663,4.4892,4.3497,4.3515,4.3901,4.4691,4.4691,4.4819,4.5039,4.5626,4.5643,4.5276,4.611,4.6175,4.5747,4.6677,4.7456,4.7975,4.7044,4.7402,4.8381,4.7927,4.782,4.7864,0.0,0.0,0.0,0.0,0.0,0.0,0.0,0.0,0.0,0.0,0.0,0.0,0.0,0.0,0.0,4.2437,4.268,4.3047,4.3585,4.3932,4.4124,4.4124,4.4586,4.4855,4.4855,4.447,4.4547,4.5056,4.3739,4.3778,4.5009,4.3519,4.3474,0.0,0.0,0.0,0.0,0.0,0.0,0.0,4.3794,0.0,0.0,4.4446,4.4488,0.0,0.0,0.0,4.4856,4.3828,4.3515,0.0,0.0,0.0,0.0,0.0,0.0,0.0,0.0,0.0,0.0,0.0,0.0,0.0,4.7792,4.8159,4.882,0.0,0.0,0.0,0.0,0.0,0.0,0.0,0.0,0.0,0.0,0.0,0.0,0.0,0.0,0.0,0.0,0.0,0.0,5.1353,5.0235,4.9243,4.8343,4.8306,4.7572,4.5957,4.5883,4.5112,4.3515,4.3515,4.3718,4.4195,4.3962,4.3852,4.3889,4.4752,4.4962,4.4664,4.5809,4.6117,4.5915,4.6401,4.6819,4.7066,4.6329,4.6861,4.8066,4.7748,4.7814,4.812,0.0,0.0,0.0,0.0,0.0,0.0,0.0,0.0,0.0,0.0,0.0,0.0,0.0,0.0,0.0,0.0,4.4047,4.4432,4.4432,4.5171,0.0,0.0,4.5594,4.5594,4.5594,4.4855,4.4432,4.4432,4.3739,4.3731,4.435,4.3196,4.3406,0.0,0.0,0.0,0.0,0.0,0.0,4.2657,4.3262,4.3938,0.0,0.0,4.5626,0.0,4.5626,4.6104,4.6379,4.4232,4.3515,0.0,0.0,0.0,0.0,0.0,4.3515,0.0,0.0,0.0,0.0,0.0,0.0,0.0,4.7241,4.6801,4.6654,4.9738,0.0,0.0,0.0,0.0,0.0,0.0,0.0,0.0,0.0,0.0,0.0,0.0,0.0,0.0,0.0,5.3041,5.2087,5.2013,5.0528,4.9243,4.8343,4.8233,4.7462,4.5957,4.581,4.5039,4.3497,4.3463,4.3391,4.3428,4.2955,4.2704,4.2757,4.3764,4.4208,4.4188,4.5694,4.6246,4.6161,4.5622,4.5468,4.5597,4.5477,4.6298,4.7587,4.7537,4.8015,4.8729,0.0,0.0,0.0,0.0,0.0,0.0,0.0,0.0,0.0,0.0,0.0,0.0,0.0,0.0,0.0,0.0,0.0,4.5364,0.0,0.0,4.5594,4.5594,4.5594,4.5594,4.5594,4.5441,4.5364,4.5364,4.521,4.5064,4.4934,4.3982,4.322,4.2647,0.0,0.0,0.0,0.0,0.0,4.1556,4.2944,0.0,4.3754,4.3901,4.3975,4.3975,4.3975,4.4048,4.4121,0.0,4.3515,4.3515,0.0,0.0,0.0,0.0,0.0,0.0,0.0,0.0,0.0,0.0,0.0,0.0,4.5259,4.5149,4.548,0.0,0.0,0.0,0.0,0.0,0.0,0.0,0.0,0.0,0.0,0.0,0.0,0.0,0.0,0.0,0.0,5.3518,5.2711,5.205,5.0528,4.9243,4.8343,4.77,4.6892,4.592,4.5259,4.4488,4.3515,4.3087,4.2882,4.2863,4.2849,4.286,4.2896,4.4347,4.4706,4.4337,4.5256,4.5399,4.4961,4.4797,4.5346,4.6136,4.5169,4.5966,4.7619,4.714,4.7802,4.8933,0.0,0.0,0.0,0.0,0.0,0.0,0.0,0.0,0.0,0.0,0.0,0.0,0.0,0.0,0.0,0.0,0.0,0.0,0.0,0.0,4.5594,4.5594,4.5594,4.5594,4.5594,4.5594,4.5594,4.5594,4.5594,4.5429,4.5077,4.4463,4.358,4.2439,4.2077,0.0,0.0,0.0,4.2066,4.1809,4.302,0.0,4.3515,4.3515,4.3515,4.3515,4.3515,4.3515,4.3608,4.4415,4.4158,0.0,0.0,4.3515,4.3515,0.0,4.3515,4.3515,0.0,0.0,0.0,4.3515,0.0,0.0,0.0,4.4085,4.4562,4.6177,0.0,0.0,0.0,0.0,0.0,0.0,0.0,0.0,0.0,0.0,0.0,0.0,0.0,0.0,0.0,5.3922,5.2711,5.1499,5.0655,4.9627,4.8379,4.7939,4.7333,4.6544,4.5478,4.462,4.4085,4.3157,4.2827,4.3105,4.3312,4.3202,4.2935,4.4226,4.4451,4.392,4.4727,4.4879,4.4615,4.4615,4.5166,4.5978,4.5375,4.6,4.7244,4.7339,4.8037,4.9018,4.6289,0.0,0.0,0.0,4.6289,0.0,0.0,0.0,0.0,0.0,0.0,0.0,0.0,0.0,0.0,0.0,0.0,0.0,0.0,0.0,0.0,0.0,4.5594,4.5594,4.5594,4.5594,4.5594,4.5594,4.555,4.5313,4.4988,4.4663,4.3863,4.2701,4.2415,0.0,0.0,0.0,0.0,4.2359,0.0,4.3515,4.3515,4.3515,4.3515,4.3515,4.3515,4.3515,4.3698,4.5002,0.0,4.3515,4.3515,4.3515,0.0,0.0,0.0,0.0,0.0,0.0,0.0,0.0,0.0,4.3681,0.0,0.0,0.0,4.5186,0.0,0.0,0.0,0.0,0.0,0.0,0.0,0.0,0.0,0.0,0.0,0.0,0.0,0.0,0.0,5.3922,5.2417,5.1132,5.0729,4.9994,4.8636,4.8122,4.7535,4.6892,4.5527,4.4688,4.4471,4.3266,4.2846,4.3196,4.3592,4.3408,4.2822,4.3915,4.4137,4.3673,4.4316,4.4615,4.4615,4.475,4.5162,4.5703,4.5703,4.6244,4.709,4.7699,4.8376,4.9018,4.6289,4.6289,0.0,0.0,4.6289,0.0,0.0,0.0,0.0,0.0,0.0,0.0,0.0,0.0,0.0,0.0,0.0,0.0,4.8856,0.0,0.0,0.0,0.0,0.0,4.5594,4.5594,4.5594,4.5594,4.5283,4.4977,4.4663,4.4247,4.3472,4.2369,4.2303,0.0,0.0,0.0,4.2286,0.0,4.3167,4.3515,0.0,4.3515,4.3515,4.3515,4.3515,4.3515,4.3551,0.0,4.3662,4.3515,0.0,4.3515,0.0,0.0,0.0,0.0,0.0,0.0,0.0,0.0,4.4048,0.0,0.0,0.0,4.4415,4.3864,0.0,0.0,0.0,0.0,0.0,0.0,0.0,0.0,0.0,0.0,0.0,0.0,0.0,0.0,0.0,0.0,5.205,5.1867,5.0565,4.9647,4.9463,4.7352,4.614,4.603,4.449,4.3665,4.3644,4.3012,4.2462,4.2,4.2847,4.2955,4.2422,4.3905,4.4563,4.4479,4.4581,4.4615,4.4649,4.5297,4.5635,4.5703,4.5703,4.6549,4.777,4.7872,4.8376,4.9018,4.6289,4.6289,0.0,0.0,4.6289,0.0,0.0,0.0,0.0,0.0,0.0,0.0,0.0,0.0,0.0,0.0,0.0,4.9202,0.0,0.0,0.0,0.0,0.0,0.0,0.0,4.5864,4.5594,4.5594,4.5253,4.4931,4.4599,4.419,4.3394,4.2323,4.28,0.0,4.1846,0.0,4.2983,0.0,0.0,0.0,0.0,4.3515,4.3515,4.3515,4.3515,4.3515,4.3515,0.0,4.3515,0.0,0.0,0.0,0.0,0.0,0.0,0.0,0.0,0.0,0.0,0.0,0.0,0.0,0.0,0.0,4.3941,0.0,0.0,0.0,0.0,0.0,0.0,0.0,0.0,0.0,0.0,0.0,0.0,0.0,0.0,0.0,0.0,0.0,0.0,0.0,0.0,4.939,4.8857,4.7139,4.6261,4.6599,4.4389,4.3517,4.4195,4.3284,4.2843,4.2961,4.3905,4.4063,4.3477,4.4601,4.4934,4.4615,4.4615,4.4852,4.5263,4.5568,4.621,4.6989,4.6989,4.7331,4.7939,4.8376,4.8748,4.9018,4.6601,0.0,0.0,0.0,0.0,0.0,0.0,0.0,0.0,0.0,0.0,0.0,5.2569,5.2279,0.0,0.0,0.0,5.1471,0.0,0.0,4.9163,0.0,0.0,0.0,0.0,0.0,4.5559,4.5457,4.5148,4.48,4.4414,4.4028,4.3409,4.2653,0.0,4.3167,4.2653,0.0,0.0,4.3515,4.3515,4.3515,4.3515,4.3515,4.3515,4.3515,4.3515,4.3515,4.3515,4.3515,4.3515,0.0,4.3515,0.0,0.0,0.0,0.0,0.0,4.3515,0.0,0.0,0.0,0.0,0.0,0.0,0.0,0.0,0.0,0.0,0.0,0.0,0.0,0.0,0.0,0.0,0.0,0.0,0.0,0.0,0.0,0.0,0.0,0.0,0.0,0.0,0.0,0.0,0.0,4.8343,4.6812,4.6279,4.7094,4.4798,4.3955,4.4784,4.3914,4.3536,4.3658,4.4528,4.4638,4.4087,4.487,4.5008,4.4615,4.4615,4.4919,4.5432,4.5838,4.665,4.7665,4.8071,4.8206,4.8274,4.8815,4.9018,4.9018,4.7383,4.6875,0.0,0.0,0.0,0.0,0.0,0.0,0.0,0.0,0.0,0.0,0.0,0.0,0.0,0.0,0.0,5.4357,5.4357,0.0,4.9548,0.0,0.0,0.0,0.0,0.0,0.0,4.5126,4.4788,4.4401,4.3998,4.366,4.3478,4.3478,4.3515,4.3515,4.3478,4.3515,4.3515,4.3515,4.3515,4.3515,4.3515,0.0,4.3515,4.3515,4.3515,0.0,0.0,4.3515,4.3515,0.0,0.0,0.0,0.0,0.0,0.0,0.0,0.0,0.0,0.0,0.0,0.0,0.0,0.0,0.0,4.3826,0.0,0.0,0.0,0.0,0.0,0.0,0.0,0.0,0.0,0.0,0.0,0.0,0.0,0.0,0.0,0.0,0.0,0.0,0.0,0.0,0.0,4.8269,4.6226,4.5659,4.7057,4.5678,4.4947,4.4967,4.4947,4.4377,4.3232,4.3954,4.4009,4.3464,4.427,4.4643,4.4615,4.4615,4.4615,4.475,4.6177,4.6786,4.6989,4.8409,4.8951,4.8984,4.8984,4.9018,4.9018,0.0,0.0,0.0,0.0,0.0,0.0,0.0,4.9694,0.0,0.0,0.0,0.0,0.0,0.0,5.7011,0.0,0.0,5.5906,5.5318,5.3433,0.0,0.0,0.0,4.8163,0.0,0.0,0.0,0.0,0.0,4.4387,4.3982,4.3644,4.3515,4.3515,0.0,4.3515,0.0,0.0,0.0,0.0,0.0,4.3515,4.3515,0.0,0.0,4.3515,4.3515,4.3515,0.0,4.3515,4.3515,4.3515,4.3515,4.3515,4.3515,4.3515,4.3515,0.0,0.0,0.0,4.3743,4.3002,0.0,0.0,0.0,0.0,0.0,0.0,0.0,0.0,0.0,0.0,0.0,0.0,0.0,0.0,0.0,0.0,0.0,0.0,0.0,0.0,0.0,0.0,0.0,0.0,0.0,0.0,0.0,4.547,4.5269,4.5738,4.4899,4.4607,4.5019,4.4688,4.4338,4.3929,4.4316,4.4368,4.4181,4.4479,4.4615,4.4649,4.5128,4.5602,4.6109,4.7124,4.7834,4.8308,4.8815,4.9018,4.9018,4.9018,4.9018,4.9018,4.9297,0.0,0.0,0.0,0.0,0.0,0.0,0.0,0.0,0.0,5.4728,0.0,5.7319,0.0,5.8127,0.0,5.8511,5.7599,5.5818,5.4972,0.0,5.1125,5.0279,0.0,0.0,0.0,0.0,0.0,0.0,4.4475,4.3802,4.3597,4.3515,4.3515,4.3515,4.3515,4.3515,0.0,4.3515,0.0,0.0,4.3515,0.0,0.0,4.3515,4.3515,0.0,4.3515,4.3515,4.3515,4.3515,4.3515,4.3515,4.3515,4.3515,4.3515,4.3515,4.3515,4.3515,4.3718,0.0,0.0,4.3235,0.0,0.0,0.0,0.0,0.0,0.0,0.0,0.0,0.0,0.0,0.0,0.0,0.0,0.0,0.0,0.0,0.0,0.0,0.0,0.0,0.0,0.0,4.7167,4.6156,0.0,0.0,0.0,4.5106,4.5171,4.4987,4.4994,4.5187,4.4897,4.4621,4.4395,4.4538,4.4615,4.4615,4.4615,4.4615,4.4649,4.5365,4.5974,4.6481,4.7496,4.8206,4.8646,4.8917,4.9018,4.9018,4.9018,4.9187,4.939,0.0,0.0,0.0,0.0,4.9766,0.0,0.0,0.0,5.3895,0.0,5.6126,5.7396,5.828,5.9088,5.9511,5.9435,6.0204,0.0,5.5972,5.6483,0.0,0.0,5.0317,4.9933,4.8202,0.0,0.0,0.0,0.0,0.0,4.3515,4.3515,4.3515,4.3515,4.3515,0.0,4.3515,4.3515,4.3515,4.3515,4.3515,4.3515,4.3515,4.3515,0.0,4.3515,4.3515,4.3515,4.3515,4.3515,4.3515,4.3515,4.3515,4.3515,4.3515,4.3515,4.3515,4.3515,4.3515,4.4048,4.4327,4.3061,0.0,0.0,0.0,0.0,4.3009,0.0,0.0,0.0,0.0,0.0,0.0,0.0,0.0,0.0,0.0,0.0,0.0,0.0,0.0,0.0,0.0,0.0,4.8088,4.7112,4.5718,4.4642,0.0,0.0,4.5129,4.5242,4.5988,4.6112,4.5494,4.5442,4.5169,4.4649,4.4615,4.4649,4.4716,4.4682,4.4682,4.475,4.55,4.5805,4.594,4.7331,4.7939,4.8007,4.8748,4.9018,4.9018,4.9052,4.9492,5.0101,5.1172,5.1445,5.1914,0.0,5.1797,5.1437,0.0,0.0,0.0,0.0,5.7324,5.828,5.9088,5.9935,5.9973,5.8704,5.8819,0.0,0.0,0.0,0.0,5.2318,5.1818,5.0818,4.9086,4.8105,0.0,4.5782,0.0,0.0,4.3515,4.3515,4.3515,4.3515,4.3515,4.3515,4.3515,4.3515,4.3515,4.3515,4.3515,4.3515,0.0,0.0,4.3515,4.3515,4.3515,4.3515,4.3515,4.3515,4.3515,4.3515,4.3515,4.3515,4.3515,4.3515,4.3515,4.3515,4.3515,4.3662,4.3741,4.3585,4.3539,4.3561,0.0,0.0,0.0,0.0,0.0,0.0,0.0,0.0,0.0,0.0,0.0,0.0,0.0,0.0,0.0,0.0,0.0,0.0,0.0,0.0,4.6654,4.625,4.4919,4.3772,0.0,0.0,0.0,4.4453,4.5681,4.6112,4.5494,4.5035,4.502,4.5399,4.4857,4.519,4.621,4.5669,4.5703,4.6278,4.7022,4.7331,4.7398,4.8342,4.8714,4.8748,4.8951,4.9018,4.9086,4.9627,4.9932,5.0168,5.207,0.0,0.0,5.3906,0.0,0.0,5.4037,0.0,0.0,5.6239,5.7203,0.0,5.8896,5.9742,5.9858,5.8896,5.8819,0.0,0.0,0.0,0.0,5.2731,5.2538,5.1664,5.001,4.8594,0.0,4.6361,0.0,0.0,4.3515,4.3515,4.3515,4.3515,4.3515,4.3515,4.3515,4.3515,4.3515,4.3515,4.3515,0.0,0.0,4.3515,4.3515,4.3515,4.3515,4.3515,4.3515,4.3515,4.3515,4.3515,4.3515,4.3515,4.3515,4.3515,4.3515,4.3515,4.3515,4.3515,4.3555,4.3651,4.3579,4.3485,4.3368,4.3591,4.3614,0.0,0.0,0.0,0.0,0.0,0.0,0.0,0.0,0.0,0.0,0.0,0.0,0.0,0.0,0.0,0.0,0.0,4.5755,4.6001,4.5009,0.0,0.0,0.0,0.0,4.3388,4.5376,4.6212,4.5569,4.5592,4.5771,4.6177,4.5737,4.5974,4.6786,4.638,4.6413,4.6819,4.7597,4.7906,4.7973,4.9052,4.9289,4.9052,4.9357,4.9695,5.0067,5.0777,5.0845,5.0676,0.0,0.0,0.0,0.0,0.0,0.0,0.0,5.5386,0.0,5.5959,0.0,5.7715,5.8242,5.9011,5.9358,5.9011,0.0,5.8165,5.5857,5.6406,5.5472,5.2385,5.2856,5.2472,5.0894,4.9188,0.0,0.0,0.0,0.0,4.3515,4.3515,4.3515,4.3515,4.3515,0.0,0.0,4.3515,4.3515,4.3515,4.3515,4.3515,4.3515,4.3515,4.3515,4.3515,4.3515,4.3515,4.3515,4.3515,4.3515,4.3515,4.3515,4.3515,4.3515,4.3515,4.3515,4.3515,4.3515,4.3515,4.3515,4.3515,4.3515,4.3356,4.2902,4.2789,4.2789,4.2789,4.2789,0.0,0.0,0.0,0.0,0.0,0.0,0.0,0.0,0.0,0.0,0.0,0.0,0.0,0.0,0.0,0.0,0.0,0.0,0.0,0.0,0.0,0.0,4.2641,4.518,0.0,4.6007,0.0,4.6887,4.709,4.6887,4.6887,4.709,4.6989,4.6989,4.7124,4.7767,4.8075,4.8308,4.956,4.9763,4.9357,4.9999,5.0642,5.1286,5.2029,5.1894,5.1454,0.0,0.0,0.0,0.0,0.0,5.7365,5.7943,5.7952,5.7869,5.7863,5.9165,5.9665,5.8434,5.9011,5.8665,5.6549,5.7022,0.0,0.0,0.0,0.0,5.4087,5.351,5.2741,5.1692,4.9455,4.7923,0.0,0.0,0.0,4.3515,4.3515,4.3515,4.3515,4.3515,0.0,4.3515,4.3515,0.0,4.3515,4.3515,4.3515,4.3515,4.3515,4.3515,4.3515,4.3515,4.3515,4.3515,4.3515,4.3515,4.3515,4.3515,4.3515,4.3515,4.3515,4.3515,4.3515,4.3515,4.3515,4.3515,4.3515,4.3515,4.348,4.3374,4.3356,4.3356,4.3356,4.3356,4.3374,4.3497,0.0,0.0,0.0,0.0,0.0,0.0,0.0,0.0,0.0,0.0,0.0,0.0,0.0,0.0,0.0,0.0,0.0,0.0,0.0,0.0,0.0,0.0,0.0,0.0,0.0,4.7394,4.8612,4.7361,4.7428,4.8578,4.8003,4.8037,4.8612,4.8748,4.9154,4.9729,4.9965,5.0371,5.0845,5.098,5.1116,5.1286,5.2029,5.2232,5.2232,0.0,0.0,0.0,0.0,0.0,0.0,0.0,5.9232,0.0,5.7802,5.7934,5.7857,5.7049,5.7703,5.7703,5.6472,5.6742,5.6637,5.5742,5.5703,5.5318,5.4549,5.4087,0.0,5.1606,4.9859,4.848,4.7417,0.0,0.0,0.0,0.0,0.0,4.3515,4.3515,4.3515,0.0,0.0,0.0,4.3515,4.3515,4.3515,4.3515,4.3515,4.3515,4.3515,4.3515,4.3515,4.3515,4.3515,4.3515,4.3515,4.3515,4.3515,4.3515,4.3515,4.3515,4.3515,4.3515,4.3515,4.3515,4.3515,4.3515,4.3515,4.3515,4.3515,4.3515,4.3515,4.3515,4.3515,4.3515,4.3515,0.0,0.0,0.0,0.0,0.0,0.0,0.0,0.0,0.0,0.0,0.0,0.0,0.0,0.0,0.0,0.0,0.0,0.0,0.0,0.0,0.0,0.0,0.0,0.0,0.0,4.8984,4.8274,4.8308,4.8984,4.8646,4.868,4.9018,4.939,4.9763,5.0135,5.0507,5.1352,5.2367,5.1928,5.2029,5.2435,5.2807,5.2909,5.2976,0.0,5.695,0.0,0.0,5.8008,0.0,5.8781,5.9752,5.9781,5.7791,5.6934,5.6357,5.6011,5.6599,5.6934,5.6742,5.6703,5.6445,5.5742,5.5703,5.5434,5.478,5.4587,5.3651,5.1878,5.0537,4.913,0.0,0.0,0.0,0.0,0.0,0.0,0.0,0.0,0.0,0.0,0.0,4.3754,4.3754,4.3754,4.3754,4.3718,4.3588,4.3515,4.3515,4.3515,4.3515,4.3515,4.3515,4.3515,4.3515,4.3515,4.3515,4.3515,4.3515,4.3515,4.3515,4.3515,4.3515,4.3515,4.3515,4.3515,4.3515,4.3515,4.3515,4.3515,4.3515,4.3515,4.3515,4.3515,4.3515,0.0,0.0,0.0,0.0,0.0,0.0,0.0,0.0,0.0,0.0,0.0,0.0,0.0,0.0,0.0,0.0,0.0,0.0,0.0,0.0,0.0,4.6718,4.8376,0.0,4.9086,0.0,4.9086,4.9018,4.9018,4.9154,4.9221,4.9255,4.9999,5.0405,5.0608,5.1386,5.2401,5.345,5.2807,5.2942,5.3518,5.3518,5.3518,5.3518,0.0,0.0,0.0,0.0,0.0,0.0,0.0,5.9608,5.955,5.9319,5.9204,5.855,5.706,5.6945,5.6676,5.5895,5.5818,5.578,5.5703,5.5703,5.5665,5.5588,5.4895,5.4215,5.3582,5.1684,4.9717,0.0,0.0,0.0,0.0,0.0,0.0,0.0,0.0,0.0,0.0,4.4268,4.4599,4.4599,4.4599,4.4599,4.4525,4.3791,4.3515,4.3515,4.3515,4.3515,4.3515,4.3515,4.3515,4.3515,4.3515,4.3515,4.3515,4.3515,4.3515,4.3515,4.3515,4.3515,4.3515,4.3515,4.3515,4.3515,4.3515,4.3515,4.3515,4.3515,4.3515,4.3515,4.3515,4.3515,4.3718,0.0,0.0,0.0,0.0,0.0,0.0,0.0,0.0,0.0,0.0,0.0,0.0,0.0,0.0,0.0,0.0,0.0,0.0,4.4479,0.0,4.7733,4.9864,4.9289,0.0,4.9965,4.9323,4.9018,4.9018,4.9695,4.9999,5.0033,5.0777,5.1488,5.2164,5.2976,5.3382,5.3484,5.3416,5.345,5.3518,5.3518,5.3518,5.3518,0.0,0.0,0.0,0.0,0.0,0.0,0.0,5.9848,5.9319,5.8858,5.8319,5.755,5.6368,5.6214,5.6088,5.5742,5.5703,5.5703,5.5703,5.5703,5.5703,5.5703,5.5395,5.4802,5.3875,5.2798,5.1221,0.0,0.0,0.0,0.0,0.0,0.0,0.0,0.0,4.4488,4.4966,4.5296,4.5406,4.5406,4.5406,4.5406,4.5406,4.5039,4.4635,4.4232,4.4232,4.3901,4.3515,4.3515,4.3515,4.3515,4.3515,4.3515,4.3515,4.3515,4.3515,4.3515,4.3515,4.3515,4.3515,4.3515,4.3515,4.3515,4.3515,4.3515,4.3515,4.3515,4.3515,4.3515,4.3515,4.3515,4.3754,0.0,0.0,0.0,0.0,0.0,0.0,0.0,0.0,0.0,0.0,0.0,0.0,0.0,0.0,0.0,0.0,0.0,0.0,4.5196,0.0,4.6984,5.0067,4.9796,5.0033,5.0777,5.0473,5.0338,5.0338,5.0642,5.1014,5.142,5.1725,5.23,5.3044,5.3382,5.3518,5.3518,5.3518,5.3518,5.3518,5.3518,5.3518,5.3551,5.9134,0.0,5.9616,0.0,6.0027,6.02,6.0739,6.005,5.9319,5.8742,5.7896,5.6934,5.5818,5.5703,5.5703,5.5703,5.5703,5.5703,5.5703,5.5703,5.5703,5.5703,5.5703,0.0,5.4256,5.3556,5.2312,5.0552,4.9307,0.0,0.0,0.0,0.0,0.0,4.5039,4.5369,4.592,4.614,4.625,4.625,4.625,4.625,4.625,4.5993,4.5553,4.5039,4.5039,4.4525,4.3864,4.3864,4.3681,4.3515,4.3515,4.3515,4.3515,4.3515,4.3515,4.3515,4.3515,4.3515,4.3515,4.3515,4.3515,4.3515,4.3515,4.3515,4.3588,4.3791,4.3864,4.3938,4.4158,4.4212,4.4452,0.0,0.0,0.0,0.0,0.0,0.0,0.0,0.0,4.4711,4.3792,0.0,0.0,0.0,0.0,0.0,0.0,0.0,0.0,0.0,0.0,0.0,0.0,5.0304,5.0676,5.1185,5.1185,5.1185,5.1217,5.142,5.1961,5.2672,5.2672,5.2976,5.3518,5.3518,5.3518,5.3518,5.3518,5.3518,5.3518,5.3518,5.3518,5.3585,6.0027,6.0522,6.0934,6.08,6.0793,6.0793,6.0781,6.005,5.9511,5.9473,5.8781,5.7627,5.5895,5.5703,5.5703,5.5703,5.5703,5.5703,5.5703,5.5703,5.5703,0.0,0.0,5.5493,5.5082,5.3844,5.2597,5.1409,0.0,0.0,4.7076,0.0,4.5883,4.5883,4.5883,4.5883,4.5957,4.6746,4.7076,4.7076,4.7076,4.7076,4.7003,4.6214,4.5883,4.5883,4.5883,4.5369,4.4709,4.4709,4.4158,4.3515,4.3515,4.3515,4.3515,4.3515,4.3515,4.3515,4.3515,4.3515,4.3515,4.3515,4.3515,4.3515,4.3515,4.3515,4.3718,4.4525,4.4709,4.4929,4.5736,4.5883,4.614,4.6929,0.0,0.0,0.0,0.0,0.0,0.0,4.5883,4.5259,4.3644,0.0,0.0,0.0,0.0,0.0,0.0,0.0,0.0,4.4615,4.6718,0.0,5.0067,5.0845,5.1217,5.1185,5.1185,5.1185,5.1219,5.1961,5.2739,5.3484,5.3484,5.3484,5.3518,5.3518,5.3518,5.3518,5.3518,5.3518,5.3518,5.3518,5.3518,5.3518,6.0592,6.0854,6.0963,6.0839,6.0781,6.0781,6.0781,6.005,5.9511,5.9511,5.8819,5.8088,5.755,5.7473,5.6973,0.0,5.6252,5.6329,0.0,5.5703,5.5703,5.5703,5.5703,5.5493,5.5121,5.4436,5.3461,5.2229,0.0,0.0,0.0,4.7682,4.7241,4.6709,4.6709,4.7021,4.7572,4.7829,4.7939,4.7939,4.7939,4.7939,4.7902,4.7645,4.7205,4.6709,4.6709,4.6214,4.5516,4.5516,4.4966,4.4415,4.4966,4.4378,4.3515,4.3515,4.3515,4.3608,4.4158,4.4305,4.4305,4.4305,4.4305,4.4158,4.3625,4.3515,4.3718,4.4525,4.4691,4.4966,4.5736,4.6361,4.6966,4.7773,0.0,0.0,0.0,0.0,0.0,0.0,0.0,4.4268,0.0,4.4721,0.0,0.0,0.0,0.0,0.0,0.0,0.0,0.0,4.75,0.0,5.1589,5.1826,5.2232,5.2773,5.2773,5.2773,5.2773,5.301,5.3281,5.3518,5.3518,5.3518,5.3518,5.3518,5.3518,5.3551,5.4059,5.3923,5.3619,5.4634,5.4668,5.4397,6.0907,6.0963,6.0884,6.0816,6.0781,6.0781,6.0781,6.0319,5.9973,5.9973,5.955,5.9127,5.8781,5.905,0.0,5.6357,5.6406,5.6291,5.5742,5.5703,5.5703,5.5703,5.5566,5.5363,5.5121,0.0,0.0,5.3069,5.237,5.0912,4.8783,4.8783,4.8343,4.7553,4.7553,4.781,4.8306,4.8306,4.8306,4.8306,4.8306,4.8306,4.8306,4.8306,4.7993,4.7553,4.7553,4.7039,4.6361,4.6361,4.581,4.5259,4.5736,4.5223,4.4378,4.4378,4.4378,4.4488,4.5002,4.5149,4.5149,4.5149,4.5149,4.5039,4.4525,4.4378,4.4635,4.5425,4.5608,4.5957,4.7058,4.7682,4.8306,4.9114,0.0,4.8857,0.0,0.0,0.0,0.0,0.0,0.0,0.0,4.5863,0.0,0.0,0.0,0.0,0.0,0.0,0.0,4.7462,4.8578,0.0,5.2266,5.2604,5.301,5.3518,5.3518,5.3518,5.3518,5.3518,5.3518,5.3518,5.3518,5.3518,5.3518,5.3518,5.3518,5.3551,5.4025,5.3923,5.3619,5.4532,5.4769,5.4668,6.0979,6.0892,0.0,0.0,6.0781,0.0,6.0781,6.0781,6.0781,6.0781,6.0781,6.0473,5.9665,6.0242,5.9742,5.7368,0.0,0.0,0.0,5.5895,5.5895,5.5895,5.5465,5.5197,5.5157,5.4288,5.3795,5.3777,5.2625,5.1242,4.9684,4.9684,4.9187,4.8306,4.8306,4.8306,4.8306,4.8306,4.8306,4.8306,4.8306,4.8306,4.8306,4.8306,4.8306,4.8306,4.8306,4.781,4.7186,4.7186,4.6636,4.5993,4.6067,4.603,4.5957,4.592,4.5883,4.592,4.5957,4.5993,4.5993,4.5993,4.5957,4.5883,4.5883,4.5883,4.614,4.7003,4.7186,4.7719,4.939,4.9721,5.0014,5.0765,5.0215,4.9407,4.86,0.0,0.0,0.0,0.0,0.0,0.0,4.7591,4.7649,0.0,0.0,0.0,0.0,0.0,4.78,4.7056,4.9796,5.1657,5.2367,5.3145,5.3518,5.3518,5.3518,5.3518,5.3518,5.3518,5.3518,5.3518,5.3518,5.3518,5.3518,5.3518,5.3518,5.3518,5.3619,5.3619,5.3585,5.3754,5.4194,5.4668,0.0,0.0,6.0781,6.0781,6.0781,6.0781,6.0781,6.0781,6.0781,6.0781,6.0781,6.0704,6.0512,6.0089,5.955,5.8973,5.8704,5.8357,5.7703,5.7665,5.7665,5.7665,5.6944,5.6218,5.5579,5.4754,5.4015,5.3339,5.3067,5.2087,5.0508,5.0508,4.9738,4.8306,4.8306,4.8306,4.8306,4.8306,4.8306,4.8306,4.8306,4.8306,4.8306,4.8306,4.8306,4.8306,4.8306,4.8196,4.7993,4.7993,4.748,4.6929,4.7535,4.7296,4.6709,4.6067,4.5883,4.603,4.6636,4.6819,4.6819,4.6819,4.6361,4.5883,4.5883,4.5883,4.6287,4.7719,4.7993,4.8526,5.0215,5.1022,5.1463,5.1683,5.1022,5.0435,5.0251,0.0,0.0,0.0,4.7369,4.7516,4.8619,4.8519,4.8436,0.0,0.0,0.0,0.0,4.9286,5.0101,4.9323,5.1082,5.2435,5.3213,5.3416,5.3518,5.3518,5.3518,5.3518,5.3518,5.3518,5.3518,5.3518,5.3518,5.3518,5.3518,5.3518,5.3518,5.3619,5.4735,5.4837,5.4532,5.6224,5.6596,5.6325,6.0781,6.0781,6.0781,6.0781,6.0781,6.0781,6.0781,6.0781,6.0781,6.0781,6.0781,6.0781,6.0781,6.0396,6.0089,6.0089,5.9396,5.8781,5.8319,5.7934,5.7703,5.7703,5.6511,5.5631,5.5158,5.4308,5.3662,5.3203,5.3203,5.2564,5.1353,5.1353,5.0472,4.8893,4.8893,4.8673,4.8306,4.8306,4.8526,4.8857,4.8453,4.8526,4.8857,4.8453,4.8563,4.8893,4.8893,4.9114,4.9407,4.9003,4.8857,4.8727,4.8416,4.8526,4.8617,4.7829,4.7315,4.7095,4.7516,4.7626,4.7736,4.8122,4.8159,4.8122,4.8122,4.8122,4.8379,4.926,4.9444,4.9848,5.1096,5.172,5.1977,5.1977,5.1316,5.0545,4.9774,4.8526,0.0,4.8269,4.86,4.9297,5.0565,5.03,4.9989,4.9889,0.0,0.0,4.8375,5.015,5.0879,5.0101,5.1894,5.3078,5.3518,5.3518,5.3518,5.3518,5.3518,5.3518,5.3518,5.3518,5.3518,5.3518,5.3518,5.3518,5.3518,5.3518,5.3518,5.3619,5.4769,5.4938,5.4769,5.6325,5.6867,5.6799,6.0781,6.0781,6.0781,6.0781,6.0781,6.0781,6.0781,6.0781,6.0781,6.0781,6.0781,6.0781,6.0781,6.0781,6.0781,6.0781,5.9511,5.8665,5.8665,5.7928,5.7405,5.7301,5.5727,5.4792,5.4576,5.3696,5.3203,5.3203,5.3203,5.2784,5.1977,5.1977,5.1206,4.9794,4.9794,4.9297,4.8489,4.8636,4.904,4.9537,4.893,4.9114,4.9721,4.8967,4.915,4.9794,4.9794,5.0215,5.0692,5.0014,5.0215,5.0545,4.915,4.9664,5.0655,4.9978,4.926,4.8673,4.8673,4.8673,4.8857,4.9517,5.0251,5.0802,5.0802,5.0802,5.0839,5.0949,5.0986,5.1242,5.2013,5.216,5.216,5.216,5.1389,5.0288,4.8893,0.0,4.86,4.882,5.0215,5.1536,5.2454,5.2386,5.1826,5.0748,5.0367,4.9958,0.0,5.0706,5.1082,5.0439,5.2435,5.3518,5.3518,5.3518,5.3551,5.3687,5.3687,5.3687,5.3687,5.3687,5.3619,5.3518,5.3518,5.3518,5.3518,5.3518,5.3585,5.3754,5.4465,5.4837,5.5006,5.5784,5.6427,5.6867,6.0781,6.0781,6.0781,6.0781,6.0781,6.0781,6.0781,6.0781,6.0781,6.0781,6.0781,6.0781,6.0781,6.0781,6.0781,6.0781,6.055,6.0396,6.0396,5.9907,5.9324,5.8612,5.7286,5.6052,5.5043,5.3813,5.3203,5.3203,5.3203,5.2784,5.1977,5.1977,5.1499,5.0618,5.0618,5.0141,4.9463,5.0105,5.0105,4.9647,5.0178,5.0508,5.0618,5.0472,5.0508,5.0618,5.0618,5.0692,5.0765,5.0655,5.0692,5.0765,5.0508,5.0582,5.0765,5.0655,5.0508,5.0398,5.0398,5.0398,5.0435,5.0582,5.0692,5.0802,5.0802,5.0802,5.0986,5.1683,5.1793,5.205,5.2858,5.3004,5.3004,5.3004,5.1793,5.0729,5.0435,0.0,4.9848,5.1242,5.227,5.3408,5.4876,5.3839,5.3267,5.3745,5.2017,5.1168,5.1765,5.2009,5.2097,5.1961,5.2976,5.3518,5.3518,5.3518,5.3822,5.4431,5.4431,5.4431,5.4431,5.4431,5.4093,5.3518,5.3518,5.3518,5.3518,5.3518,5.3856,5.4499,5.5243,5.5919,5.6562,5.7273,5.7611,5.7712,6.0781,6.0781,6.0781,6.0781,6.0781,6.0781,6.0781,6.0781,6.0781,6.0781,6.0781,6.0781,6.0781,6.0781,6.0781,6.0781,6.0585,6.0405,6.0405,5.9783,5.9124,5.8492,5.7215,5.594,5.4744,5.3718,5.3203,5.3203,5.3203,5.3004,5.2637,5.2637,5.2234,5.1463,5.1463,5.0986,5.0251,5.0655,5.0839,5.0896,5.0839,5.1059,5.1389,5.0986,5.1059,5.1463,5.1463,5.172,5.205,5.1573,5.172,5.194,5.1059,5.1389,5.2013,5.1573,5.1132,5.0802,5.0802,5.1132,5.1463,5.1463,5.1756,5.2087,5.2087,5.2087,5.2197,5.2564,5.3004,5.3408,5.3775,5.3849,5.3849,5.3849,5.2491,0.0,0.0,5.1463,5.1793,5.2564,5.3739,5.495,5.6124,5.5181,5.4496,5.4551,5.318,5.2317,5.2298,5.2292,5.2503,5.2942,5.3315,5.3518,5.3518,5.389,5.4059,5.4025,5.4397,5.46,5.46,5.46,5.4397,5.4093,5.4093,5.3856,5.3518,5.3518,5.3687,5.4126,5.5277,5.5919,5.6359,5.7476,5.7881,5.7881,6.0781,6.0781,6.0781,6.0781,6.0781,6.0781,6.0781,6.0781,6.0781,6.0781,6.0781,6.0781,6.0781,6.0781,6.0757,6.0647,6.0311,5.9991,5.9792,5.9169,5.8516,5.7971,5.6722,5.5447,5.4142,5.3702,5.3408,5.3203,5.3203,5.3203,5.3203,5.3203,5.2858,5.227,5.227,5.183,5.1096,5.1279,5.161,5.194,5.1536,5.172,5.2197,5.161,5.1756,5.227,5.227,5.2784,5.3371,5.2784,5.3078,5.3555,5.2307,5.2747,5.3628,5.3004,5.238,5.183,5.1463,5.1793,5.227,5.227,5.2747,5.3203,5.3203,5.3314,5.3482,5.3482,5.4106,5.4693,5.4693,5.4693,5.4693,5.4693,0.0,0.0,0.0,5.3078,5.3555,5.3739,5.5023,5.6198,5.7005,5.6356,5.5595,5.4906,5.4133,5.338,5.2603,5.257,5.2875,5.3484,5.3518,5.3518,5.3518,5.4059,5.416,5.3754,5.4499,5.4871,5.4871,5.504,5.4905,5.46,5.4769,5.4329,5.3551,5.389,5.4025,5.416,5.5446,5.6089,5.6359,5.7476,5.7881,5.7881,6.0781,6.0781,6.0781,6.0781,6.0781,6.0781,6.0781,6.0781,6.0781,6.0781,6.0781,6.0781,6.0781,6.0781,6.0622,6.0175,6.0118,5.9744,5.8855,5.8758,5.8365,5.758,5.633,5.4883,5.3314,5.3959,5.3959,5.3203,5.3203,5.3203,5.3203,5.3203,5.3167,5.3115,5.3115,5.2674,5.194,5.2711,5.2637,5.205,5.2747,5.3057,5.3115,5.3078,5.3057,5.3115,5.3115,5.3628,5.4289,5.4252,5.4766,5.539,5.528,5.5317,5.539,5.5376,5.528,5.4913,5.3445,5.3057,5.3115,5.3115,5.3188,5.3203,5.3203,5.3775,5.4326,5.4326,5.495,5.55,5.55,5.55,5.55,5.55,0.0,0.0,5.4216,5.4252,5.4583,5.5317,5.6198,5.7042,5.7813,5.7231,5.6462,5.5674,5.4914,5.419,5.345,5.3416,5.345,5.3518,5.3518,5.3518,5.3518,5.3551,5.389,5.4532,5.5277,5.5649,5.5649,5.6325,5.5886,5.4634,5.5344,5.4837,5.3619,5.4972,5.5547,5.5649,5.6427,5.7137,5.7746,5.7848,5.7881,5.7881,6.0781,6.0781,6.0781,6.0781,6.0781,6.0781,6.0781,6.0781,6.0781,6.0781,6.0781,6.0781,6.0781,6.0533,6.0297,6.0118,5.9559,5.9065,5.8696,5.8439,5.8113,5.7817,5.6882,5.5831,5.4693,5.4987,5.4509,5.3203,5.3702,5.3702,5.3203,5.3203,5.3203,5.3203,5.3203,5.3041,5.2747,5.3057,5.3041,5.2784,5.3078,5.3203,5.3203,5.3203,5.3518,5.3959,5.3959,5.4473,5.5133,5.5133,5.5354,5.5596,5.5596,5.5596,5.5596,5.5596,5.5596,5.5464,5.484,5.4693,5.4693,5.4693,5.4693,5.4693,5.4693,5.4913,5.5133,5.5133,5.5794,5.6345,5.6345,5.6345,5.6492,5.7005,0.0,5.5317,5.5831,5.5904,5.6014,5.6308,5.7042,5.7666,5.796,5.7327,5.6563,5.578,5.5029,5.4264,5.3517,5.3518,5.3518,5.3518,5.3518,5.3518,5.3518,5.3957,5.4329,5.46,5.5344,5.5953,5.6393,5.6664,5.6494,5.5987,5.6258,5.5818,5.4938,5.548,5.5681,5.5749,5.6528,5.6968,5.7273,5.7712,5.7881,5.7881,6.1127,6.1204,6.1281,6.155,6.1358,6.1204,6.1204,6.0973,6.0781,6.0781,6.0659,6.0597,6.0597,6.0161,5.9823,5.9658,5.9047,5.8652,5.8503,5.8186,5.7886,5.7629,5.7336,5.6675,5.5611,5.5831,5.5317,5.3959,5.4509,5.4473,5.3959,5.3959,5.3812,5.3592,5.3592,5.3445,5.3203,5.3203,5.3203,5.3203,5.3203,5.3371,5.3555,5.3298,5.3849,5.473,5.4473,5.506,5.5978,5.5978,5.6124,5.6345,5.6345,5.6345,5.6345,5.6345,5.6345,5.6345,5.6345,5.6345,5.6235,5.5721,5.5596,5.5596,5.5596,5.5794,5.5978,5.5978,5.6638,5.7189,5.7189,5.7189,5.7373,5.7923,5.7079,5.6528,5.7116,5.7189,5.7189,5.7189,5.7666,5.7997,5.7997,5.7327,5.6563,5.578,5.5029,5.4264,5.3517,5.3518,5.3518,5.3518,5.3721,5.3856,5.3856,5.4329,5.46,5.46,5.5581,5.6325,5.6799,5.7036,5.7036,5.6799,5.7036,5.6596,5.575,5.6224,5.6258,5.6122,5.6867,5.7137,5.7205,5.7712,5.7881,5.7881,6.1908,6.2101,6.2358,6.3166,6.2627,6.2101,6.2101,6.1358,6.0781,6.0781,6.0378,6.0103,6.0103,5.9696,5.9232,5.8753,5.8713,5.8503,5.8042,5.7997,5.7666,5.6859,5.7556,5.7262,5.5647,5.6418,5.6418,5.5596,5.5633,5.5633,5.5596,5.5596,5.517,5.4399,5.4399,5.3959,5.3203,5.3203,5.3203,5.3203,5.3203,5.3702,5.4326,5.3518,5.4216,5.55,5.4693,5.5464,5.6822,5.6822,5.7336,5.7997,5.7997,5.7997,5.7997,5.7997,5.7997,5.7997,5.7997,5.7997,5.7629,5.6014,5.5611,5.5611,5.5611,5.6235,5.6822,5.6822,5.7446,5.7997,5.7997,5.7997,5.7997,5.7997,5.7997,5.7997,5.7997,5.7997,5.7997,5.7997,5.7997,5.7997,5.7997,5.7327,5.6563,5.5752,5.5029,5.4264,5.3551,5.3518,5.3518,5.3518,5.4228,5.46,5.46,5.46,5.46,5.4634,5.6089,5.6799,5.6833,5.7577,5.7476,5.6867,5.7577,5.707,5.5852,5.7306,5.7476,5.6867,5.7611,5.7881,5.7881,5.7881,5.7881,5.7881,6.1127,6.1678,6.2178,6.2397,6.2743,6.2743,6.2178,6.1595,6.1013,6.0387,6.038,6.043,6.043,6.0529,6.0533,6.0406,6.0078,5.9578,5.8877,5.8841,5.8474,5.7666,5.7886,5.7519,5.6455,5.7226,5.6969,5.5596,5.6161,5.6161,5.5596,5.5596,5.5464,5.5244,5.5244,5.5097,5.484,5.4289,5.4032,5.4032,5.4032,5.4179,5.4436,5.4766,5.5537,5.6418,5.6161,5.6748,5.7629,5.7629,5.7813,5.7997,5.7997,5.7997,5.7997,5.7997,5.7997,5.7997,5.7997,5.7997,5.7886,5.7409,5.7262,5.7262,5.7262,5.7483,5.7629,5.7629,5.829,5.8694,5.8107,5.8474,5.8657,5.8107,5.7997,5.7997,5.7997,5.7997,5.7997,5.7997,5.7997,5.7797,5.7302,5.7039,5.6361,5.5034,5.4714,5.4499,5.4296,5.4769,5.4803,5.4296,5.5006,5.5378,5.5378,5.5378,5.5649,5.6156,5.6596,5.707,5.7577,5.778,5.778,5.7577,5.778,5.7645,5.7273,5.7712,5.7746,5.7577,5.7814,5.7881,5.7881,5.7881,5.7881,5.7881,6.1243,6.1755,6.2332,6.2974,6.3205,6.3194,6.2835,6.2247,6.1606,6.0849,6.0805,6.0792,6.0792,6.0795,6.0804,6.0804,6.0558,6.0199,5.9698,5.9661,5.9318,5.851,5.8474,5.8107,5.7299,5.774,5.7519,5.6528,5.7042,5.7042,5.6528,5.6528,5.6381,5.6051,5.6051,5.5904,5.5596,5.506,5.4876,5.4876,5.4876,5.506,5.539,5.5537,5.6308,5.7226,5.6932,5.7336,5.7997,5.7997,5.7997,5.7997,5.7997,5.7997,5.7997,5.7997,5.7997,5.7997,5.7997,5.8217,5.84,5.807,5.7997,5.807,5.84,5.8474,5.8547,5.8877,5.9098,5.9148,5.8988,5.9098,5.9038,5.8547,5.8731,5.8841,5.851,5.8767,5.8951,5.8951,5.8677,5.8285,5.7841,5.7249,5.6334,5.5128,5.5043,5.504,5.504,5.548,5.5513,5.504,5.575,5.6156,5.6156,5.6427,5.6664,5.6799,5.7103,5.7476,5.7881,5.7881,5.7881,5.7881,5.7881,5.7881,5.7881,5.7881,5.7881,5.7881,5.7881,5.7881,5.7881,5.7881,5.7881,5.7915,6.1831,6.2077,6.2629,6.4155,6.386,6.3461,6.3711,6.3083,6.2373,6.1825,6.1399,6.114,6.114,6.0822,6.0603,6.0603,6.0603,6.0603,6.0529,6.0529,6.0162,5.9331,5.9221,5.8854,5.8107,5.8033,5.7997,5.7997,5.7997,5.7997,5.7997,5.7997,5.7593,5.6932,5.6932,5.6492,5.5794,5.5743,5.5706,5.5706,5.5706,5.6161,5.6748,5.6051,5.6712,5.7886,5.7189,5.7373,5.7997,5.7997,5.7997,5.7997,5.807,5.8107,5.8107,5.818,5.8217,5.8217,5.8217,5.8767,5.9111,5.84,5.8217,5.84,5.9038,5.9258,5.9515,6.0272,5.9869,5.9625,6.0272,5.9869,5.9368,5.9294,5.9942,6.0162,5.9404,5.9942,6.0419,6.0419,5.9765,5.9249,5.9114,5.767,5.647,5.5921,5.5852,5.5818,5.5818,5.5886,5.5886,5.5818,5.6528,5.69,5.69,5.7543,5.7543,5.69,5.7577,5.7881,5.7881,5.7881,5.7881,5.7881,5.7881,5.7881,5.7881,5.7881,5.7881,5.7881,5.7881,5.7881,5.7881,5.7881,5.7881,5.8017,6.105,6.1824,6.261,6.2968,6.366,6.3961,6.3363,6.2786,6.2153,6.1355,6.1382,6.1492,6.1492,6.1961,6.2291,6.2291,6.2291,6.2034,6.1374,6.1337,6.097,6.0162,5.9515,5.9111,5.8927,5.8327,5.7997,5.7997,5.7997,5.7997,5.7997,5.7997,5.7923,5.774,5.774,5.7629,5.7446,5.6822,5.6528,5.6528,5.6528,5.6638,5.6859,5.7299,5.7703,5.796,5.7813,5.785,5.7997,5.7997,5.7997,5.8107,5.8767,5.8927,5.9061,5.9685,5.9869,5.9869,5.9869,6.0015,6.0126,5.9905,5.9869,5.9758,5.9294,5.9685,6.0199,6.0382,6.075,6.0933,6.0493,6.0786,6.086,6.0236,6.0309,6.0346,6.0162,6.0309,6.0419,6.0419,6.0262,5.9662,5.8445,5.6861,5.6367,5.734,5.69,5.6562,5.6562,5.7103,5.7171,5.6596,5.7273,5.7645,5.7645,5.7814,5.7814,5.7645,5.7814,5.7881,5.7881,5.7881,5.7881,5.7881,5.7881,5.7881,5.7881,5.7881,5.7881,5.7881,5.7881,5.7881,5.7881,5.7881,5.7881,5.8017,6.1017,6.166,6.2362,6.2779,6.3345,6.3672,6.3381,6.3152,6.2702,6.198,6.2082,6.2181,6.2181,6.2548,6.278,6.278,6.278,6.2622,6.2218,6.2181,6.1814,6.1006,6.0566,6.0162,5.9795,5.9355,5.8767,5.7997,5.7997,5.7997,5.7997,5.7997,5.7997,5.7997,5.7997,5.7997,5.796,5.7556,5.7373,5.7373,5.7373,5.7373,5.7409,5.785,5.7997,5.7997,5.7997,5.7997,5.7997,5.7997,5.7997,5.8143,5.8951,5.9184,5.9368,6.0162,6.0419,6.0419,6.0419,6.0676,6.0896,6.0493,6.097,6.1337,6.0529,6.0676,6.108,6.1484,6.1557,6.1594,6.1557,6.1594,6.1447,6.1043,6.13,6.1557,6.1557,6.1887,6.2328,6.2695,6.238,6.1496,5.9889,5.8664,5.8079,5.8392,5.7746,5.7306,5.7306,5.7679,5.7712,5.734,5.7679,5.7881,5.7881,5.7881,5.7881,5.7881,5.7881,5.7881,5.7881,5.7881,5.7881,5.7881,5.7881,5.7881,5.7881,5.7881,5.7881,5.7881,5.7881,5.7881,5.7881,5.7881,5.8321,5.9066,6.1172,6.1568,6.2109,6.2862,6.3011,6.315,6.3431,6.3476,6.3294,6.2855,6.278,6.278,6.278,6.278,6.278,6.278,6.278,6.278,6.278,6.278,6.2511,6.1814,6.1667,6.13,6.0639,6.0456,5.9758,5.84,5.8253,5.8217,5.8217,5.807,5.7997,5.7997,5.7997,5.7997,5.7997,5.7997,5.7997,5.7997,5.7997,5.7997,5.7997,5.7997,5.7997,5.7997,5.7997,5.7997,5.8033,5.8143,5.8217,5.8364,5.9318,5.9588,5.9795,6.0566,6.0823,6.0823,6.0823,6.13,6.163,6.097,6.1924,6.2842,6.2181,6.1887,6.2034,6.2842,6.2475,6.2254,6.3099,6.2695,6.2218,6.2218,6.2805,6.3246,6.3246,6.387,6.453,6.5228,6.4391,6.3229,6.1811,6.0878,6.0008,5.9238,5.8626,5.8254,5.8254,5.8152,5.8084,5.8084,5.7949,5.7881,5.7881,5.7881,5.7949,5.8084,5.8084,5.8017,5.7881,5.7881,5.7881,5.7881,5.7881,5.7881,5.7881,5.7881,5.7881,5.7881,5.7881,5.7881,5.7881,5.7881,5.8829,6.0216,6.0687,6.1523,6.2279,6.2391,6.2664,6.2879,6.2892,6.2929,6.2904,6.2805,6.278,6.278,6.278,6.278,6.278,6.278,6.278,6.278,6.278,6.278,6.2743,6.2658,6.1961,6.1557,6.1447,6.075,6.0309,6.0089,5.9368,5.9038,5.9001,5.8327,5.7997,5.7997,5.7997,5.7997,5.7997,5.7997,5.7997,5.7997,5.7997,5.7997,5.7997,5.7997,5.7997,5.7997,5.7997,5.7997,5.8107,5.8804,5.9038,5.9318,6.0786,6.1263,6.1447,6.2254,6.245,6.245,6.245,6.2548,6.2622,6.2487,6.3209,6.3906,6.3796,6.3172,6.2879,6.3759,6.3833,6.4016,6.4824,6.4897,6.4824,6.4824,6.4897,6.4971,6.4971,6.5081,6.5191,6.5301,6.3869,6.2793,6.257,6.1083,6.0095,5.9945,5.9844,5.981,5.981,5.9201,5.8863,5.8863,5.822,5.7881,5.7881,5.7881,5.822,5.8863,5.8863,5.8524,5.7881,5.7881,5.7881,5.7881,5.7881,5.7881,5.7881,5.7881,5.7881,5.7881,5.7881,5.7881,5.7881,5.7881,5.8829,6.0114,6.1554,6.2122,6.2567,6.2567,6.272,6.278,6.278,6.278,6.278,6.278,6.278,6.278,6.278,6.278,6.278,6.278,6.278,6.278,6.278,6.278,6.278,6.278,6.2475,6.2291,6.2291,6.1484,6.13,6.1741,6.0028,5.9184,5.9184,5.84,5.7997,5.7997,5.7997,5.7997,5.7997,5.7997,5.7997,5.7997,5.7997,5.7997,5.7997,5.7997,5.7997,5.7997,5.7997,5.829,5.8731,5.9074,5.9478,6.0089,6.1227,6.1594,6.1851,6.3135,6.3172,6.3,6.3943,6.387,6.3649,6.409,6.4494,6.4787,6.4787,6.4494,6.431,6.4677,6.4787,6.4897,6.5228,6.5301,6.5301,6.5301,6.5301,6.5485,6.5925,6.5962,6.6145,6.6586,6.5533,6.455,6.4037,6.2475,6.1294,6.0795,6.0351,6.0114,6.0114,5.981,5.9438,5.9032,5.8693,5.8321,5.7881,5.7881,5.8051,5.8389,5.8389,5.8423,5.8524,5.8524,5.8287,5.7881,5.7881,5.7881,5.7881,5.7881,5.7881,5.7881,5.7881,5.7881,5.7949,5.8355,5.9201,6.0148]}]]